<?xml version="1.0" encoding="UTF-8"?>
<gpx version="1.1" creator="Garmin Connect"
  xsi:schemaLocation="http://www.topografix.com/GPX/1/1 http://www.topografix.com/GPX/1/1/gpx.xsd http://www.garmin.com/xmlschemas/GpxExtensions/v3 http://www.garmin.com/xmlschemas/GpxExtensionsv3.xsd http://www.garmin.com/xmlschemas/TrackPointExtension/v1 http://www.garmin.com/xmlschemas/TrackPointExtensionv1.xsd"
  xmlns="http://www.topografix.com/GPX/1/1"
  xmlns:gpxtpx="http://www.garmin.com/xmlschemas/TrackPointExtension/v1"
  xmlns:gpxx="http://www.garmin.com/xmlschemas/GpxExtensions/v3" xmlns:xsi="http://www.w3.org/2001/XMLSchema-instance">
  <metadata>
    <link href="connect.garmin.com">
      <text>Garmin Connect</text>
    </link>
    <time>2014-07-12T03:06:58.000Z</time>
  </metadata>
  <trk>
    <name>Nachal Ilan</name>
    <trkseg>
      <trkpt lon="35.02048336900771" lat="31.809698212891817">
        <ele>319.3999938964844</ele>
        <time>2014-07-12T03:06:58.000Z</time>
      </trkpt>
      <trkpt lon="35.02059199847281" lat="31.80947449989617">
        <ele>323.79998779296875</ele>
        <time>2014-07-12T03:07:19.000Z</time>
      </trkpt>
      <trkpt lon="35.02056702040136" lat="31.80950526148081">
        <ele>323.0</ele>
        <time>2014-07-12T03:07:39.000Z</time>
      </trkpt>
      <trkpt lon="35.02055059187114" lat="31.809502160176635">
        <ele>323.0</ele>
        <time>2014-07-12T03:08:00.000Z</time>
      </trkpt>
      <trkpt lon="35.02050943672657" lat="31.80955471470952">
        <ele>321.79998779296875</ele>
        <time>2014-07-12T03:08:09.000Z</time>
      </trkpt>
      <trkpt lon="35.020479932427406" lat="31.80955999530852">
        <ele>321.3999938964844</ele>
        <time>2014-07-12T03:08:22.000Z</time>
      </trkpt>
      <trkpt lon="35.02046392299235" lat="31.809597043320537">
        <ele>320.6000061035156</ele>
        <time>2014-07-12T03:08:40.000Z</time>
      </trkpt>
      <trkpt lon="35.02047666348517" lat="31.809605676680803">
        <ele>320.6000061035156</ele>
        <time>2014-07-12T03:08:48.000Z</time>
      </trkpt>
      <trkpt lon="35.02048538066447" lat="31.80960802361369">
        <ele>320.6000061035156</ele>
        <time>2014-07-12T03:08:58.000Z</time>
      </trkpt>
      <trkpt lon="35.020470544695854" lat="31.809588242322206">
        <ele>320.79998779296875</ele>
        <time>2014-07-12T03:09:11.000Z</time>
      </trkpt>
      <trkpt lon="35.02047507092357" lat="31.809591930359602">
        <ele>320.79998779296875</ele>
        <time>2014-07-12T03:09:29.000Z</time>
      </trkpt>
      <trkpt lon="35.02048160880804" lat="31.809586314484477">
        <ele>321.0</ele>
        <time>2014-07-12T03:09:42.000Z</time>
      </trkpt>
      <trkpt lon="35.02048512920737" lat="31.809578435495496">
        <ele>321.20001220703125</ele>
        <time>2014-07-12T03:10:03.000Z</time>
      </trkpt>
      <trkpt lon="35.02046970650554" lat="31.809598803520203">
        <ele>320.6000061035156</ele>
        <time>2014-07-12T03:10:19.000Z</time>
      </trkpt>
      <trkpt lon="35.0205010548234" lat="31.80960165336728">
        <ele>321.0</ele>
        <time>2014-07-12T03:10:36.000Z</time>
      </trkpt>
      <trkpt lon="35.02050315029919" lat="31.809618081897497">
        <ele>320.79998779296875</ele>
        <time>2014-07-12T03:10:52.000Z</time>
      </trkpt>
      <trkpt lon="35.02048026770353" lat="31.809622440487146">
        <ele>320.3999938964844</ele>
        <time>2014-07-12T03:11:05.000Z</time>
      </trkpt>
      <trkpt lon="35.020471047610044" lat="31.80961380712688">
        <ele>320.3999938964844</ele>
        <time>2014-07-12T03:11:23.000Z</time>
      </trkpt>
      <trkpt lon="35.02049812115729" lat="31.809640042483807">
        <ele>320.3999938964844</ele>
        <time>2014-07-12T03:11:34.000Z</time>
      </trkpt>
      <trkpt lon="35.020456882193685" lat="31.809656471014023">
        <ele>319.6000061035156</ele>
        <time>2014-07-12T03:11:46.000Z</time>
      </trkpt>
      <trkpt lon="35.0204458180815" lat="31.80966066196561">
        <ele>319.6000061035156</ele>
        <time>2014-07-12T03:12:03.000Z</time>
      </trkpt>
      <trkpt lon="35.02040441147983" lat="31.80965487845242">
        <ele>319.20001220703125</ele>
        <time>2014-07-12T03:12:19.000Z</time>
      </trkpt>
      <trkpt lon="35.02038731239736" lat="31.809677174314857">
        <ele>318.6000061035156</ele>
        <time>2014-07-12T03:12:38.000Z</time>
      </trkpt>
      <trkpt lon="35.02037599682808" lat="31.809685807675123">
        <ele>318.3999938964844</ele>
        <time>2014-07-12T03:12:53.000Z</time>
      </trkpt>
      <trkpt lon="35.02036560326815" lat="31.809691423550248">
        <ele>318.20001220703125</ele>
        <time>2014-07-12T03:13:02.000Z</time>
      </trkpt>
      <trkpt lon="35.02038144506514" lat="31.809685891494155">
        <ele>318.3999938964844</ele>
        <time>2014-07-12T03:13:16.000Z</time>
      </trkpt>
      <trkpt lon="35.02038597129285" lat="31.809669295325875">
        <ele>318.6000061035156</ele>
        <time>2014-07-12T03:13:29.000Z</time>
      </trkpt>
      <trkpt lon="35.02037490718067" lat="31.809668205678463">
        <ele>318.6000061035156</ele>
        <time>2014-07-12T03:13:38.000Z</time>
      </trkpt>
      <trkpt lon="35.020313300192356" lat="31.809677928686142">
        <ele>317.6000061035156</ele>
        <time>2014-07-12T03:13:42.000Z</time>
      </trkpt>
      <trkpt lon="35.020290249958634" lat="31.809667702764273">
        <ele>317.6000061035156</ele>
        <time>2014-07-12T03:13:43.000Z</time>
      </trkpt>
      <trkpt lon="35.02026711590588" lat="31.80965722538531">
        <ele>317.3999938964844</ele>
        <time>2014-07-12T03:13:44.000Z</time>
      </trkpt>
      <trkpt lon="35.02024230547249" lat="31.80964859202504">
        <ele>317.20001220703125</ele>
        <time>2014-07-12T03:13:45.000Z</time>
      </trkpt>
      <trkpt lon="35.020216070115566" lat="31.809636522084475">
        <ele>317.20001220703125</ele>
        <time>2014-07-12T03:13:46.000Z</time>
      </trkpt>
      <trkpt lon="35.02005698159337" lat="31.80952688679099">
        <ele>316.79998779296875</ele>
        <time>2014-07-12T03:13:53.000Z</time>
      </trkpt>
      <trkpt lon="35.0200018286705" lat="31.809489587321877">
        <ele>316.79998779296875</ele>
        <time>2014-07-12T03:13:57.000Z</time>
      </trkpt>
      <trkpt lon="35.01998028717935" lat="31.80948774330318">
        <ele>316.6000061035156</ele>
        <time>2014-07-12T03:13:58.000Z</time>
      </trkpt>
      <trkpt lon="35.019956063479185" lat="31.809489084407687">
        <ele>316.3999938964844</ele>
        <time>2014-07-12T03:13:59.000Z</time>
      </trkpt>
      <trkpt lon="35.01970946788788" lat="31.809539292007685">
        <ele>314.20001220703125</ele>
        <time>2014-07-12T03:14:07.000Z</time>
      </trkpt>
      <trkpt lon="35.019470332190394" lat="31.809607185423374">
        <ele>311.3999938964844</ele>
        <time>2014-07-12T03:14:15.000Z</time>
      </trkpt>
      <trkpt lon="35.01937352120876" lat="31.80964607745409">
        <ele>310.0</ele>
        <time>2014-07-12T03:14:21.000Z</time>
      </trkpt>
      <trkpt lon="35.019354494288564" lat="31.809675581753254">
        <ele>309.6000061035156</ele>
        <time>2014-07-12T03:14:29.000Z</time>
      </trkpt>
      <trkpt lon="35.01935055479407" lat="31.809686478227377">
        <ele>309.6000061035156</ele>
        <time>2014-07-12T03:14:44.000Z</time>
      </trkpt>
      <trkpt lon="35.01930688507855" lat="31.809724615886807">
        <ele>309.20001220703125</ele>
        <time>2014-07-12T03:14:51.000Z</time>
      </trkpt>
      <trkpt lon="35.01928651705384" lat="31.80972084403038">
        <ele>309.20001220703125</ele>
        <time>2014-07-12T03:14:52.000Z</time>
      </trkpt>
      <trkpt lon="35.01926246099174" lat="31.809711875393987">
        <ele>309.0</ele>
        <time>2014-07-12T03:14:53.000Z</time>
      </trkpt>
      <trkpt lon="35.01923991367221" lat="31.809698212891817">
        <ele>309.0</ele>
        <time>2014-07-12T03:14:54.000Z</time>
      </trkpt>
      <trkpt lon="35.01922239549458" lat="31.809681029990315">
        <ele>309.0</ele>
        <time>2014-07-12T03:14:55.000Z</time>
      </trkpt>
      <trkpt lon="35.019206050783396" lat="31.80966468527913">
        <ele>309.0</ele>
        <time>2014-07-12T03:14:56.000Z</time>
      </trkpt>
      <trkpt lon="35.01918920315802" lat="31.809650352224708">
        <ele>309.0</ele>
        <time>2014-07-12T03:14:57.000Z</time>
      </trkpt>
      <trkpt lon="35.01902340911329" lat="31.80962596088648">
        <ele>308.20001220703125</ele>
        <time>2014-07-12T03:15:04.000Z</time>
      </trkpt>
      <trkpt lon="35.01886926591396" lat="31.809659991413355">
        <ele>307.3999938964844</ele>
        <time>2014-07-12T03:15:08.000Z</time>
      </trkpt>
      <trkpt lon="35.01885116100311" lat="31.809693351387978">
        <ele>307.20001220703125</ele>
        <time>2014-07-12T03:15:09.000Z</time>
      </trkpt>
      <trkpt lon="35.01884420402348" lat="31.80973350070417">
        <ele>307.0</ele>
        <time>2014-07-12T03:15:10.000Z</time>
      </trkpt>
      <trkpt lon="35.01890388317406" lat="31.8099201656878">
        <ele>306.79998779296875</ele>
        <time>2014-07-12T03:15:16.000Z</time>
      </trkpt>
      <trkpt lon="35.01894000917673" lat="31.809966014698148">
        <ele>306.79998779296875</ele>
        <time>2014-07-12T03:15:19.000Z</time>
      </trkpt>
      <trkpt lon="35.01886390149593" lat="31.80997045710683">
        <ele>306.6000061035156</ele>
        <time>2014-07-12T03:15:23.000Z</time>
      </trkpt>
      <trkpt lon="35.018893321976066" lat="31.809908850118518">
        <ele>306.6000061035156</ele>
        <time>2014-07-12T03:15:28.000Z</time>
      </trkpt>
      <trkpt lon="35.018956772983074" lat="31.809939863160253">
        <ele>307.0</ele>
        <time>2014-07-12T03:15:31.000Z</time>
      </trkpt>
      <trkpt lon="35.01896959729493" lat="31.809962578117847">
        <ele>307.0</ele>
        <time>2014-07-12T03:15:32.000Z</time>
      </trkpt>
      <trkpt lon="35.018983259797096" lat="31.809988310560584">
        <ele>307.20001220703125</ele>
        <time>2014-07-12T03:15:33.000Z</time>
      </trkpt>
      <trkpt lon="35.0191368162632" lat="31.81021478958428">
        <ele>307.79998779296875</ele>
        <time>2014-07-12T03:15:41.000Z</time>
      </trkpt>
      <trkpt lon="35.01926111988723" lat="31.81037999689579">
        <ele>308.3999938964844</ele>
        <time>2014-07-12T03:15:49.000Z</time>
      </trkpt>
      <trkpt lon="35.019424986094236" lat="31.810586694628">
        <ele>309.3999938964844</ele>
        <time>2014-07-12T03:16:00.000Z</time>
      </trkpt>
      <trkpt lon="35.01959312707186" lat="31.81078257970512">
        <ele>310.3999938964844</ele>
        <time>2014-07-12T03:16:10.000Z</time>
      </trkpt>
      <trkpt lon="35.0197047740221" lat="31.81092289276421">
        <ele>311.20001220703125</ele>
        <time>2014-07-12T03:16:18.000Z</time>
      </trkpt>
      <trkpt lon="35.01991247758269" lat="31.811138223856688">
        <ele>312.6000061035156</ele>
        <time>2014-07-12T03:16:31.000Z</time>
      </trkpt>
      <trkpt lon="35.020063603296876" lat="31.811292031779885">
        <ele>313.3999938964844</ele>
        <time>2014-07-12T03:16:41.000Z</time>
      </trkpt>
      <trkpt lon="35.02015178091824" lat="31.811422370374203">
        <ele>314.20001220703125</ele>
        <time>2014-07-12T03:16:50.000Z</time>
      </trkpt>
      <trkpt lon="35.02029343508184" lat="31.811582297086716">
        <ele>315.20001220703125</ele>
        <time>2014-07-12T03:17:01.000Z</time>
      </trkpt>
      <trkpt lon="35.02039611339569" lat="31.81169201619923">
        <ele>315.6000061035156</ele>
        <time>2014-07-12T03:17:09.000Z</time>
      </trkpt>
      <trkpt lon="35.02048932015896" lat="31.81180777028203">
        <ele>316.3999938964844</ele>
        <time>2014-07-12T03:17:19.000Z</time>
      </trkpt>
      <trkpt lon="35.02047758549452" lat="31.81185219436884">
        <ele>316.6000061035156</ele>
        <time>2014-07-12T03:17:24.000Z</time>
      </trkpt>
      <trkpt lon="35.02046786248684" lat="31.81185806170106">
        <ele>316.6000061035156</ele>
        <time>2014-07-12T03:17:25.000Z</time>
      </trkpt>
      <trkpt lon="35.02045026049018" lat="31.811856720596552">
        <ele>316.6000061035156</ele>
        <time>2014-07-12T03:17:26.000Z</time>
      </trkpt>
      <trkpt lon="35.02043131738901" lat="31.811848422512412">
        <ele>316.3999938964844</ele>
        <time>2014-07-12T03:17:27.000Z</time>
      </trkpt>
      <trkpt lon="35.02041547559202" lat="31.811842303723097">
        <ele>316.3999938964844</ele>
        <time>2014-07-12T03:17:28.000Z</time>
      </trkpt>
      <trkpt lon="35.02040047198534" lat="31.81183568201959">
        <ele>316.3999938964844</ele>
        <time>2014-07-12T03:17:29.000Z</time>
      </trkpt>
      <trkpt lon="35.02038639038801" lat="31.811831910163164">
        <ele>316.3999938964844</ele>
        <time>2014-07-12T03:17:30.000Z</time>
      </trkpt>
      <trkpt lon="35.02036979421973" lat="31.81183073669672">
        <ele>316.3999938964844</ele>
        <time>2014-07-12T03:17:31.000Z</time>
      </trkpt>
      <trkpt lon="35.020230654627085" lat="31.8118248693645">
        <ele>316.3999938964844</ele>
        <time>2014-07-12T03:17:39.000Z</time>
      </trkpt>
      <trkpt lon="35.02008154056966" lat="31.8118179962039">
        <ele>316.20001220703125</ele>
        <time>2014-07-12T03:17:47.000Z</time>
      </trkpt>
      <trkpt lon="35.019943322986364" lat="31.811820594593883">
        <ele>316.20001220703125</ele>
        <time>2014-07-12T03:17:55.000Z</time>
      </trkpt>
      <trkpt lon="35.01979538239539" lat="31.81183467619121">
        <ele>316.79998779296875</ele>
        <time>2014-07-12T03:18:04.000Z</time>
      </trkpt>
      <trkpt lon="35.01963277347386" lat="31.81188002228737">
        <ele>318.20001220703125</ele>
        <time>2014-07-12T03:18:13.000Z</time>
      </trkpt>
      <trkpt lon="35.01944560557604" lat="31.811925703659654">
        <ele>319.3999938964844</ele>
        <time>2014-07-12T03:18:23.000Z</time>
      </trkpt>
      <trkpt lon="35.01925642602146" lat="31.811981359496713">
        <ele>320.3999938964844</ele>
        <time>2014-07-12T03:18:34.000Z</time>
      </trkpt>
      <trkpt lon="35.019211918115616" lat="31.812006337568164">
        <ele>320.79998779296875</ele>
        <time>2014-07-12T03:18:37.000Z</time>
      </trkpt>
      <trkpt lon="35.019198255613446" lat="31.812012623995543">
        <ele>321.0</ele>
        <time>2014-07-12T03:18:38.000Z</time>
      </trkpt>
      <trkpt lon="35.019185515120625" lat="31.812012623995543">
        <ele>321.0</ele>
        <time>2014-07-12T03:18:39.000Z</time>
      </trkpt>
      <trkpt lon="35.01917218789458" lat="31.812007343396544">
        <ele>321.0</ele>
        <time>2014-07-12T03:18:40.000Z</time>
      </trkpt>
      <trkpt lon="35.019062887877226" lat="31.812019078060985">
        <ele>321.3999938964844</ele>
        <time>2014-07-12T03:18:47.000Z</time>
      </trkpt>
      <trkpt lon="35.01902592368424" lat="31.812039110809565">
        <ele>321.79998779296875</ele>
        <time>2014-07-12T03:18:50.000Z</time>
      </trkpt>
      <trkpt lon="35.019019385799766" lat="31.812052354216576">
        <ele>322.0</ele>
        <time>2014-07-12T03:18:51.000Z</time>
      </trkpt>
      <trkpt lon="35.01900748349726" lat="31.81206425651908">
        <ele>322.20001220703125</ele>
        <time>2014-07-12T03:18:52.000Z</time>
      </trkpt>
      <trkpt lon="35.01899122260511" lat="31.812072973698378">
        <ele>322.3999938964844</ele>
        <time>2014-07-12T03:18:53.000Z</time>
      </trkpt>
      <trkpt lon="35.01897529698908" lat="31.812083115801215">
        <ele>322.6000061035156</ele>
        <time>2014-07-12T03:18:54.000Z</time>
      </trkpt>
      <trkpt lon="35.01896062865853" lat="31.81209661066532">
        <ele>322.79998779296875</ele>
        <time>2014-07-12T03:18:55.000Z</time>
      </trkpt>
      <trkpt lon="35.01894671469927" lat="31.812112871557474">
        <ele>323.0</ele>
        <time>2014-07-12T03:18:56.000Z</time>
      </trkpt>
      <trkpt lon="35.018912767991424" lat="31.812136340886354">
        <ele>323.3999938964844</ele>
        <time>2014-07-12T03:18:58.000Z</time>
      </trkpt>
      <trkpt lon="35.01889365725219" lat="31.812136508524418">
        <ele>323.6000061035156</ele>
        <time>2014-07-12T03:18:59.000Z</time>
      </trkpt>
      <trkpt lon="35.018879659473896" lat="31.812127958983183">
        <ele>323.3999938964844</ele>
        <time>2014-07-12T03:19:00.000Z</time>
      </trkpt>
      <trkpt lon="35.01887295395136" lat="31.812114296481013">
        <ele>323.3999938964844</ele>
        <time>2014-07-12T03:19:01.000Z</time>
      </trkpt>
      <trkpt lon="35.018873708322644" lat="31.812097616493702">
        <ele>323.20001220703125</ele>
        <time>2014-07-12T03:19:02.000Z</time>
      </trkpt>
      <trkpt lon="35.018885023891926" lat="31.812081607058644">
        <ele>322.79998779296875</ele>
        <time>2014-07-12T03:19:03.000Z</time>
      </trkpt>
      <trkpt lon="35.01890438608825" lat="31.812075655907393">
        <ele>322.79998779296875</ele>
        <time>2014-07-12T03:19:04.000Z</time>
      </trkpt>
      <trkpt lon="35.01892332918942" lat="31.812082529067993">
        <ele>322.79998779296875</ele>
        <time>2014-07-12T03:19:05.000Z</time>
      </trkpt>
      <trkpt lon="35.018934812396765" lat="31.812094934284687">
        <ele>322.79998779296875</ele>
        <time>2014-07-12T03:19:06.000Z</time>
      </trkpt>
      <trkpt lon="35.018939170986414" lat="31.812110356986523">
        <ele>323.0</ele>
        <time>2014-07-12T03:19:07.000Z</time>
      </trkpt>
      <trkpt lon="35.01893741078675" lat="31.812127539888024">
        <ele>323.20001220703125</ele>
        <time>2014-07-12T03:19:08.000Z</time>
      </trkpt>
      <trkpt lon="35.01892768777907" lat="31.81214296258986">
        <ele>323.3999938964844</ele>
        <time>2014-07-12T03:19:09.000Z</time>
      </trkpt>
      <trkpt lon="35.01890765503049" lat="31.81215268559754">
        <ele>323.6000061035156</ele>
        <time>2014-07-12T03:19:10.000Z</time>
      </trkpt>
      <trkpt lon="35.018888963386416" lat="31.812151428312063">
        <ele>323.79998779296875</ele>
        <time>2014-07-12T03:19:11.000Z</time>
      </trkpt>
      <trkpt lon="35.01887395977974" lat="31.81214388459921">
        <ele>323.6000061035156</ele>
        <time>2014-07-12T03:19:12.000Z</time>
      </trkpt>
      <trkpt lon="35.018862057477236" lat="31.81213466450572">
        <ele>323.6000061035156</ele>
        <time>2014-07-12T03:19:13.000Z</time>
      </trkpt>
      <trkpt lon="35.0188484787941" lat="31.812125192955136">
        <ele>323.6000061035156</ele>
        <time>2014-07-12T03:19:14.000Z</time>
      </trkpt>
      <trkpt lon="35.01882819458842" lat="31.812118738889694">
        <ele>323.6000061035156</ele>
        <time>2014-07-12T03:19:15.000Z</time>
      </trkpt>
      <trkpt lon="35.018801372498274" lat="31.81212041527033">
        <ele>323.6000061035156</ele>
        <time>2014-07-12T03:19:16.000Z</time>
      </trkpt>
      <trkpt lon="35.0187723711133" lat="31.812130641192198">
        <ele>323.79998779296875</ele>
        <time>2014-07-12T03:19:17.000Z</time>
      </trkpt>
      <trkpt lon="35.01874613575637" lat="31.812146063894033">
        <ele>324.20001220703125</ele>
        <time>2014-07-12T03:19:18.000Z</time>
      </trkpt>
      <trkpt lon="35.018724678084254" lat="31.8121650069952">
        <ele>324.3999938964844</ele>
        <time>2014-07-12T03:19:19.000Z</time>
      </trkpt>
      <trkpt lon="35.01870875246823" lat="31.812183866277337">
        <ele>324.6000061035156</ele>
        <time>2014-07-12T03:19:20.000Z</time>
      </trkpt>
      <trkpt lon="35.018695928156376" lat="31.812202474102378">
        <ele>324.79998779296875</ele>
        <time>2014-07-12T03:19:21.000Z</time>
      </trkpt>
      <trkpt lon="35.01868494786322" lat="31.812221501022577">
        <ele>325.0</ele>
        <time>2014-07-12T03:19:22.000Z</time>
      </trkpt>
      <trkpt lon="35.01862560398877" lat="31.81236432865262">
        <ele>327.0</ele>
        <time>2014-07-12T03:19:30.000Z</time>
      </trkpt>
      <trkpt lon="35.01864639110863" lat="31.812452590093017">
        <ele>327.79998779296875</ele>
        <time>2014-07-12T03:19:36.000Z</time>
      </trkpt>
      <trkpt lon="35.01865720376372" lat="31.812464827671647">
        <ele>327.79998779296875</ele>
        <time>2014-07-12T03:19:37.000Z</time>
      </trkpt>
      <trkpt lon="35.01875627785921" lat="31.81261737830937">
        <ele>328.6000061035156</ele>
        <time>2014-07-12T03:19:48.000Z</time>
      </trkpt>
      <trkpt lon="35.01880229450762" lat="31.81272692978382">
        <ele>329.0</ele>
        <time>2014-07-12T03:19:56.000Z</time>
      </trkpt>
      <trkpt lon="35.0188447907567" lat="31.81275869719684">
        <ele>329.0</ele>
        <time>2014-07-12T03:19:59.000Z</time>
      </trkpt>
      <trkpt lon="35.01891545020044" lat="31.812943182885647">
        <ele>329.6000061035156</ele>
        <time>2014-07-12T03:20:10.000Z</time>
      </trkpt>
      <trkpt lon="35.018912348896265" lat="31.813074527308345">
        <ele>330.6000061035156</ele>
        <time>2014-07-12T03:20:18.000Z</time>
      </trkpt>
      <trkpt lon="35.018898602575064" lat="31.81324576959014">
        <ele>331.79998779296875</ele>
        <time>2014-07-12T03:20:28.000Z</time>
      </trkpt>
      <trkpt lon="35.01886767335236" lat="31.813362445682287">
        <ele>332.20001220703125</ele>
        <time>2014-07-12T03:20:36.000Z</time>
      </trkpt>
      <trkpt lon="35.018847892060876" lat="31.81353645399213">
        <ele>333.6000061035156</ele>
        <time>2014-07-12T03:20:45.000Z</time>
      </trkpt>
      <trkpt lon="35.01885015517473" lat="31.813703253865242">
        <ele>334.6000061035156</ele>
        <time>2014-07-12T03:20:53.000Z</time>
      </trkpt>
      <trkpt lon="35.01884705387056" lat="31.81384725496173">
        <ele>335.3999938964844</ele>
        <time>2014-07-12T03:21:02.000Z</time>
      </trkpt>
      <trkpt lon="35.01885107718408" lat="31.814038110896945">
        <ele>336.6000061035156</ele>
        <time>2014-07-12T03:21:12.000Z</time>
      </trkpt>
      <trkpt lon="35.018828362226486" lat="31.814286466687918">
        <ele>335.79998779296875</ele>
        <time>2014-07-12T03:21:23.000Z</time>
      </trkpt>
      <trkpt lon="35.01884747296572" lat="31.81443901732564">
        <ele>335.0</ele>
        <time>2014-07-12T03:21:31.000Z</time>
      </trkpt>
      <trkpt lon="35.018848814070225" lat="31.81458276696503">
        <ele>334.3999938964844</ele>
        <time>2014-07-12T03:21:39.000Z</time>
      </trkpt>
      <trkpt lon="35.018834229558706" lat="31.814590897411108">
        <ele>334.6000061035156</ele>
        <time>2014-07-12T03:21:47.000Z</time>
      </trkpt>
      <trkpt lon="35.01881972886622" lat="31.81454597041011">
        <ele>335.0</ele>
        <time>2014-07-12T03:22:04.000Z</time>
      </trkpt>
      <trkpt lon="35.01881101168692" lat="31.814535576850176">
        <ele>335.20001220703125</ele>
        <time>2014-07-12T03:22:25.000Z</time>
      </trkpt>
      <trkpt lon="35.0187792442739" lat="31.814511939883232">
        <ele>335.79998779296875</ele>
        <time>2014-07-12T03:22:47.000Z</time>
      </trkpt>
      <trkpt lon="35.01872895285487" lat="31.81454161182046">
        <ele>336.79998779296875</ele>
        <time>2014-07-12T03:22:58.000Z</time>
      </trkpt>
      <trkpt lon="35.018668016418815" lat="31.81462425738573">
        <ele>337.79998779296875</ele>
        <time>2014-07-12T03:23:03.000Z</time>
      </trkpt>
      <trkpt lon="35.01861948519945" lat="31.814828189089894">
        <ele>338.0</ele>
        <time>2014-07-12T03:23:11.000Z</time>
      </trkpt>
      <trkpt lon="35.01856651157141" lat="31.814971771091223">
        <ele>337.3999938964844</ele>
        <time>2014-07-12T03:23:18.000Z</time>
      </trkpt>
      <trkpt lon="35.01846710219979" lat="31.81522322818637">
        <ele>335.20001220703125</ele>
        <time>2014-07-12T03:23:26.000Z</time>
      </trkpt>
      <trkpt lon="35.01837406307459" lat="31.815425902605057">
        <ele>334.0</ele>
        <time>2014-07-12T03:23:32.000Z</time>
      </trkpt>
      <trkpt lon="35.018296614289284" lat="31.81555012241006">
        <ele>334.6000061035156</ele>
        <time>2014-07-12T03:23:37.000Z</time>
      </trkpt>
      <trkpt lon="35.01827331259847" lat="31.81555850431323">
        <ele>335.20001220703125</ele>
        <time>2014-07-12T03:23:38.000Z</time>
      </trkpt>
      <trkpt lon="35.01825084909797" lat="31.815561521798372">
        <ele>335.79998779296875</ele>
        <time>2014-07-12T03:23:39.000Z</time>
      </trkpt>
      <trkpt lon="35.01822394318879" lat="31.815556660294533">
        <ele>336.6000061035156</ele>
        <time>2014-07-12T03:23:40.000Z</time>
      </trkpt>
      <trkpt lon="35.018200725317" lat="31.815546937286854">
        <ele>337.3999938964844</ele>
        <time>2014-07-12T03:23:41.000Z</time>
      </trkpt>
      <trkpt lon="35.018179938197136" lat="31.815536292269826">
        <ele>338.0</ele>
        <time>2014-07-12T03:23:42.000Z</time>
      </trkpt>
      <trkpt lon="35.017973240464926" lat="31.815422298386693">
        <ele>345.0</ele>
        <time>2014-07-12T03:23:51.000Z</time>
      </trkpt>
      <trkpt lon="35.01779512502253" lat="31.815333031117916">
        <ele>348.79998779296875</ele>
        <time>2014-07-12T03:24:00.000Z</time>
      </trkpt>
      <trkpt lon="35.01756294630468" lat="31.81520914658904">
        <ele>352.6000061035156</ele>
        <time>2014-07-12T03:24:11.000Z</time>
      </trkpt>
      <trkpt lon="35.017380472272635" lat="31.815088614821434">
        <ele>355.79998779296875</ele>
        <time>2014-07-12T03:24:21.000Z</time>
      </trkpt>
      <trkpt lon="35.01721006818116" lat="31.81502105668187">
        <ele>358.20001220703125</ele>
        <time>2014-07-12T03:24:29.000Z</time>
      </trkpt>
      <trkpt lon="35.01691997051239" lat="31.81502491235733">
        <ele>359.20001220703125</ele>
        <time>2014-07-12T03:24:38.000Z</time>
      </trkpt>
      <trkpt lon="35.01664428971708" lat="31.815060283988714">
        <ele>359.79998779296875</ele>
        <time>2014-07-12T03:24:46.000Z</time>
      </trkpt>
      <trkpt lon="35.016372464597225" lat="31.81510210968554">
        <ele>359.3999938964844</ele>
        <time>2014-07-12T03:24:54.000Z</time>
      </trkpt>
      <trkpt lon="35.016144728288054" lat="31.815126417204738">
        <ele>358.6000061035156</ele>
        <time>2014-07-12T03:25:02.000Z</time>
      </trkpt>
      <trkpt lon="35.01577030867338" lat="31.815159860998392">
        <ele>358.6000061035156</ele>
        <time>2014-07-12T03:25:14.000Z</time>
      </trkpt>
      <trkpt lon="35.01553259789944" lat="31.81518802419305">
        <ele>357.3999938964844</ele>
        <time>2014-07-12T03:25:21.000Z</time>
      </trkpt>
      <trkpt lon="35.01519212499261" lat="31.815254660323262">
        <ele>354.6000061035156</ele>
        <time>2014-07-12T03:25:31.000Z</time>
      </trkpt>
      <trkpt lon="35.014942679554224" lat="31.81529363617301">
        <ele>353.20001220703125</ele>
        <time>2014-07-12T03:25:40.000Z</time>
      </trkpt>
      <trkpt lon="35.014707231894135" lat="31.815378796309233">
        <ele>353.79998779296875</ele>
        <time>2014-07-12T03:25:49.000Z</time>
      </trkpt>
      <trkpt lon="35.014412607997656" lat="31.815519612282515">
        <ele>351.20001220703125</ele>
        <time>2014-07-12T03:25:59.000Z</time>
      </trkpt>
      <trkpt lon="35.01418361440301" lat="31.815625810995698">
        <ele>352.3999938964844</ele>
        <time>2014-07-12T03:26:06.000Z</time>
      </trkpt>
      <trkpt lon="35.01392318867147" lat="31.815681215375662">
        <ele>354.6000061035156</ele>
        <time>2014-07-12T03:26:14.000Z</time>
      </trkpt>
      <trkpt lon="35.01368531025946" lat="31.815693536773324">
        <ele>356.20001220703125</ele>
        <time>2014-07-12T03:26:22.000Z</time>
      </trkpt>
      <trkpt lon="35.01349654980004" lat="31.815773164853454">
        <ele>355.79998779296875</ele>
        <time>2014-07-12T03:26:30.000Z</time>
      </trkpt>
      <trkpt lon="35.013237381353974" lat="31.815917836502194">
        <ele>353.79998779296875</ele>
        <time>2014-07-12T03:26:39.000Z</time>
      </trkpt>
      <trkpt lon="35.01299489289522" lat="31.81599629111588">
        <ele>355.0</ele>
        <time>2014-07-12T03:26:46.000Z</time>
      </trkpt>
      <trkpt lon="35.01265383325517" lat="31.8160661123693">
        <ele>355.6000061035156</ele>
        <time>2014-07-12T03:26:55.000Z</time>
      </trkpt>
      <trkpt lon="35.01236415468156" lat="31.816104417666793">
        <ele>356.0</ele>
        <time>2014-07-12T03:27:02.000Z</time>
      </trkpt>
      <trkpt lon="35.01202577725053" lat="31.816153870895505">
        <ele>357.20001220703125</ele>
        <time>2014-07-12T03:27:10.000Z</time>
      </trkpt>
      <trkpt lon="35.011735428124666" lat="31.81623576208949">
        <ele>355.3999938964844</ele>
        <time>2014-07-12T03:27:17.000Z</time>
      </trkpt>
      <trkpt lon="35.01149034127593" lat="31.816438771784306">
        <ele>356.20001220703125</ele>
        <time>2014-07-12T03:27:26.000Z</time>
      </trkpt>
      <trkpt lon="35.011299569159746" lat="31.816565757617354">
        <ele>356.79998779296875</ele>
        <time>2014-07-12T03:27:35.000Z</time>
      </trkpt>
      <trkpt lon="35.0110896024853" lat="31.81661395356059">
        <ele>356.3999938964844</ele>
        <time>2014-07-12T03:27:43.000Z</time>
      </trkpt>
      <trkpt lon="35.0107650551945" lat="31.816672375425696">
        <ele>355.0</ele>
        <time>2014-07-12T03:27:52.000Z</time>
      </trkpt>
      <trkpt lon="35.010506892576814" lat="31.816703975200653">
        <ele>354.79998779296875</ele>
        <time>2014-07-12T03:27:59.000Z</time>
      </trkpt>
      <trkpt lon="35.01022869721055" lat="31.81670389138162">
        <ele>354.20001220703125</ele>
        <time>2014-07-12T03:28:05.000Z</time>
      </trkpt>
      <trkpt lon="35.009880093857646" lat="31.816684110090137">
        <ele>351.79998779296875</ele>
        <time>2014-07-12T03:28:13.000Z</time>
      </trkpt>
      <trkpt lon="35.00954213552177" lat="31.816682936623693">
        <ele>351.0</ele>
        <time>2014-07-12T03:28:18.000Z</time>
      </trkpt>
      <trkpt lon="35.009183809161186" lat="31.816685032099485">
        <ele>348.0</ele>
        <time>2014-07-12T03:28:22.000Z</time>
      </trkpt>
      <trkpt lon="35.00908138230443" lat="31.81670137681067">
        <ele>347.6000061035156</ele>
        <time>2014-07-12T03:28:23.000Z</time>
      </trkpt>
      <trkpt lon="35.00898230820894" lat="31.816721074283123">
        <ele>347.20001220703125</ele>
        <time>2014-07-12T03:28:24.000Z</time>
      </trkpt>
      <trkpt lon="35.008887089788914" lat="31.816740101203322">
        <ele>347.0</ele>
        <time>2014-07-12T03:28:25.000Z</time>
      </trkpt>
      <trkpt lon="35.00879664905369" lat="31.81675954721868">
        <ele>347.0</ele>
        <time>2014-07-12T03:28:26.000Z</time>
      </trkpt>
      <trkpt lon="35.008716098964214" lat="31.816782765090466">
        <ele>347.0</ele>
        <time>2014-07-12T03:28:27.000Z</time>
      </trkpt>
      <trkpt lon="35.00864401459694" lat="31.81680648587644">
        <ele>347.0</ele>
        <time>2014-07-12T03:28:28.000Z</time>
      </trkpt>
      <trkpt lon="35.00823120586574" lat="31.816966999322176">
        <ele>348.20001220703125</ele>
        <time>2014-07-12T03:28:35.000Z</time>
      </trkpt>
      <trkpt lon="35.00798058696091" lat="31.817085770890117">
        <ele>349.79998779296875</ele>
        <time>2014-07-12T03:28:42.000Z</time>
      </trkpt>
      <trkpt lon="35.007685627788305" lat="31.817254330962896">
        <ele>352.3999938964844</ele>
        <time>2014-07-12T03:28:52.000Z</time>
      </trkpt>
      <trkpt lon="35.007425704970956" lat="31.817383412271738">
        <ele>352.0</ele>
        <time>2014-07-12T03:29:00.000Z</time>
      </trkpt>
      <trkpt lon="35.007195034995675" lat="31.817533615976572">
        <ele>351.6000061035156</ele>
        <time>2014-07-12T03:29:08.000Z</time>
      </trkpt>
      <trkpt lon="35.00696084462106" lat="31.817730087786913">
        <ele>353.3999938964844</ele>
        <time>2014-07-12T03:29:16.000Z</time>
      </trkpt>
      <trkpt lon="35.00671098008752" lat="31.817957405000925">
        <ele>354.79998779296875</ele>
        <time>2014-07-12T03:29:25.000Z</time>
      </trkpt>
      <trkpt lon="35.00650193542242" lat="31.818148847669363">
        <ele>355.79998779296875</ele>
        <time>2014-07-12T03:29:34.000Z</time>
      </trkpt>
      <trkpt lon="35.00628802925348" lat="31.818360909819603">
        <ele>354.6000061035156</ele>
        <time>2014-07-12T03:29:44.000Z</time>
      </trkpt>
      <trkpt lon="35.00612961128354" lat="31.818498205393553">
        <ele>352.3999938964844</ele>
        <time>2014-07-12T03:29:51.000Z</time>
      </trkpt>
      <trkpt lon="35.005989130586386" lat="31.818629885092378">
        <ele>350.20001220703125</ele>
        <time>2014-07-12T03:29:59.000Z</time>
      </trkpt>
      <trkpt lon="35.00593104399741" lat="31.8186701182276">
        <ele>349.3999938964844</ele>
        <time>2014-07-12T03:30:03.000Z</time>
      </trkpt>
      <trkpt lon="35.005901120603085" lat="31.818687552586198">
        <ele>348.79998779296875</ele>
        <time>2014-07-12T03:30:05.000Z</time>
      </trkpt>
      <trkpt lon="35.00577371567488" lat="31.818747483193874">
        <ele>348.20001220703125</ele>
        <time>2014-07-12T03:30:13.000Z</time>
      </trkpt>
      <trkpt lon="35.00575569458306" lat="31.818750584498048">
        <ele>348.0</ele>
        <time>2014-07-12T03:30:21.000Z</time>
      </trkpt>
      <trkpt lon="35.0057275313884" lat="31.818752344697714">
        <ele>347.79998779296875</ele>
        <time>2014-07-12T03:30:40.000Z</time>
      </trkpt>
      <trkpt lon="35.005655782297254" lat="31.818728120997548">
        <ele>346.79998779296875</ele>
        <time>2014-07-12T03:31:00.000Z</time>
      </trkpt>
      <trkpt lon="35.005626110360026" lat="31.81872284039855">
        <ele>346.3999938964844</ele>
        <time>2014-07-12T03:31:08.000Z</time>
      </trkpt>
      <trkpt lon="35.00543684698641" lat="31.818725522607565">
        <ele>344.6000061035156</ele>
        <time>2014-07-12T03:31:15.000Z</time>
      </trkpt>
      <trkpt lon="35.00539015978575" lat="31.81872292421758">
        <ele>344.0</ele>
        <time>2014-07-12T03:31:16.000Z</time>
      </trkpt>
      <trkpt lon="35.00528949312866" lat="31.818725103512406">
        <ele>342.6000061035156</ele>
        <time>2014-07-12T03:31:18.000Z</time>
      </trkpt>
      <trkpt lon="35.00523677095771" lat="31.818725438788533">
        <ele>341.79998779296875</ele>
        <time>2014-07-12T03:31:19.000Z</time>
      </trkpt>
      <trkpt lon="35.004793535918" lat="31.818761061877012">
        <ele>339.0</ele>
        <time>2014-07-12T03:31:26.000Z</time>
      </trkpt>
      <trkpt lon="35.00414469279349" lat="31.81884991005063">
        <ele>334.20001220703125</ele>
        <time>2014-07-12T03:31:33.000Z</time>
      </trkpt>
      <trkpt lon="35.00338587909937" lat="31.818964574486017">
        <ele>327.79998779296875</ele>
        <time>2014-07-12T03:31:40.000Z</time>
      </trkpt>
      <trkpt lon="35.00260703265667" lat="31.81908879429102">
        <ele>319.6000061035156</ele>
        <time>2014-07-12T03:31:47.000Z</time>
      </trkpt>
      <trkpt lon="35.00224091112614" lat="31.819144366309047">
        <ele>314.3999938964844</ele>
        <time>2014-07-12T03:31:51.000Z</time>
      </trkpt>
      <trkpt lon="35.00168351456523" lat="31.819171188399196">
        <ele>308.6000061035156</ele>
        <time>2014-07-12T03:31:58.000Z</time>
      </trkpt>
      <trkpt lon="35.00101329758763" lat="31.81922365911305">
        <ele>303.0</ele>
        <time>2014-07-12T03:32:05.000Z</time>
      </trkpt>
      <trkpt lon="35.00036487355828" lat="31.819261545315385">
        <ele>283.79998779296875</ele>
        <time>2014-07-12T03:32:13.000Z</time>
      </trkpt>
      <trkpt lon="35.000210059806705" lat="31.81924805045128">
        <ele>282.3999938964844</ele>
        <time>2014-07-12T03:32:15.000Z</time>
      </trkpt>
      <trkpt lon="34.99969524331391" lat="31.819115532562137">
        <ele>276.0</ele>
        <time>2014-07-12T03:32:22.000Z</time>
      </trkpt>
      <trkpt lon="34.99963036738336" lat="31.819113017991185">
        <ele>275.20001220703125</ele>
        <time>2014-07-12T03:32:23.000Z</time>
      </trkpt>
      <trkpt lon="34.999566497281194" lat="31.819119472056627">
        <ele>274.20001220703125</ele>
        <time>2014-07-12T03:32:24.000Z</time>
      </trkpt>
      <trkpt lon="34.999504974111915" lat="31.8191381637007">
        <ele>273.3999938964844</ele>
        <time>2014-07-12T03:32:25.000Z</time>
      </trkpt>
      <trkpt lon="34.999445378780365" lat="31.81916708126664">
        <ele>272.6000061035156</ele>
        <time>2014-07-12T03:32:26.000Z</time>
      </trkpt>
      <trkpt lon="34.999388214200735" lat="31.819209912791848">
        <ele>272.20001220703125</ele>
        <time>2014-07-12T03:32:27.000Z</time>
      </trkpt>
      <trkpt lon="34.99933264218271" lat="31.819251738488674">
        <ele>271.6000061035156</ele>
        <time>2014-07-12T03:32:28.000Z</time>
      </trkpt>
      <trkpt lon="34.999278327450156" lat="31.819293228909373">
        <ele>271.0</ele>
        <time>2014-07-12T03:32:29.000Z</time>
      </trkpt>
      <trkpt lon="34.99922661110759" lat="31.819338910281658">
        <ele>270.6000061035156</ele>
        <time>2014-07-12T03:32:30.000Z</time>
      </trkpt>
      <trkpt lon="34.9991759005934" lat="31.819383837282658">
        <ele>270.20001220703125</ele>
        <time>2014-07-12T03:32:31.000Z</time>
      </trkpt>
      <trkpt lon="34.99907556921244" lat="31.819457430392504">
        <ele>269.20001220703125</ele>
        <time>2014-07-12T03:32:33.000Z</time>
      </trkpt>
      <trkpt lon="34.99889988452196" lat="31.819545021280646">
        <ele>267.6000061035156</ele>
        <time>2014-07-12T03:32:38.000Z</time>
      </trkpt>
      <trkpt lon="34.998833583667874" lat="31.819589864462614">
        <ele>267.0</ele>
        <time>2014-07-12T03:32:44.000Z</time>
      </trkpt>
      <trkpt lon="34.99884204939008" lat="31.819590283557773">
        <ele>267.0</ele>
        <time>2014-07-12T03:32:56.000Z</time>
      </trkpt>
      <trkpt lon="34.99883685261011" lat="31.81958726607263">
        <ele>267.0</ele>
        <time>2014-07-12T03:33:12.000Z</time>
      </trkpt>
      <trkpt lon="34.998807683587074" lat="31.819618195295334">
        <ele>266.79998779296875</ele>
        <time>2014-07-12T03:33:30.000Z</time>
      </trkpt>
      <trkpt lon="34.99876007437706" lat="31.819644598290324">
        <ele>266.3999938964844</ele>
        <time>2014-07-12T03:33:49.000Z</time>
      </trkpt>
      <trkpt lon="34.99876049347222" lat="31.819685837253928">
        <ele>266.6000061035156</ele>
        <time>2014-07-12T03:34:11.000Z</time>
      </trkpt>
      <trkpt lon="34.998776502907276" lat="31.819689944386482">
        <ele>267.0</ele>
        <time>2014-07-12T03:34:29.000Z</time>
      </trkpt>
      <trkpt lon="34.9987702164799" lat="31.819685837253928">
        <ele>266.79998779296875</ele>
        <time>2014-07-12T03:34:35.000Z</time>
      </trkpt>
      <trkpt lon="34.99869511462748" lat="31.81976655498147">
        <ele>266.3999938964844</ele>
        <time>2014-07-12T03:34:40.000Z</time>
      </trkpt>
      <trkpt lon="34.998659659177065" lat="31.819824390113354">
        <ele>266.20001220703125</ele>
        <time>2014-07-12T03:34:42.000Z</time>
      </trkpt>
      <trkpt lon="34.998654294759035" lat="31.819862946867943">
        <ele>266.3999938964844</ele>
        <time>2014-07-12T03:34:43.000Z</time>
      </trkpt>
      <trkpt lon="34.99865739606321" lat="31.819902593269944">
        <ele>266.3999938964844</ele>
        <time>2014-07-12T03:34:44.000Z</time>
      </trkpt>
      <trkpt lon="34.99867013655603" lat="31.819941736757755">
        <ele>266.3999938964844</ele>
        <time>2014-07-12T03:34:45.000Z</time>
      </trkpt>
      <trkpt lon="34.99868790619075" lat="31.819976270198822">
        <ele>266.6000061035156</ele>
        <time>2014-07-12T03:34:46.000Z</time>
      </trkpt>
      <trkpt lon="34.99871020205319" lat="31.820005271583796">
        <ele>266.79998779296875</ele>
        <time>2014-07-12T03:34:47.000Z</time>
      </trkpt>
      <trkpt lon="34.99873233027756" lat="31.820033015683293">
        <ele>267.0</ele>
        <time>2014-07-12T03:34:48.000Z</time>
      </trkpt>
      <trkpt lon="34.99886862002313" lat="31.820197300985456">
        <ele>268.0</ele>
        <time>2014-07-12T03:34:55.000Z</time>
      </trkpt>
      <trkpt lon="34.99897817149758" lat="31.82029042392969">
        <ele>268.79998779296875</ele>
        <time>2014-07-12T03:35:01.000Z</time>
      </trkpt>
      <trkpt lon="34.999145893380046" lat="31.820400645956397">
        <ele>270.20001220703125</ele>
        <time>2014-07-12T03:35:11.000Z</time>
      </trkpt>
      <trkpt lon="34.99924471601844" lat="31.820446997880936">
        <ele>271.20001220703125</ele>
        <time>2014-07-12T03:35:17.000Z</time>
      </trkpt>
      <trkpt lon="34.99933708459139" lat="31.82057272642851">
        <ele>271.79998779296875</ele>
        <time>2014-07-12T03:35:26.000Z</time>
      </trkpt>
      <trkpt lon="34.99939173460007" lat="31.820720499381423">
        <ele>271.79998779296875</ele>
        <time>2014-07-12T03:35:32.000Z</time>
      </trkpt>
      <trkpt lon="34.999349070712924" lat="31.82084153406322">
        <ele>271.0</ele>
        <time>2014-07-12T03:35:41.000Z</time>
      </trkpt>
      <trkpt lon="34.99933968298137" lat="31.82086056098342">
        <ele>270.79998779296875</ele>
        <time>2014-07-12T03:35:49.000Z</time>
      </trkpt>
      <trkpt lon="34.99930481426418" lat="31.820917977020144">
        <ele>270.20001220703125</ele>
        <time>2014-07-12T03:36:00.000Z</time>
      </trkpt>
      <trkpt lon="34.99928587116301" lat="31.82095100171864">
        <ele>269.79998779296875</ele>
        <time>2014-07-12T03:36:01.000Z</time>
      </trkpt>
      <trkpt lon="34.999263659119606" lat="31.82099307887256">
        <ele>269.6000061035156</ele>
        <time>2014-07-12T03:36:02.000Z</time>
      </trkpt>
      <trkpt lon="34.99923591502011" lat="31.8210394307971">
        <ele>269.0</ele>
        <time>2014-07-12T03:36:03.000Z</time>
      </trkpt>
      <trkpt lon="34.99906048178673" lat="31.82132081128657">
        <ele>266.6000061035156</ele>
        <time>2014-07-12T03:36:09.000Z</time>
      </trkpt>
      <trkpt lon="34.998926036059856" lat="31.821511080488563">
        <ele>265.0</ele>
        <time>2014-07-12T03:36:15.000Z</time>
      </trkpt>
      <trkpt lon="34.99879226088524" lat="31.82170403189957">
        <ele>262.20001220703125</ele>
        <time>2014-07-12T03:36:20.000Z</time>
      </trkpt>
      <trkpt lon="34.99875613488257" lat="31.8217387329787">
        <ele>261.79998779296875</ele>
        <time>2014-07-12T03:36:21.000Z</time>
      </trkpt>
      <trkpt lon="34.99871749430895" lat="31.82177091948688">
        <ele>261.0</ele>
        <time>2014-07-12T03:36:22.000Z</time>
      </trkpt>
      <trkpt lon="34.998677680268884" lat="31.821800842881203">
        <ele>260.20001220703125</ele>
        <time>2014-07-12T03:36:23.000Z</time>
      </trkpt>
      <trkpt lon="34.99863786622882" lat="31.821826742962003">
        <ele>259.6000061035156</ele>
        <time>2014-07-12T03:36:24.000Z</time>
      </trkpt>
      <trkpt lon="34.99859721399844" lat="31.82184861972928">
        <ele>258.79998779296875</ele>
        <time>2014-07-12T03:36:25.000Z</time>
      </trkpt>
      <trkpt lon="34.998347433283925" lat="31.821975773200393">
        <ele>254.60000610351562</ele>
        <time>2014-07-12T03:36:30.000Z</time>
      </trkpt>
      <trkpt lon="34.9983003269881" lat="31.822004355490208">
        <ele>254.1999969482422</ele>
        <time>2014-07-12T03:36:31.000Z</time>
      </trkpt>
      <trkpt lon="34.998263362795115" lat="31.82203427888453">
        <ele>253.8000030517578</ele>
        <time>2014-07-12T03:36:32.000Z</time>
      </trkpt>
      <trkpt lon="34.998084576800466" lat="31.822207365185022">
        <ele>251.8000030517578</ele>
        <time>2014-07-12T03:36:38.000Z</time>
      </trkpt>
      <trkpt lon="34.99784502200782" lat="31.82242412120104">
        <ele>248.8000030517578</ele>
        <time>2014-07-12T03:36:45.000Z</time>
      </trkpt>
      <trkpt lon="34.99770211055875" lat="31.822536438703537">
        <ele>246.1999969482422</ele>
        <time>2014-07-12T03:36:51.000Z</time>
      </trkpt>
      <trkpt lon="34.99761946499348" lat="31.822629729285836">
        <ele>244.1999969482422</ele>
        <time>2014-07-12T03:36:56.000Z</time>
      </trkpt>
      <trkpt lon="34.99750169925392" lat="31.82282343506813">
        <ele>240.8000030517578</ele>
        <time>2014-07-12T03:37:03.000Z</time>
      </trkpt>
      <trkpt lon="34.99742617830634" lat="31.822960479184985">
        <ele>239.60000610351562</ele>
        <time>2014-07-12T03:37:09.000Z</time>
      </trkpt>
      <trkpt lon="34.99742710031569" lat="31.823121663182974">
        <ele>238.39999389648438</ele>
        <time>2014-07-12T03:37:16.000Z</time>
      </trkpt>
      <trkpt lon="34.99752181582153" lat="31.82325778529048">
        <ele>237.8000030517578</ele>
        <time>2014-07-12T03:37:23.000Z</time>
      </trkpt>
      <trkpt lon="34.99770755879581" lat="31.82332425378263">
        <ele>238.1999969482422</ele>
        <time>2014-07-12T03:37:33.000Z</time>
      </trkpt>
      <trkpt lon="34.99795189127326" lat="31.82344880886376">
        <ele>238.0</ele>
        <time>2014-07-12T03:37:40.000Z</time>
      </trkpt>
      <trkpt lon="34.998086001724005" lat="31.823540925979614">
        <ele>237.39999389648438</ele>
        <time>2014-07-12T03:37:43.000Z</time>
      </trkpt>
      <trkpt lon="34.99814048409462" lat="31.823565317317843">
        <ele>237.1999969482422</ele>
        <time>2014-07-12T03:37:44.000Z</time>
      </trkpt>
      <trkpt lon="34.99819907359779" lat="31.823585936799645">
        <ele>237.0</ele>
        <time>2014-07-12T03:37:45.000Z</time>
      </trkpt>
      <trkpt lon="34.99825933948159" lat="31.82360135950148">
        <ele>236.8000030517578</ele>
        <time>2014-07-12T03:37:46.000Z</time>
      </trkpt>
      <trkpt lon="34.99831885099411" lat="31.82360806502402">
        <ele>236.8000030517578</ele>
        <time>2014-07-12T03:37:47.000Z</time>
      </trkpt>
      <trkpt lon="34.99837341718376" lat="31.823602616786957">
        <ele>237.0</ele>
        <time>2014-07-12T03:37:48.000Z</time>
      </trkpt>
      <trkpt lon="34.99842161312699" lat="31.823582835495472">
        <ele>237.39999389648438</ele>
        <time>2014-07-12T03:37:49.000Z</time>
      </trkpt>
      <trkpt lon="34.99846360646188" lat="31.823562970384955">
        <ele>237.8000030517578</ele>
        <time>2014-07-12T03:37:50.000Z</time>
      </trkpt>
      <trkpt lon="34.998504258692265" lat="31.82354754768312">
        <ele>238.1999969482422</ele>
        <time>2014-07-12T03:37:51.000Z</time>
      </trkpt>
      <trkpt lon="34.998829727992415" lat="31.823501447215676">
        <ele>239.60000610351562</ele>
        <time>2014-07-12T03:37:59.000Z</time>
      </trkpt>
      <trkpt lon="34.999005077406764" lat="31.823581494390965">
        <ele>238.60000610351562</ele>
        <time>2014-07-12T03:38:04.000Z</time>
      </trkpt>
      <trkpt lon="34.999298360198736" lat="31.823881398886442">
        <ele>235.0</ele>
        <time>2014-07-12T03:38:14.000Z</time>
      </trkpt>
      <trkpt lon="34.999652076512575" lat="31.824077367782593">
        <ele>233.0</ele>
        <time>2014-07-12T03:38:22.000Z</time>
      </trkpt>
      <trkpt lon="35.00004661269486" lat="31.824234193190932">
        <ele>232.8000030517578</ele>
        <time>2014-07-12T03:38:30.000Z</time>
      </trkpt>
      <trkpt lon="35.00036864541471" lat="31.824339302256703">
        <ele>232.8000030517578</ele>
        <time>2014-07-12T03:38:38.000Z</time>
      </trkpt>
      <trkpt lon="35.00074340030551" lat="31.8244793638587">
        <ele>241.60000610351562</ele>
        <time>2014-07-12T03:38:47.000Z</time>
      </trkpt>
      <trkpt lon="35.00103257596493" lat="31.824624119326472">
        <ele>242.39999389648438</ele>
        <time>2014-07-12T03:38:55.000Z</time>
      </trkpt>
      <trkpt lon="35.0012655928731" lat="31.824730820953846">
        <ele>243.60000610351562</ele>
        <time>2014-07-12T03:39:03.000Z</time>
      </trkpt>
      <trkpt lon="35.001525934785604" lat="31.82482377626002">
        <ele>243.39999389648438</ele>
        <time>2014-07-12T03:39:12.000Z</time>
      </trkpt>
      <trkpt lon="35.00178812071681" lat="31.82491723448038">
        <ele>243.60000610351562</ele>
        <time>2014-07-12T03:39:21.000Z</time>
      </trkpt>
      <trkpt lon="35.001987190917134" lat="31.824987726286054">
        <ele>244.60000610351562</ele>
        <time>2014-07-12T03:39:29.000Z</time>
      </trkpt>
      <trkpt lon="35.002161115407944" lat="31.82505394332111">
        <ele>244.8000030517578</ele>
        <time>2014-07-12T03:39:37.000Z</time>
      </trkpt>
      <trkpt lon="35.00238021835685" lat="31.825108509510756">
        <ele>245.1999969482422</ele>
        <time>2014-07-12T03:39:46.000Z</time>
      </trkpt>
      <trkpt lon="35.00264533795416" lat="31.825171122327447">
        <ele>246.1999969482422</ele>
        <time>2014-07-12T03:39:57.000Z</time>
      </trkpt>
      <trkpt lon="35.002896124497056" lat="31.825147652998567">
        <ele>248.39999389648438</ele>
        <time>2014-07-12T03:40:07.000Z</time>
      </trkpt>
      <trkpt lon="35.00312612392008" lat="31.825114963576198">
        <ele>249.1999969482422</ele>
        <time>2014-07-12T03:40:16.000Z</time>
      </trkpt>
      <trkpt lon="35.003382274881005" lat="31.825068360194564">
        <ele>250.1999969482422</ele>
        <time>2014-07-12T03:40:26.000Z</time>
      </trkpt>
      <trkpt lon="35.003740852698684" lat="31.825023433193564">
        <ele>251.1999969482422</ele>
        <time>2014-07-12T03:40:38.000Z</time>
      </trkpt>
      <trkpt lon="35.00410906970501" lat="31.82497976347804">
        <ele>250.8000030517578</ele>
        <time>2014-07-12T03:40:49.000Z</time>
      </trkpt>
      <trkpt lon="35.00440704636276" lat="31.824977668002248">
        <ele>249.39999389648438</ele>
        <time>2014-07-12T03:40:59.000Z</time>
      </trkpt>
      <trkpt lon="35.00465640798211" lat="31.824953695759177">
        <ele>249.0</ele>
        <time>2014-07-12T03:41:09.000Z</time>
      </trkpt>
      <trkpt lon="35.00480627641082" lat="31.824902649968863">
        <ele>249.0</ele>
        <time>2014-07-12T03:41:16.000Z</time>
      </trkpt>
      <trkpt lon="35.00502278096974" lat="31.8248195014894">
        <ele>250.60000610351562</ele>
        <time>2014-07-12T03:41:26.000Z</time>
      </trkpt>
      <trkpt lon="35.005203913897276" lat="31.824709782376885">
        <ele>253.1999969482422</ele>
        <time>2014-07-12T03:41:35.000Z</time>
      </trkpt>
      <trkpt lon="35.00537959858775" lat="31.824588244780898">
        <ele>252.8000030517578</ele>
        <time>2014-07-12T03:41:44.000Z</time>
      </trkpt>
      <trkpt lon="35.00555478036404" lat="31.824457487091422">
        <ele>254.39999389648438</ele>
        <time>2014-07-12T03:41:54.000Z</time>
      </trkpt>
      <trkpt lon="35.005658296868205" lat="31.824368136003613">
        <ele>256.0</ele>
        <time>2014-07-12T03:42:01.000Z</time>
      </trkpt>
      <trkpt lon="35.00576307065785" lat="31.824297895655036">
        <ele>256.6000061035156</ele>
        <time>2014-07-12T03:42:09.000Z</time>
      </trkpt>
      <trkpt lon="35.00587857328355" lat="31.824184404686093">
        <ele>256.6000061035156</ele>
        <time>2014-07-12T03:42:17.000Z</time>
      </trkpt>
      <trkpt lon="35.006100526079535" lat="31.82404492981732">
        <ele>256.6000061035156</ele>
        <time>2014-07-12T03:42:27.000Z</time>
      </trkpt>
      <trkpt lon="35.00629096291959" lat="31.823903946205974">
        <ele>257.20001220703125</ele>
        <time>2014-07-12T03:42:36.000Z</time>
      </trkpt>
      <trkpt lon="35.00651023350656" lat="31.823777882382274">
        <ele>256.3999938964844</ele>
        <time>2014-07-12T03:42:45.000Z</time>
      </trkpt>
      <trkpt lon="35.00673386268318" lat="31.82364142499864">
        <ele>255.60000610351562</ele>
        <time>2014-07-12T03:42:54.000Z</time>
      </trkpt>
      <trkpt lon="35.00699244439602" lat="31.823489293456078">
        <ele>253.0</ele>
        <time>2014-07-12T03:43:02.000Z</time>
      </trkpt>
      <trkpt lon="35.00732026062906" lat="31.823286786675453">
        <ele>252.1999969482422</ele>
        <time>2014-07-12T03:43:12.000Z</time>
      </trkpt>
      <trkpt lon="35.00751195475459" lat="31.82316541671753">
        <ele>253.0</ele>
        <time>2014-07-12T03:43:19.000Z</time>
      </trkpt>
      <trkpt lon="35.007686549797654" lat="31.823058715090156">
        <ele>254.60000610351562</ele>
        <time>2014-07-12T03:43:26.000Z</time>
      </trkpt>
      <trkpt lon="35.007988046854734" lat="31.82290557771921">
        <ele>255.39999389648438</ele>
        <time>2014-07-12T03:43:36.000Z</time>
      </trkpt>
      <trkpt lon="35.00826138071716" lat="31.822795439511538">
        <ele>256.20001220703125</ele>
        <time>2014-07-12T03:43:44.000Z</time>
      </trkpt>
      <trkpt lon="35.00852591358125" lat="31.822679014876485">
        <ele>255.39999389648438</ele>
        <time>2014-07-12T03:43:53.000Z</time>
      </trkpt>
      <trkpt lon="35.00871098600328" lat="31.8226230237633">
        <ele>254.39999389648438</ele>
        <time>2014-07-12T03:44:00.000Z</time>
      </trkpt>
      <trkpt lon="35.008994629606605" lat="31.8224813695997">
        <ele>255.60000610351562</ele>
        <time>2014-07-12T03:44:10.000Z</time>
      </trkpt>
      <trkpt lon="35.00919571146369" lat="31.822333931922913">
        <ele>257.0</ele>
        <time>2014-07-12T03:44:19.000Z</time>
      </trkpt>
      <trkpt lon="35.00933728180826" lat="31.82217936962843">
        <ele>260.20001220703125</ele>
        <time>2014-07-12T03:44:28.000Z</time>
      </trkpt>
      <trkpt lon="35.00943090766668" lat="31.822038553655148">
        <ele>261.20001220703125</ele>
        <time>2014-07-12T03:44:37.000Z</time>
      </trkpt>
      <trkpt lon="35.00946653075516" lat="31.82197468355298">
        <ele>261.6000061035156</ele>
        <time>2014-07-12T03:44:41.000Z</time>
      </trkpt>
      <trkpt lon="35.00947901979089" lat="31.821957668289542">
        <ele>261.6000061035156</ele>
        <time>2014-07-12T03:44:42.000Z</time>
      </trkpt>
      <trkpt lon="35.00957457348704" lat="31.82180704548955">
        <ele>262.3999938964844</ele>
        <time>2014-07-12T03:44:50.000Z</time>
      </trkpt>
      <trkpt lon="35.009690746665" lat="31.821672851219773">
        <ele>263.6000061035156</ele>
        <time>2014-07-12T03:44:58.000Z</time>
      </trkpt>
      <trkpt lon="35.00970985740423" lat="31.82165902107954">
        <ele>263.79998779296875</ele>
        <time>2014-07-12T03:44:59.000Z</time>
      </trkpt>
      <trkpt lon="35.009730057790875" lat="31.821645023301244">
        <ele>264.0</ele>
        <time>2014-07-12T03:45:00.000Z</time>
      </trkpt>
      <trkpt lon="35.00974900089204" lat="31.82163261808455">
        <ele>264.20001220703125</ele>
        <time>2014-07-12T03:45:01.000Z</time>
      </trkpt>
      <trkpt lon="35.00976886600256" lat="31.82161895558238">
        <ele>264.3999938964844</ele>
        <time>2014-07-12T03:45:02.000Z</time>
      </trkpt>
      <trkpt lon="35.00978512689471" lat="31.82160629890859">
        <ele>264.6000061035156</ele>
        <time>2014-07-12T03:45:03.000Z</time>
      </trkpt>
      <trkpt lon="35.0098445545882" lat="31.821564557030797">
        <ele>265.20001220703125</ele>
        <time>2014-07-12T03:45:07.000Z</time>
      </trkpt>
      <trkpt lon="35.009862491860986" lat="31.821558689698577">
        <ele>265.20001220703125</ele>
        <time>2014-07-12T03:45:08.000Z</time>
      </trkpt>
      <trkpt lon="35.010018395259976" lat="31.821502279490232">
        <ele>267.0</ele>
        <time>2014-07-12T03:45:17.000Z</time>
      </trkpt>
      <trkpt lon="35.010246047750115" lat="31.821466321125627">
        <ele>268.3999938964844</ele>
        <time>2014-07-12T03:45:27.000Z</time>
      </trkpt>
      <trkpt lon="35.010483004152775" lat="31.821500519290566">
        <ele>267.6000061035156</ele>
        <time>2014-07-12T03:45:36.000Z</time>
      </trkpt>
      <trkpt lon="35.010675033554435" lat="31.821557013317943">
        <ele>266.79998779296875</ele>
        <time>2014-07-12T03:45:44.000Z</time>
      </trkpt>
      <trkpt lon="35.01090771518648" lat="31.82166346348822">
        <ele>266.0</ele>
        <time>2014-07-12T03:45:52.000Z</time>
      </trkpt>
      <trkpt lon="35.0112294126302" lat="31.821731440722942">
        <ele>266.20001220703125</ele>
        <time>2014-07-12T03:45:59.000Z</time>
      </trkpt>
      <trkpt lon="35.0113261397928" lat="31.8217577598989">
        <ele>266.0</ele>
        <time>2014-07-12T03:46:01.000Z</time>
      </trkpt>
      <trkpt lon="35.011430913582444" lat="31.821782402694225">
        <ele>265.79998779296875</ele>
        <time>2014-07-12T03:46:03.000Z</time>
      </trkpt>
      <trkpt lon="35.01154490746558" lat="31.82180168107152">
        <ele>266.0</ele>
        <time>2014-07-12T03:46:05.000Z</time>
      </trkpt>
      <trkpt lon="35.01159863546491" lat="31.821818528696895">
        <ele>266.0</ele>
        <time>2014-07-12T03:46:06.000Z</time>
      </trkpt>
      <trkpt lon="35.01188999041915" lat="31.821932438760996">
        <ele>265.79998779296875</ele>
        <time>2014-07-12T03:46:13.000Z</time>
      </trkpt>
      <trkpt lon="35.01213398762047" lat="31.821987507864833">
        <ele>266.20001220703125</ele>
        <time>2014-07-12T03:46:20.000Z</time>
      </trkpt>
      <trkpt lon="35.0123846065253" lat="31.821965044364333">
        <ele>267.3999938964844</ele>
        <time>2014-07-12T03:46:27.000Z</time>
      </trkpt>
      <trkpt lon="35.012609576806426" lat="31.821925649419427">
        <ele>268.0</ele>
        <time>2014-07-12T03:46:34.000Z</time>
      </trkpt>
      <trkpt lon="35.01291652210057" lat="31.821858007460833">
        <ele>268.20001220703125</ele>
        <time>2014-07-12T03:46:43.000Z</time>
      </trkpt>
      <trkpt lon="35.013257497921586" lat="31.821783240884542">
        <ele>269.3999938964844</ele>
        <time>2014-07-12T03:46:52.000Z</time>
      </trkpt>
      <trkpt lon="35.01354742795229" lat="31.82170495390892">
        <ele>269.6000061035156</ele>
        <time>2014-07-12T03:47:00.000Z</time>
      </trkpt>
      <trkpt lon="35.01388320699334" lat="31.82165801525116">
        <ele>269.79998779296875</ele>
        <time>2014-07-12T03:47:08.000Z</time>
      </trkpt>
      <trkpt lon="35.01417615450919" lat="31.821564473211765">
        <ele>269.3999938964844</ele>
        <time>2014-07-12T03:47:17.000Z</time>
      </trkpt>
      <trkpt lon="35.0143929105252" lat="31.821435391902924">
        <ele>270.79998779296875</ele>
        <time>2014-07-12T03:47:25.000Z</time>
      </trkpt>
      <trkpt lon="35.01460597850382" lat="31.821264568716288">
        <ele>270.79998779296875</ele>
        <time>2014-07-12T03:47:34.000Z</time>
      </trkpt>
      <trkpt lon="35.014791805297136" lat="31.82102618739009">
        <ele>273.0</ele>
        <time>2014-07-12T03:47:44.000Z</time>
      </trkpt>
      <trkpt lon="35.01489984802902" lat="31.820877492427826">
        <ele>274.3999938964844</ele>
        <time>2014-07-12T03:47:51.000Z</time>
      </trkpt>
      <trkpt lon="35.01499674282968" lat="31.82070767506957">
        <ele>275.6000061035156</ele>
        <time>2014-07-12T03:47:59.000Z</time>
      </trkpt>
      <trkpt lon="35.01510813832283" lat="31.82054439559579">
        <ele>277.0</ele>
        <time>2014-07-12T03:48:07.000Z</time>
      </trkpt>
      <trkpt lon="35.01532472670078" lat="31.820404585450888">
        <ele>278.6000061035156</ele>
        <time>2014-07-12T03:48:17.000Z</time>
      </trkpt>
      <trkpt lon="35.015520276501775" lat="31.820398634299636">
        <ele>279.0</ele>
        <time>2014-07-12T03:48:24.000Z</time>
      </trkpt>
      <trkpt lon="35.01574440859258" lat="31.820487147197127">
        <ele>278.6000061035156</ele>
        <time>2014-07-12T03:48:34.000Z</time>
      </trkpt>
      <trkpt lon="35.01575689762831" lat="31.82049653492868">
        <ele>278.3999938964844</ele>
        <time>2014-07-12T03:48:35.000Z</time>
      </trkpt>
      <trkpt lon="35.01576595008373" lat="31.820507934316993">
        <ele>278.3999938964844</ele>
        <time>2014-07-12T03:48:36.000Z</time>
      </trkpt>
      <trkpt lon="35.0158316642046" lat="31.82060206308961">
        <ele>277.3999938964844</ele>
        <time>2014-07-12T03:48:44.000Z</time>
      </trkpt>
      <trkpt lon="35.0158279761672" lat="31.820615641772747">
        <ele>277.20001220703125</ele>
        <time>2014-07-12T03:48:45.000Z</time>
      </trkpt>
      <trkpt lon="35.01581029035151" lat="31.820647409185767">
        <ele>276.79998779296875</ele>
        <time>2014-07-12T03:48:51.000Z</time>
      </trkpt>
      <trkpt lon="35.015814984217286" lat="31.82066408917308">
        <ele>276.6000061035156</ele>
        <time>2014-07-12T03:49:07.000Z</time>
      </trkpt>
      <trkpt lon="35.015815906226635" lat="31.82066115550697">
        <ele>276.6000061035156</ele>
        <time>2014-07-12T03:49:21.000Z</time>
      </trkpt>
      <trkpt lon="35.015819761902094" lat="31.820665011182427">
        <ele>276.6000061035156</ele>
        <time>2014-07-12T03:49:37.000Z</time>
      </trkpt>
      <trkpt lon="35.01582194119692" lat="31.820657216012478">
        <ele>276.79998779296875</ele>
        <time>2014-07-12T03:49:57.000Z</time>
      </trkpt>
      <trkpt lon="35.015806602314115" lat="31.820664508268237">
        <ele>276.6000061035156</ele>
        <time>2014-07-12T03:50:21.000Z</time>
      </trkpt>
      <trkpt lon="35.015814397484064" lat="31.82066274806857">
        <ele>276.6000061035156</ele>
        <time>2014-07-12T03:50:40.000Z</time>
      </trkpt>
      <trkpt lon="35.01581758260727" lat="31.820657970383763">
        <ele>276.79998779296875</ele>
        <time>2014-07-12T03:50:58.000Z</time>
      </trkpt>
      <trkpt lon="35.01581481657922" lat="31.820637183263898">
        <ele>277.0</ele>
        <time>2014-07-12T03:51:17.000Z</time>
      </trkpt>
      <trkpt lon="35.015827640891075" lat="31.820631148293614">
        <ele>277.0</ele>
        <time>2014-07-12T03:51:32.000Z</time>
      </trkpt>
      <trkpt lon="35.01585085876286" lat="31.820651097223163">
        <ele>276.79998779296875</ele>
        <time>2014-07-12T03:51:36.000Z</time>
      </trkpt>
      <trkpt lon="35.01600131392479" lat="31.820788644254208">
        <ele>275.79998779296875</ele>
        <time>2014-07-12T03:51:44.000Z</time>
      </trkpt>
      <trkpt lon="35.0162199139595" lat="31.820858884602785">
        <ele>275.79998779296875</ele>
        <time>2014-07-12T03:51:51.000Z</time>
      </trkpt>
      <trkpt lon="35.0164239294827" lat="31.820773975923657">
        <ele>276.0</ele>
        <time>2014-07-12T03:51:58.000Z</time>
      </trkpt>
      <trkpt lon="35.01655309461057" lat="31.820642044767737">
        <ele>276.79998779296875</ele>
        <time>2014-07-12T03:52:06.000Z</time>
      </trkpt>
      <trkpt lon="35.01668737269938" lat="31.82047708891332">
        <ele>278.0</ele>
        <time>2014-07-12T03:52:17.000Z</time>
      </trkpt>
      <trkpt lon="35.01677814871073" lat="31.820320934057236">
        <ele>279.3999938964844</ele>
        <time>2014-07-12T03:52:26.000Z</time>
      </trkpt>
      <trkpt lon="35.016865991055965" lat="31.8201916012913">
        <ele>280.20001220703125</ele>
        <time>2014-07-12T03:52:34.000Z</time>
      </trkpt>
      <trkpt lon="35.01697713509202" lat="31.82008372619748">
        <ele>280.6000061035156</ele>
        <time>2014-07-12T03:52:41.000Z</time>
      </trkpt>
      <trkpt lon="35.017084423452616" lat="31.819966547191143">
        <ele>281.20001220703125</ele>
        <time>2014-07-12T03:52:49.000Z</time>
      </trkpt>
      <trkpt lon="35.01721451058984" lat="31.81983000598848">
        <ele>282.20001220703125</ele>
        <time>2014-07-12T03:52:58.000Z</time>
      </trkpt>
      <trkpt lon="35.01739874482155" lat="31.81967661716044">
        <ele>283.6000061035156</ele>
        <time>2014-07-12T03:53:09.000Z</time>
      </trkpt>
      <trkpt lon="35.01756898127496" lat="31.8195837456733">
        <ele>284.0</ele>
        <time>2014-07-12T03:53:18.000Z</time>
      </trkpt>
      <trkpt lon="35.01760217361152" lat="31.819603107869625">
        <ele>283.6000061035156</ele>
        <time>2014-07-12T03:53:20.000Z</time>
      </trkpt>
      <trkpt lon="35.01761365681887" lat="31.819623056799173">
        <ele>283.20001220703125</ele>
        <time>2014-07-12T03:53:21.000Z</time>
      </trkpt>
      <trkpt lon="35.0176290795207" lat="31.819646442309022">
        <ele>282.79998779296875</ele>
        <time>2014-07-12T03:53:22.000Z</time>
      </trkpt>
      <trkpt lon="35.01764659769833" lat="31.819675778970122">
        <ele>282.3999938964844</ele>
        <time>2014-07-12T03:53:23.000Z</time>
      </trkpt>
      <trkpt lon="35.01766419969499" lat="31.81970930658281">
        <ele>281.79998779296875</ele>
        <time>2014-07-12T03:53:24.000Z</time>
      </trkpt>
      <trkpt lon="35.01768138259649" lat="31.81974308565259">
        <ele>281.20001220703125</ele>
        <time>2014-07-12T03:53:25.000Z</time>
      </trkpt>
      <trkpt lon="35.01784784719348" lat="31.820029160007834">
        <ele>277.3999938964844</ele>
        <time>2014-07-12T03:53:32.000Z</time>
      </trkpt>
      <trkpt lon="35.018005007877946" lat="31.820291094481945">
        <ele>275.0</ele>
        <time>2014-07-12T03:53:39.000Z</time>
      </trkpt>
      <trkpt lon="35.01811305060983" lat="31.82036368176341">
        <ele>274.6000061035156</ele>
        <time>2014-07-12T03:53:42.000Z</time>
      </trkpt>
      <trkpt lon="35.01816828735173" lat="31.820381870493293">
        <ele>274.3999938964844</ele>
        <time>2014-07-12T03:53:43.000Z</time>
      </trkpt>
      <trkpt lon="35.01823291182518" lat="31.820394694805145">
        <ele>274.3999938964844</ele>
        <time>2014-07-12T03:53:44.000Z</time>
      </trkpt>
      <trkpt lon="35.018301056697965" lat="31.820401651784778">
        <ele>274.20001220703125</ele>
        <time>2014-07-12T03:53:45.000Z</time>
      </trkpt>
      <trkpt lon="35.018365597352386" lat="31.820406513288617">
        <ele>274.20001220703125</ele>
        <time>2014-07-12T03:53:46.000Z</time>
      </trkpt>
      <trkpt lon="35.01843139529228" lat="31.820416739210486">
        <ele>274.20001220703125</ele>
        <time>2014-07-12T03:53:47.000Z</time>
      </trkpt>
      <trkpt lon="35.0185704510659" lat="31.82044087909162">
        <ele>273.6000061035156</ele>
        <time>2014-07-12T03:53:49.000Z</time>
      </trkpt>
      <trkpt lon="35.018632812425494" lat="31.820454373955727">
        <ele>273.3999938964844</ele>
        <time>2014-07-12T03:53:50.000Z</time>
      </trkpt>
      <trkpt lon="35.018786704167724" lat="31.820509862154722">
        <ele>272.79998779296875</ele>
        <time>2014-07-12T03:53:53.000Z</time>
      </trkpt>
      <trkpt lon="35.019134134054184" lat="31.82076090015471">
        <ele>271.79998779296875</ele>
        <time>2014-07-12T03:54:02.000Z</time>
      </trkpt>
      <trkpt lon="35.01917696557939" lat="31.82078923098743">
        <ele>271.79998779296875</ele>
        <time>2014-07-12T03:54:03.000Z</time>
      </trkpt>
      <trkpt lon="35.01936161890626" lat="31.820908254012465">
        <ele>271.3999938964844</ele>
        <time>2014-07-12T03:54:09.000Z</time>
      </trkpt>
      <trkpt lon="35.01939598470926" lat="31.821038173511624">
        <ele>270.79998779296875</ele>
        <time>2014-07-12T03:54:16.000Z</time>
      </trkpt>
      <trkpt lon="35.01939531415701" lat="31.821093494072556">
        <ele>270.6000061035156</ele>
        <time>2014-07-12T03:54:21.000Z</time>
      </trkpt>
      <trkpt lon="35.019389698281884" lat="31.821103719994426">
        <ele>270.6000061035156</ele>
        <time>2014-07-12T03:54:22.000Z</time>
      </trkpt>
      <trkpt lon="35.019371677190065" lat="31.821161471307278">
        <ele>270.3999938964844</ele>
        <time>2014-07-12T03:54:29.000Z</time>
      </trkpt>
      <trkpt lon="35.019336473196745" lat="31.82122215628624">
        <ele>270.20001220703125</ele>
        <time>2014-07-12T03:54:36.000Z</time>
      </trkpt>
      <trkpt lon="35.01932406798005" lat="31.821235483512282">
        <ele>270.20001220703125</ele>
        <time>2014-07-12T03:54:37.000Z</time>
      </trkpt>
      <trkpt lon="35.01931325532496" lat="31.82124906219542">
        <ele>270.0</ele>
        <time>2014-07-12T03:54:38.000Z</time>
      </trkpt>
      <trkpt lon="35.019303783774376" lat="31.82126121595502">
        <ele>270.0</ele>
        <time>2014-07-12T03:54:39.000Z</time>
      </trkpt>
      <trkpt lon="35.019291546195745" lat="31.821276722475886">
        <ele>270.0</ele>
        <time>2014-07-12T03:54:40.000Z</time>
      </trkpt>
      <trkpt lon="35.01911720260978" lat="31.82138392701745">
        <ele>269.6000061035156</ele>
        <time>2014-07-12T03:54:47.000Z</time>
      </trkpt>
      <trkpt lon="35.01881796866655" lat="31.82149046100676">
        <ele>269.20001220703125</ele>
        <time>2014-07-12T03:54:55.000Z</time>
      </trkpt>
      <trkpt lon="35.0186756439507" lat="31.821525916457176">
        <ele>269.0</ele>
        <time>2014-07-12T03:54:58.000Z</time>
      </trkpt>
      <trkpt lon="35.018259482458234" lat="31.821614261716604">
        <ele>267.79998779296875</ele>
        <time>2014-07-12T03:55:06.000Z</time>
      </trkpt>
      <trkpt lon="35.01793191768229" lat="31.821711072698236">
        <ele>266.79998779296875</ele>
        <time>2014-07-12T03:55:13.000Z</time>
      </trkpt>
      <trkpt lon="35.01788740977645" lat="31.82173077017069">
        <ele>266.79998779296875</ele>
        <time>2014-07-12T03:55:14.000Z</time>
      </trkpt>
      <trkpt lon="35.01763813197613" lat="31.821818947792053">
        <ele>267.0</ele>
        <time>2014-07-12T03:55:20.000Z</time>
      </trkpt>
      <trkpt lon="35.017514331266284" lat="31.821946185082197">
        <ele>267.0</ele>
        <time>2014-07-12T03:55:26.000Z</time>
      </trkpt>
      <trkpt lon="35.01752195879817" lat="31.821966469287872">
        <ele>267.0</ele>
        <time>2014-07-12T03:55:27.000Z</time>
      </trkpt>
      <trkpt lon="35.01752975396812" lat="31.821981137618423">
        <ele>267.0</ele>
        <time>2014-07-12T03:55:28.000Z</time>
      </trkpt>
      <trkpt lon="35.01755221746862" lat="31.822007540613413">
        <ele>266.79998779296875</ele>
        <time>2014-07-12T03:55:34.000Z</time>
      </trkpt>
      <trkpt lon="35.0175616890192" lat="31.822069818153977">
        <ele>266.6000061035156</ele>
        <time>2014-07-12T03:55:45.000Z</time>
      </trkpt>
      <trkpt lon="35.0176206137985" lat="31.82220770046115">
        <ele>266.20001220703125</ele>
        <time>2014-07-12T03:55:50.000Z</time>
      </trkpt>
      <trkpt lon="35.01777207478881" lat="31.822204599156976">
        <ele>266.3999938964844</ele>
        <time>2014-07-12T03:55:55.000Z</time>
      </trkpt>
      <trkpt lon="35.018071476370096" lat="31.82214131578803">
        <ele>266.79998779296875</ele>
        <time>2014-07-12T03:56:02.000Z</time>
      </trkpt>
      <trkpt lon="35.01837029121816" lat="31.822072165086865">
        <ele>268.0</ele>
        <time>2014-07-12T03:56:11.000Z</time>
      </trkpt>
      <trkpt lon="35.01863222569227" lat="31.822006283327937">
        <ele>268.79998779296875</ele>
        <time>2014-07-12T03:56:19.000Z</time>
      </trkpt>
      <trkpt lon="35.018928525969386" lat="31.821895139291883">
        <ele>269.6000061035156</ele>
        <time>2014-07-12T03:56:30.000Z</time>
      </trkpt>
      <trkpt lon="35.01917093060911" lat="31.82180369272828">
        <ele>270.0</ele>
        <time>2014-07-12T03:56:39.000Z</time>
      </trkpt>
      <trkpt lon="35.019358014687896" lat="31.8217630404979">
        <ele>269.79998779296875</ele>
        <time>2014-07-12T03:56:47.000Z</time>
      </trkpt>
      <trkpt lon="35.01937134191394" lat="31.82175725698471">
        <ele>269.79998779296875</ele>
        <time>2014-07-12T03:56:52.000Z</time>
      </trkpt>
      <trkpt lon="35.01941970549524" lat="31.82173378765583">
        <ele>269.6000061035156</ele>
        <time>2014-07-12T03:56:59.000Z</time>
      </trkpt>
      <trkpt lon="35.01944803632796" lat="31.821719873696566">
        <ele>269.6000061035156</ele>
        <time>2014-07-12T03:57:05.000Z</time>
      </trkpt>
      <trkpt lon="35.01947368495166" lat="31.82170302607119">
        <ele>269.6000061035156</ele>
        <time>2014-07-12T03:57:11.000Z</time>
      </trkpt>
      <trkpt lon="35.01948097720742" lat="31.821701852604747">
        <ele>269.6000061035156</ele>
        <time>2014-07-12T03:57:16.000Z</time>
      </trkpt>
      <trkpt lon="35.019491873681545" lat="31.82171174325049">
        <ele>269.6000061035156</ele>
        <time>2014-07-12T03:57:34.000Z</time>
      </trkpt>
      <trkpt lon="35.01949539408088" lat="31.82169414125383">
        <ele>269.6000061035156</ele>
        <time>2014-07-12T03:57:45.000Z</time>
      </trkpt>
      <trkpt lon="35.01952975988388" lat="31.821683663874865">
        <ele>269.3999938964844</ele>
        <time>2014-07-12T03:57:50.000Z</time>
      </trkpt>
      <trkpt lon="35.0197377987206" lat="31.821625577285886">
        <ele>270.0</ele>
        <time>2014-07-12T03:57:57.000Z</time>
      </trkpt>
      <trkpt lon="35.0201003998518" lat="31.82146556675434">
        <ele>271.79998779296875</ele>
        <time>2014-07-12T03:58:05.000Z</time>
      </trkpt>
      <trkpt lon="35.020332243293524" lat="31.821300191804767">
        <ele>273.0</ele>
        <time>2014-07-12T03:58:12.000Z</time>
      </trkpt>
      <trkpt lon="35.02049175091088" lat="31.8211308773607">
        <ele>273.79998779296875</ele>
        <time>2014-07-12T03:58:20.000Z</time>
      </trkpt>
      <trkpt lon="35.0207566190511" lat="31.82081814855337">
        <ele>276.6000061035156</ele>
        <time>2014-07-12T03:58:33.000Z</time>
      </trkpt>
      <trkpt lon="35.021036909893155" lat="31.820525284856558">
        <ele>280.0</ele>
        <time>2014-07-12T03:58:45.000Z</time>
      </trkpt>
      <trkpt lon="35.021228017285466" lat="31.820313138887286">
        <ele>280.0</ele>
        <time>2014-07-12T03:58:54.000Z</time>
      </trkpt>
      <trkpt lon="35.02144997008145" lat="31.820022454485297">
        <ele>280.79998779296875</ele>
        <time>2014-07-12T03:59:06.000Z</time>
      </trkpt>
      <trkpt lon="35.021652560681105" lat="31.819694386795163">
        <ele>282.6000061035156</ele>
        <time>2014-07-12T03:59:18.000Z</time>
      </trkpt>
      <trkpt lon="35.02178826369345" lat="31.819565054029226">
        <ele>283.79998779296875</ele>
        <time>2014-07-12T03:59:25.000Z</time>
      </trkpt>
      <trkpt lon="35.02194852568209" lat="31.8195369746536">
        <ele>284.20001220703125</ele>
        <time>2014-07-12T03:59:33.000Z</time>
      </trkpt>
      <trkpt lon="35.02215606160462" lat="31.81956958025694">
        <ele>285.20001220703125</ele>
        <time>2014-07-12T03:59:42.000Z</time>
      </trkpt>
      <trkpt lon="35.022290255874395" lat="31.81956614367664">
        <ele>285.79998779296875</ele>
        <time>2014-07-12T03:59:50.000Z</time>
      </trkpt>
      <trkpt lon="35.02238983288407" lat="31.819495568051934">
        <ele>285.6000061035156</ele>
        <time>2014-07-12T03:59:57.000Z</time>
      </trkpt>
      <trkpt lon="35.02250743098557" lat="31.819358775392175">
        <ele>285.0</ele>
        <time>2014-07-12T04:00:05.000Z</time>
      </trkpt>
      <trkpt lon="35.02271521836519" lat="31.819250732660294">
        <ele>285.3999938964844</ele>
        <time>2014-07-12T04:00:12.000Z</time>
      </trkpt>
      <trkpt lon="35.023003639653325" lat="31.819121316075325">
        <ele>286.20001220703125</ele>
        <time>2014-07-12T04:00:22.000Z</time>
      </trkpt>
      <trkpt lon="35.023234728723764" lat="31.81903992779553">
        <ele>286.79998779296875</ele>
        <time>2014-07-12T04:00:31.000Z</time>
      </trkpt>
      <trkpt lon="35.023457603529096" lat="31.81897547096014">
        <ele>288.0</ele>
        <time>2014-07-12T04:00:40.000Z</time>
      </trkpt>
      <trkpt lon="35.02367150969803" lat="31.81894663721323">
        <ele>289.20001220703125</ele>
        <time>2014-07-12T04:00:48.000Z</time>
      </trkpt>
      <trkpt lon="35.02395682968199" lat="31.818963149562478">
        <ele>291.20001220703125</ele>
        <time>2014-07-12T04:00:58.000Z</time>
      </trkpt>
      <trkpt lon="35.02418397925794" lat="31.818993827328086">
        <ele>292.79998779296875</ele>
        <time>2014-07-12T04:01:07.000Z</time>
      </trkpt>
      <trkpt lon="35.024313647300005" lat="31.81900824420154">
        <ele>293.79998779296875</ele>
        <time>2014-07-12T04:01:14.000Z</time>
      </trkpt>
      <trkpt lon="35.02439101226628" lat="31.818977314978838">
        <ele>294.3999938964844</ele>
        <time>2014-07-12T04:01:19.000Z</time>
      </trkpt>
      <trkpt lon="35.02440467476845" lat="31.818965496495366">
        <ele>294.3999938964844</ele>
        <time>2014-07-12T04:01:20.000Z</time>
      </trkpt>
      <trkpt lon="35.02445505000651" lat="31.81884261779487">
        <ele>294.0</ele>
        <time>2014-07-12T04:01:27.000Z</time>
      </trkpt>
      <trkpt lon="35.0245800241828" lat="31.818651175126433">
        <ele>293.0</ele>
        <time>2014-07-12T04:01:34.000Z</time>
      </trkpt>
      <trkpt lon="35.02481044270098" lat="31.818482279777527">
        <ele>293.79998779296875</ele>
        <time>2014-07-12T04:01:42.000Z</time>
      </trkpt>
      <trkpt lon="35.02500683069229" lat="31.81833006441593">
        <ele>293.20001220703125</ele>
        <time>2014-07-12T04:01:50.000Z</time>
      </trkpt>
      <trkpt lon="35.02515200525522" lat="31.81824792176485">
        <ele>293.0</ele>
        <time>2014-07-12T04:01:56.000Z</time>
      </trkpt>
      <trkpt lon="35.02538602799177" lat="31.818163013085723">
        <ele>294.0</ele>
        <time>2014-07-12T04:02:05.000Z</time>
      </trkpt>
      <trkpt lon="35.02567000687122" lat="31.818099645897746">
        <ele>295.6000061035156</ele>
        <time>2014-07-12T04:02:16.000Z</time>
      </trkpt>
      <trkpt lon="35.02592775039375" lat="31.818054718896747">
        <ele>297.0</ele>
        <time>2014-07-12T04:02:27.000Z</time>
      </trkpt>
      <trkpt lon="35.02611299045384" lat="31.818033512681723">
        <ele>298.0</ele>
        <time>2014-07-12T04:02:36.000Z</time>
      </trkpt>
      <trkpt lon="35.02613604068756" lat="31.818006858229637">
        <ele>298.20001220703125</ele>
        <time>2014-07-12T04:02:39.000Z</time>
      </trkpt>
      <trkpt lon="35.026143081486225" lat="31.81798850186169">
        <ele>298.20001220703125</ele>
        <time>2014-07-12T04:02:40.000Z</time>
      </trkpt>
      <trkpt lon="35.026152888312936" lat="31.817856822162867">
        <ele>298.79998779296875</ele>
        <time>2014-07-12T04:02:45.000Z</time>
      </trkpt>
      <trkpt lon="35.026202676817775" lat="31.817679964005947">
        <ele>299.6000061035156</ele>
        <time>2014-07-12T04:02:54.000Z</time>
      </trkpt>
      <trkpt lon="35.02638221718371" lat="31.817612405866385">
        <ele>301.6000061035156</ele>
        <time>2014-07-12T04:03:01.000Z</time>
      </trkpt>
      <trkpt lon="35.02663887105882" lat="31.81757510639727">
        <ele>303.20001220703125</ele>
        <time>2014-07-12T04:03:11.000Z</time>
      </trkpt>
      <trkpt lon="35.02693106420338" lat="31.817549038678408">
        <ele>304.6000061035156</ele>
        <time>2014-07-12T04:03:22.000Z</time>
      </trkpt>
      <trkpt lon="35.02712703309953" lat="31.817532191053033">
        <ele>306.0</ele>
        <time>2014-07-12T04:03:30.000Z</time>
      </trkpt>
      <trkpt lon="35.02730363979936" lat="31.817512409761548">
        <ele>307.3999938964844</ele>
        <time>2014-07-12T04:03:38.000Z</time>
      </trkpt>
      <trkpt lon="35.02753347158432" lat="31.817513750866055">
        <ele>308.0</ele>
        <time>2014-07-12T04:03:47.000Z</time>
      </trkpt>
      <trkpt lon="35.02779741771519" lat="31.817522048950195">
        <ele>308.6000061035156</ele>
        <time>2014-07-12T04:03:57.000Z</time>
      </trkpt>
      <trkpt lon="35.02808131277561" lat="31.81752087548375">
        <ele>311.20001220703125</ele>
        <time>2014-07-12T04:04:05.000Z</time>
      </trkpt>
      <trkpt lon="35.028320448473096" lat="31.817513247951865">
        <ele>311.79998779296875</ele>
        <time>2014-07-12T04:04:12.000Z</time>
      </trkpt>
      <trkpt lon="35.028553968295455" lat="31.817478965967894">
        <ele>311.79998779296875</ele>
        <time>2014-07-12T04:04:21.000Z</time>
      </trkpt>
      <trkpt lon="35.02881908789277" lat="31.817445186898112">
        <ele>312.20001220703125</ele>
        <time>2014-07-12T04:04:30.000Z</time>
      </trkpt>
      <trkpt lon="35.02907305955887" lat="31.817378718405962">
        <ele>311.6000061035156</ele>
        <time>2014-07-12T04:04:36.000Z</time>
      </trkpt>
      <trkpt lon="35.029470110312104" lat="31.81727645918727">
        <ele>314.79998779296875</ele>
        <time>2014-07-12T04:04:46.000Z</time>
      </trkpt>
      <trkpt lon="35.029692901298404" lat="31.817247541621327">
        <ele>314.3999938964844</ele>
        <time>2014-07-12T04:04:54.000Z</time>
      </trkpt>
      <trkpt lon="35.02988752909005" lat="31.817263551056385">
        <ele>314.20001220703125</ele>
        <time>2014-07-12T04:05:02.000Z</time>
      </trkpt>
      <trkpt lon="35.03013144247234" lat="31.817317865788937">
        <ele>314.20001220703125</ele>
        <time>2014-07-12T04:05:12.000Z</time>
      </trkpt>
      <trkpt lon="35.030373176559806" lat="31.817376371473074">
        <ele>314.0</ele>
        <time>2014-07-12T04:05:21.000Z</time>
      </trkpt>
      <trkpt lon="35.03057115711272" lat="31.81743185967207">
        <ele>316.20001220703125</ele>
        <time>2014-07-12T04:05:30.000Z</time>
      </trkpt>
      <trkpt lon="35.03060401417315" lat="31.81744904257357">
        <ele>316.6000061035156</ele>
        <time>2014-07-12T04:05:32.000Z</time>
      </trkpt>
      <trkpt lon="35.03078380599618" lat="31.817513750866055">
        <ele>319.20001220703125</ele>
        <time>2014-07-12T04:05:42.000Z</time>
      </trkpt>
      <trkpt lon="35.03087508492172" lat="31.817565048113465">
        <ele>320.79998779296875</ele>
        <time>2014-07-12T04:05:50.000Z</time>
      </trkpt>
      <trkpt lon="35.03104850649834" lat="31.81768398731947">
        <ele>323.6000061035156</ele>
        <time>2014-07-12T04:06:02.000Z</time>
      </trkpt>
      <trkpt lon="35.03129778429866" lat="31.817829245701432">
        <ele>327.20001220703125</ele>
        <time>2014-07-12T04:06:14.000Z</time>
      </trkpt>
      <trkpt lon="35.0315130315721" lat="31.817890349775553">
        <ele>327.3999938964844</ele>
        <time>2014-07-12T04:06:23.000Z</time>
      </trkpt>
      <trkpt lon="35.0317307934165" lat="31.817946173250675">
        <ele>327.3999938964844</ele>
        <time>2014-07-12T04:06:32.000Z</time>
      </trkpt>
      <trkpt lon="35.03193547949195" lat="31.8180397991091">
        <ele>328.3999938964844</ele>
        <time>2014-07-12T04:06:40.000Z</time>
      </trkpt>
      <trkpt lon="35.0321573484689" lat="31.81811205111444">
        <ele>330.3999938964844</ele>
        <time>2014-07-12T04:06:50.000Z</time>
      </trkpt>
      <trkpt lon="35.03217939287424" lat="31.818115822970867">
        <ele>330.3999938964844</ele>
        <time>2014-07-12T04:06:51.000Z</time>
      </trkpt>
      <trkpt lon="35.03220420330763" lat="31.818117666989565">
        <ele>330.6000061035156</ele>
        <time>2014-07-12T04:06:52.000Z</time>
      </trkpt>
      <trkpt lon="35.03252087160945" lat="31.818136777728796">
        <ele>331.3999938964844</ele>
        <time>2014-07-12T04:07:02.000Z</time>
      </trkpt>
      <trkpt lon="35.03279730677605" lat="31.81820877827704">
        <ele>331.6000061035156</ele>
        <time>2014-07-12T04:07:12.000Z</time>
      </trkpt>
      <trkpt lon="35.03304130397737" lat="31.81832025758922">
        <ele>333.3999938964844</ele>
        <time>2014-07-12T04:07:21.000Z</time>
      </trkpt>
      <trkpt lon="35.03322486765683" lat="31.818450093269348">
        <ele>335.3999938964844</ele>
        <time>2014-07-12T04:07:30.000Z</time>
      </trkpt>
      <trkpt lon="35.03343558870256" lat="31.818578001111746">
        <ele>337.6000061035156</ele>
        <time>2014-07-12T04:07:40.000Z</time>
      </trkpt>
      <trkpt lon="35.033697271719575" lat="31.818648828193545">
        <ele>340.0</ele>
        <time>2014-07-12T04:07:51.000Z</time>
      </trkpt>
      <trkpt lon="35.033883014693856" lat="31.818658467382193">
        <ele>340.79998779296875</ele>
        <time>2014-07-12T04:07:59.000Z</time>
      </trkpt>
      <trkpt lon="35.03407370299101" lat="31.818675734102726">
        <ele>341.0</ele>
        <time>2014-07-12T04:08:08.000Z</time>
      </trkpt>
      <trkpt lon="35.034244526177645" lat="31.818719571456313">
        <ele>341.3999938964844</ele>
        <time>2014-07-12T04:08:16.000Z</time>
      </trkpt>
      <trkpt lon="35.0344159360975" lat="31.818765504285693">
        <ele>341.79998779296875</ele>
        <time>2014-07-12T04:08:24.000Z</time>
      </trkpt>
      <trkpt lon="35.03457988612354" lat="31.818796852603555">
        <ele>342.3999938964844</ele>
        <time>2014-07-12T04:08:31.000Z</time>
      </trkpt>
      <trkpt lon="35.03475984558463" lat="31.81880246847868">
        <ele>343.79998779296875</ele>
        <time>2014-07-12T04:08:39.000Z</time>
      </trkpt>
      <trkpt lon="35.03489236347377" lat="31.818755278363824">
        <ele>344.79998779296875</ele>
        <time>2014-07-12T04:08:45.000Z</time>
      </trkpt>
      <trkpt lon="35.03498640842736" lat="31.81870523840189">
        <ele>345.6000061035156</ele>
        <time>2014-07-12T04:08:51.000Z</time>
      </trkpt>
      <trkpt lon="35.035116244107485" lat="31.8186201620847">
        <ele>345.0</ele>
        <time>2014-07-12T04:08:59.000Z</time>
      </trkpt>
      <trkpt lon="35.035298047587276" lat="31.818554867058992">
        <ele>343.79998779296875</ele>
        <time>2014-07-12T04:09:08.000Z</time>
      </trkpt>
      <trkpt lon="35.035477336496115" lat="31.81849703192711">
        <ele>343.0</ele>
        <time>2014-07-12T04:09:17.000Z</time>
      </trkpt>
      <trkpt lon="35.03566525876522" lat="31.818452440202236">
        <ele>343.3999938964844</ele>
        <time>2014-07-12T04:09:25.000Z</time>
      </trkpt>
      <trkpt lon="35.035900538787246" lat="31.818448500707746">
        <ele>344.0</ele>
        <time>2014-07-12T04:09:35.000Z</time>
      </trkpt>
      <trkpt lon="35.036078905686736" lat="31.818455457687378">
        <ele>344.6000061035156</ele>
        <time>2014-07-12T04:09:42.000Z</time>
      </trkpt>
      <trkpt lon="35.03626640886068" lat="31.818434167653322">
        <ele>344.79998779296875</ele>
        <time>2014-07-12T04:09:50.000Z</time>
      </trkpt>
      <trkpt lon="35.03648752346635" lat="31.818381110206246">
        <ele>346.79998779296875</ele>
        <time>2014-07-12T04:10:00.000Z</time>
      </trkpt>
      <trkpt lon="35.03669279627502" lat="31.818312294781208">
        <ele>347.20001220703125</ele>
        <time>2014-07-12T04:10:09.000Z</time>
      </trkpt>
      <trkpt lon="35.03690737299621" lat="31.818249262869358">
        <ele>347.79998779296875</ele>
        <time>2014-07-12T04:10:19.000Z</time>
      </trkpt>
      <trkpt lon="35.03713812679052" lat="31.81818723678589">
        <ele>350.3999938964844</ele>
        <time>2014-07-12T04:10:29.000Z</time>
      </trkpt>
      <trkpt lon="35.03739754669368" lat="31.818101992830634">
        <ele>357.20001220703125</ele>
        <time>2014-07-12T04:10:40.000Z</time>
      </trkpt>
      <trkpt lon="35.03756451420486" lat="31.81801037862897">
        <ele>362.0</ele>
        <time>2014-07-12T04:10:48.000Z</time>
      </trkpt>
      <trkpt lon="35.03777230158448" lat="31.81785112246871">
        <ele>362.0</ele>
        <time>2014-07-12T04:10:59.000Z</time>
      </trkpt>
      <trkpt lon="35.037899035960436" lat="31.81769371032715">
        <ele>358.0</ele>
        <time>2014-07-12T04:11:09.000Z</time>
      </trkpt>
      <trkpt lon="35.03800104372203" lat="31.817559264600277">
        <ele>358.0</ele>
        <time>2014-07-12T04:11:18.000Z</time>
      </trkpt>
      <trkpt lon="35.03815962933004" lat="31.81740067899227">
        <ele>357.79998779296875</ele>
        <time>2014-07-12T04:11:29.000Z</time>
      </trkpt>
      <trkpt lon="35.0382927339524" lat="31.817306969314814">
        <ele>362.0</ele>
        <time>2014-07-12T04:11:37.000Z</time>
      </trkpt>
      <trkpt lon="35.038432125002146" lat="31.81722038425505">
        <ele>367.0</ele>
        <time>2014-07-12T04:11:45.000Z</time>
      </trkpt>
      <trkpt lon="35.03855508752167" lat="31.81715969927609">
        <ele>370.20001220703125</ele>
        <time>2014-07-12T04:11:52.000Z</time>
      </trkpt>
      <trkpt lon="35.038690622895956" lat="31.817073030397296">
        <ele>367.20001220703125</ele>
        <time>2014-07-12T04:11:59.000Z</time>
      </trkpt>
      <trkpt lon="35.038843089714646" lat="31.81699801236391">
        <ele>367.6000061035156</ele>
        <time>2014-07-12T04:12:08.000Z</time>
      </trkpt>
      <trkpt lon="35.03901299089193" lat="31.81692366488278">
        <ele>370.79998779296875</ele>
        <time>2014-07-12T04:12:17.000Z</time>
      </trkpt>
      <trkpt lon="35.03923326730728" lat="31.816848730668426">
        <ele>371.20001220703125</ele>
        <time>2014-07-12T04:12:27.000Z</time>
      </trkpt>
      <trkpt lon="35.03940802998841" lat="31.81679525412619">
        <ele>369.6000061035156</ele>
        <time>2014-07-12T04:12:36.000Z</time>
      </trkpt>
      <trkpt lon="35.039600897580385" lat="31.81673356331885">
        <ele>368.0</ele>
        <time>2014-07-12T04:12:45.000Z</time>
      </trkpt>
      <trkpt lon="35.039776330813766" lat="31.816676566377282">
        <ele>368.79998779296875</ele>
        <time>2014-07-12T04:12:55.000Z</time>
      </trkpt>
      <trkpt lon="35.03992552869022" lat="31.81664320640266">
        <ele>368.6000061035156</ele>
        <time>2014-07-12T04:13:02.000Z</time>
      </trkpt>
      <trkpt lon="35.04011848010123" lat="31.816605739295483">
        <ele>368.6000061035156</ele>
        <time>2014-07-12T04:13:11.000Z</time>
      </trkpt>
      <trkpt lon="35.040348060429096" lat="31.816525692120194">
        <ele>369.0</ele>
        <time>2014-07-12T04:13:18.000Z</time>
      </trkpt>
      <trkpt lon="35.04056976176798" lat="31.816453859210014">
        <ele>372.79998779296875</ele>
        <time>2014-07-12T04:13:26.000Z</time>
      </trkpt>
      <trkpt lon="35.04077629186213" lat="31.81641597300768">
        <ele>376.79998779296875</ele>
        <time>2014-07-12T04:13:34.000Z</time>
      </trkpt>
      <trkpt lon="35.04096547141671" lat="31.816368363797665">
        <ele>380.6000061035156</ele>
        <time>2014-07-12T04:13:43.000Z</time>
      </trkpt>
      <trkpt lon="35.0411543995142" lat="31.816311115399003">
        <ele>382.0</ele>
        <time>2014-07-12T04:13:52.000Z</time>
      </trkpt>
      <trkpt lon="35.04129429347813" lat="31.816263925284147">
        <ele>382.3999938964844</ele>
        <time>2014-07-12T04:14:00.000Z</time>
      </trkpt>
      <trkpt lon="35.04142086021602" lat="31.816223273053765">
        <ele>385.20001220703125</ele>
        <time>2014-07-12T04:14:09.000Z</time>
      </trkpt>
      <trkpt lon="35.04154390655458" lat="31.816192930564284">
        <ele>387.79998779296875</ele>
        <time>2014-07-12T04:14:18.000Z</time>
      </trkpt>
      <trkpt lon="35.041708862408996" lat="31.816172059625387">
        <ele>391.3999938964844</ele>
        <time>2014-07-12T04:14:30.000Z</time>
      </trkpt>
      <trkpt lon="35.04181313328445" lat="31.816171053797007">
        <ele>391.79998779296875</ele>
        <time>2014-07-12T04:14:38.000Z</time>
      </trkpt>
      <trkpt lon="35.04197389818728" lat="31.816124031320214">
        <ele>391.0</ele>
        <time>2014-07-12T04:14:50.000Z</time>
      </trkpt>
      <trkpt lon="35.04209945909679" lat="31.816086983308196">
        <ele>390.3999938964844</ele>
        <time>2014-07-12T04:15:00.000Z</time>
      </trkpt>
      <trkpt lon="35.042209681123495" lat="31.816042894497514">
        <ele>391.20001220703125</ele>
        <time>2014-07-12T04:15:08.000Z</time>
      </trkpt>
      <trkpt lon="35.04236415959895" lat="31.81598992086947">
        <ele>392.3999938964844</ele>
        <time>2014-07-12T04:15:21.000Z</time>
      </trkpt>
      <trkpt lon="35.04246172495186" lat="31.815960919484496">
        <ele>392.0</ele>
        <time>2014-07-12T04:15:29.000Z</time>
      </trkpt>
      <trkpt lon="35.042623076587915" lat="31.81588782928884">
        <ele>390.20001220703125</ele>
        <time>2014-07-12T04:15:40.000Z</time>
      </trkpt>
      <trkpt lon="35.04277914762497" lat="31.815793281421065">
        <ele>387.79998779296875</ele>
        <time>2014-07-12T04:15:52.000Z</time>
      </trkpt>
      <trkpt lon="35.042810747399926" lat="31.815781630575657">
        <ele>387.6000061035156</ele>
        <time>2014-07-12T04:16:00.000Z</time>
      </trkpt>
      <trkpt lon="35.04282466135919" lat="31.815800573676825">
        <ele>388.3999938964844</ele>
        <time>2014-07-12T04:16:20.000Z</time>
      </trkpt>
      <trkpt lon="35.04282625392079" lat="31.815842567011714">
        <ele>389.79998779296875</ele>
        <time>2014-07-12T04:16:41.000Z</time>
      </trkpt>
      <trkpt lon="35.042819548398256" lat="31.8158605042845">
        <ele>390.3999938964844</ele>
        <time>2014-07-12T04:17:00.000Z</time>
      </trkpt>
      <trkpt lon="35.04289557226002" lat="31.8157172575593">
        <ele>385.79998779296875</ele>
        <time>2014-07-12T04:17:10.000Z</time>
      </trkpt>
      <trkpt lon="35.042952904477715" lat="31.81566797196865">
        <ele>386.79998779296875</ele>
        <time>2014-07-12T04:17:18.000Z</time>
      </trkpt>
      <trkpt lon="35.04295986145735" lat="31.815654896199703">
        <ele>387.0</ele>
        <time>2014-07-12T04:17:30.000Z</time>
      </trkpt>
      <trkpt lon="35.042949886992574" lat="31.81564928032458">
        <ele>387.20001220703125</ele>
        <time>2014-07-12T04:17:44.000Z</time>
      </trkpt>
      <trkpt lon="35.042948964983225" lat="31.815657326951623">
        <ele>387.0</ele>
        <time>2014-07-12T04:17:58.000Z</time>
      </trkpt>
      <trkpt lon="35.04298190586269" lat="31.815645173192024">
        <ele>387.20001220703125</ele>
        <time>2014-07-12T04:18:16.000Z</time>
      </trkpt>
      <trkpt lon="35.04301895387471" lat="31.815632097423077">
        <ele>387.3999938964844</ele>
        <time>2014-07-12T04:18:35.000Z</time>
      </trkpt>
      <trkpt lon="35.043011493980885" lat="31.81564064696431">
        <ele>387.3999938964844</ele>
        <time>2014-07-12T04:18:58.000Z</time>
      </trkpt>
      <trkpt lon="35.04308114759624" lat="31.815625810995698">
        <ele>387.6000061035156</ele>
        <time>2014-07-12T04:19:07.000Z</time>
      </trkpt>
      <trkpt lon="35.0430902838707" lat="31.815609550103545">
        <ele>387.79998779296875</ele>
        <time>2014-07-12T04:19:15.000Z</time>
      </trkpt>
      <trkpt lon="35.0431452691555" lat="31.81556621566415">
        <ele>388.6000061035156</ele>
        <time>2014-07-12T04:19:24.000Z</time>
      </trkpt>
      <trkpt lon="35.043276362121105" lat="31.815517181530595">
        <ele>389.3999938964844</ele>
        <time>2014-07-12T04:19:30.000Z</time>
      </trkpt>
      <trkpt lon="35.043458584696054" lat="31.81550569832325">
        <ele>389.6000061035156</ele>
        <time>2014-07-12T04:19:35.000Z</time>
      </trkpt>
      <trkpt lon="35.0436563976109" lat="31.815533693879843">
        <ele>389.6000061035156</ele>
        <time>2014-07-12T04:19:44.000Z</time>
      </trkpt>
      <trkpt lon="35.04385270178318" lat="31.815582225099206">
        <ele>390.0</ele>
        <time>2014-07-12T04:19:53.000Z</time>
      </trkpt>
      <trkpt lon="35.044066943228245" lat="31.815636372193694">
        <ele>390.3999938964844</ele>
        <time>2014-07-12T04:20:03.000Z</time>
      </trkpt>
      <trkpt lon="35.04430431872606" lat="31.81566554121673">
        <ele>391.79998779296875</ele>
        <time>2014-07-12T04:20:14.000Z</time>
      </trkpt>
      <trkpt lon="35.04454328678548" lat="31.815664870664477">
        <ele>393.79998779296875</ele>
        <time>2014-07-12T04:20:23.000Z</time>
      </trkpt>
      <trkpt lon="35.04474897868931" lat="31.815665876492858">
        <ele>394.20001220703125</ele>
        <time>2014-07-12T04:20:33.000Z</time>
      </trkpt>
      <trkpt lon="35.044941091910005" lat="31.81567132472992">
        <ele>394.3999938964844</ele>
        <time>2014-07-12T04:20:41.000Z</time>
      </trkpt>
      <trkpt lon="35.045163379982114" lat="31.8157362844795">
        <ele>394.20001220703125</ele>
        <time>2014-07-12T04:20:51.000Z</time>
      </trkpt>
      <trkpt lon="35.04536555148661" lat="31.81578028947115">
        <ele>396.20001220703125</ele>
        <time>2014-07-12T04:21:00.000Z</time>
      </trkpt>
      <trkpt lon="35.045477114617825" lat="31.815793281421065">
        <ele>396.20001220703125</ele>
        <time>2014-07-12T04:21:06.000Z</time>
      </trkpt>
      <trkpt lon="35.04565129056573" lat="31.815736200660467">
        <ele>394.20001220703125</ele>
        <time>2014-07-12T04:21:14.000Z</time>
      </trkpt>
      <trkpt lon="35.045882211998105" lat="31.815667552873492">
        <ele>394.3999938964844</ele>
        <time>2014-07-12T04:21:25.000Z</time>
      </trkpt>
      <trkpt lon="35.04612394608557" lat="31.815593959763646">
        <ele>395.20001220703125</ele>
        <time>2014-07-12T04:21:37.000Z</time>
      </trkpt>
      <trkpt lon="35.04631287418306" lat="31.815541656687856">
        <ele>394.20001220703125</ele>
        <time>2014-07-12T04:21:47.000Z</time>
      </trkpt>
      <trkpt lon="35.04655821248889" lat="31.8154685664922">
        <ele>398.0</ele>
        <time>2014-07-12T04:21:59.000Z</time>
      </trkpt>
      <trkpt lon="35.046764658764005" lat="31.815382232889533">
        <ele>401.0</ele>
        <time>2014-07-12T04:22:09.000Z</time>
      </trkpt>
      <trkpt lon="35.046934727579355" lat="31.815275698900223">
        <ele>401.3999938964844</ele>
        <time>2014-07-12T04:22:19.000Z</time>
      </trkpt>
      <trkpt lon="35.04707923159003" lat="31.81510789319873">
        <ele>401.20001220703125</ele>
        <time>2014-07-12T04:22:30.000Z</time>
      </trkpt>
      <trkpt lon="35.04718333482742" lat="31.814997335895896">
        <ele>403.3999938964844</ele>
        <time>2014-07-12T04:22:39.000Z</time>
      </trkpt>
      <trkpt lon="35.047251898795366" lat="31.814864818006754">
        <ele>404.6000061035156</ele>
        <time>2014-07-12T04:22:46.000Z</time>
      </trkpt>
      <trkpt lon="35.04739757627249" lat="31.814670357853174">
        <ele>409.3999938964844</ele>
        <time>2014-07-12T04:22:57.000Z</time>
      </trkpt>
      <trkpt lon="35.047528920695186" lat="31.81453532539308">
        <ele>413.79998779296875</ele>
        <time>2014-07-12T04:23:06.000Z</time>
      </trkpt>
      <trkpt lon="35.04765129648149" lat="31.814420744776726">
        <ele>414.20001220703125</ele>
        <time>2014-07-12T04:23:14.000Z</time>
      </trkpt>
      <trkpt lon="35.04777040332556" lat="31.8143392726779">
        <ele>414.3999938964844</ele>
        <time>2014-07-12T04:23:22.000Z</time>
      </trkpt>
      <trkpt lon="35.047903675585985" lat="31.814207173883915">
        <ele>413.79998779296875</ele>
        <time>2014-07-12T04:23:32.000Z</time>
      </trkpt>
      <trkpt lon="35.04801549017429" lat="31.814097873866558">
        <ele>415.3999938964844</ele>
        <time>2014-07-12T04:23:40.000Z</time>
      </trkpt>
      <trkpt lon="35.048150438815355" lat="31.813978515565395">
        <ele>418.6000061035156</ele>
        <time>2014-07-12T04:23:49.000Z</time>
      </trkpt>
      <trkpt lon="35.04832956008613" lat="31.813840046525">
        <ele>424.20001220703125</ele>
        <time>2014-07-12T04:24:00.000Z</time>
      </trkpt>
      <trkpt lon="35.04844028502703" lat="31.813741391524673">
        <ele>427.6000061035156</ele>
        <time>2014-07-12T04:24:08.000Z</time>
      </trkpt>
      <trkpt lon="35.04849602468312" lat="31.81368607096374">
        <ele>426.3999938964844</ele>
        <time>2014-07-12T04:24:13.000Z</time>
      </trkpt>
      <trkpt lon="35.04850633442402" lat="31.813673498108983">
        <ele>426.0</ele>
        <time>2014-07-12T04:24:14.000Z</time>
      </trkpt>
      <trkpt lon="35.0485176499933" lat="31.8136605899781">
        <ele>425.6000061035156</ele>
        <time>2014-07-12T04:24:15.000Z</time>
      </trkpt>
      <trkpt lon="35.048529552295804" lat="31.813649777323008">
        <ele>425.3999938964844</ele>
        <time>2014-07-12T04:24:16.000Z</time>
      </trkpt>
      <trkpt lon="35.04854070022702" lat="31.813637875020504">
        <ele>425.0</ele>
        <time>2014-07-12T04:24:17.000Z</time>
      </trkpt>
      <trkpt lon="35.04855377599597" lat="31.813624631613493">
        <ele>424.79998779296875</ele>
        <time>2014-07-12T04:24:18.000Z</time>
      </trkpt>
      <trkpt lon="35.04856609739363" lat="31.813613064587116">
        <ele>424.3999938964844</ele>
        <time>2014-07-12T04:24:19.000Z</time>
      </trkpt>
      <trkpt lon="35.04857674241066" lat="31.81360057555139">
        <ele>424.0</ele>
        <time>2014-07-12T04:24:20.000Z</time>
      </trkpt>
      <trkpt lon="35.04858856089413" lat="31.813586996868253">
        <ele>423.79998779296875</ele>
        <time>2014-07-12T04:24:21.000Z</time>
      </trkpt>
      <trkpt lon="35.048673218116164" lat="31.81347593665123">
        <ele>420.79998779296875</ele>
        <time>2014-07-12T04:24:29.000Z</time>
      </trkpt>
      <trkpt lon="35.04879240877926" lat="31.813368564471602">
        <ele>419.0</ele>
        <time>2014-07-12T04:24:38.000Z</time>
      </trkpt>
      <trkpt lon="35.04891151562333" lat="31.81327217258513">
        <ele>419.3999938964844</ele>
        <time>2014-07-12T04:24:48.000Z</time>
      </trkpt>
      <trkpt lon="35.049013858661056" lat="31.81318718008697">
        <ele>420.79998779296875</ele>
        <time>2014-07-12T04:24:57.000Z</time>
      </trkpt>
      <trkpt lon="35.04912978038192" lat="31.813114592805505">
        <ele>424.79998779296875</ele>
        <time>2014-07-12T04:25:05.000Z</time>
      </trkpt>
      <trkpt lon="35.04925634711981" lat="31.813042759895325">
        <ele>428.79998779296875</ele>
        <time>2014-07-12T04:25:13.000Z</time>
      </trkpt>
      <trkpt lon="35.04943094216287" lat="31.812984505668283">
        <ele>431.79998779296875</ele>
        <time>2014-07-12T04:25:23.000Z</time>
      </trkpt>
      <trkpt lon="35.04959304817021" lat="31.812916276976466">
        <ele>429.6000061035156</ele>
        <time>2014-07-12T04:25:33.000Z</time>
      </trkpt>
      <trkpt lon="35.049776025116444" lat="31.812829608097672">
        <ele>431.6000061035156</ele>
        <time>2014-07-12T04:25:43.000Z</time>
      </trkpt>
      <trkpt lon="35.04989789798856" lat="31.812751153483987">
        <ele>432.3999938964844</ele>
        <time>2014-07-12T04:25:51.000Z</time>
      </trkpt>
      <trkpt lon="35.05002748221159" lat="31.81267848238349">
        <ele>431.6000061035156</ele>
        <time>2014-07-12T04:25:59.000Z</time>
      </trkpt>
      <trkpt lon="35.050225127488375" lat="31.812620060518384">
        <ele>430.6000061035156</ele>
        <time>2014-07-12T04:26:09.000Z</time>
      </trkpt>
      <trkpt lon="35.050398549064994" lat="31.812572786584496">
        <ele>430.0</ele>
        <time>2014-07-12T04:26:18.000Z</time>
      </trkpt>
      <trkpt lon="35.05059099756181" lat="31.81256901472807">
        <ele>431.3999938964844</ele>
        <time>2014-07-12T04:26:27.000Z</time>
      </trkpt>
      <trkpt lon="35.05081211216748" lat="31.812554765492678">
        <ele>432.0</ele>
        <time>2014-07-12T04:26:37.000Z</time>
      </trkpt>
      <trkpt lon="35.051015792414546" lat="31.812566500157118">
        <ele>433.3999938964844</ele>
        <time>2014-07-12T04:26:46.000Z</time>
      </trkpt>
      <trkpt lon="35.05121964029968" lat="31.81253775022924">
        <ele>433.20001220703125</ele>
        <time>2014-07-12T04:26:55.000Z</time>
      </trkpt>
      <trkpt lon="35.05138786509633" lat="31.812483351677656">
        <ele>432.0</ele>
        <time>2014-07-12T04:27:03.000Z</time>
      </trkpt>
      <trkpt lon="35.051402198150754" lat="31.812479328364134">
        <ele>432.0</ele>
        <time>2014-07-12T04:27:04.000Z</time>
      </trkpt>
      <trkpt lon="35.0514187105" lat="31.812475975602865">
        <ele>431.79998779296875</ele>
        <time>2014-07-12T04:27:05.000Z</time>
      </trkpt>
      <trkpt lon="35.05143673159182" lat="31.812475891783834">
        <ele>432.0</ele>
        <time>2014-07-12T04:27:06.000Z</time>
      </trkpt>
      <trkpt lon="35.05145483650267" lat="31.812473544850945">
        <ele>431.79998779296875</ele>
        <time>2014-07-12T04:27:07.000Z</time>
      </trkpt>
      <trkpt lon="35.05147034302354" lat="31.81246935389936">
        <ele>431.79998779296875</ele>
        <time>2014-07-12T04:27:08.000Z</time>
      </trkpt>
      <trkpt lon="35.05148836411536" lat="31.812465246766806">
        <ele>431.6000061035156</ele>
        <time>2014-07-12T04:27:09.000Z</time>
      </trkpt>
      <trkpt lon="35.05166346207261" lat="31.812449656426907">
        <ele>431.3999938964844</ele>
        <time>2014-07-12T04:27:17.000Z</time>
      </trkpt>
      <trkpt lon="35.051822969689965" lat="31.81246306747198">
        <ele>432.3999938964844</ele>
        <time>2014-07-12T04:27:24.000Z</time>
      </trkpt>
      <trkpt lon="35.05201533436775" lat="31.81246449239552">
        <ele>432.79998779296875</ele>
        <time>2014-07-12T04:27:33.000Z</time>
      </trkpt>
      <trkpt lon="35.05215237848461" lat="31.812453093007207">
        <ele>432.6000061035156</ele>
        <time>2014-07-12T04:27:41.000Z</time>
      </trkpt>
      <trkpt lon="35.05219160579145" lat="31.812468515709043">
        <ele>433.20001220703125</ele>
        <time>2014-07-12T04:27:44.000Z</time>
      </trkpt>
      <trkpt lon="35.05220384337008" lat="31.812475891783834">
        <ele>433.3999938964844</ele>
        <time>2014-07-12T04:27:45.000Z</time>
      </trkpt>
      <trkpt lon="35.05221893079579" lat="31.812479412183166">
        <ele>433.6000061035156</ele>
        <time>2014-07-12T04:27:46.000Z</time>
      </trkpt>
      <trkpt lon="35.05223644897342" lat="31.81247815489769">
        <ele>433.79998779296875</ele>
        <time>2014-07-12T04:27:47.000Z</time>
      </trkpt>
      <trkpt lon="35.05225220695138" lat="31.812475975602865">
        <ele>433.79998779296875</ele>
        <time>2014-07-12T04:27:48.000Z</time>
      </trkpt>
      <trkpt lon="35.0522683840245" lat="31.812473125755787">
        <ele>433.79998779296875</ele>
        <time>2014-07-12T04:27:49.000Z</time>
      </trkpt>
      <trkpt lon="35.0524444039911" lat="31.812490476295352">
        <ele>435.3999938964844</ele>
        <time>2014-07-12T04:27:58.000Z</time>
      </trkpt>
      <trkpt lon="35.05265085026622" lat="31.812519896775484">
        <ele>437.6000061035156</ele>
        <time>2014-07-12T04:28:06.000Z</time>
      </trkpt>
      <trkpt lon="35.0527364294976" lat="31.81253330782056">
        <ele>438.3999938964844</ele>
        <time>2014-07-12T04:28:13.000Z</time>
      </trkpt>
      <trkpt lon="35.05290105007589" lat="31.81253037415445">
        <ele>439.3999938964844</ele>
        <time>2014-07-12T04:28:22.000Z</time>
      </trkpt>
      <trkpt lon="35.05315384827554" lat="31.81251863949001">
        <ele>439.0</ele>
        <time>2014-07-12T04:28:33.000Z</time>
      </trkpt>
      <trkpt lon="35.05339918658137" lat="31.812541019171476">
        <ele>442.3999938964844</ele>
        <time>2014-07-12T04:28:45.000Z</time>
      </trkpt>
      <trkpt lon="35.05350714549422" lat="31.81257488206029">
        <ele>444.0</ele>
        <time>2014-07-12T04:28:53.000Z</time>
      </trkpt>
      <trkpt lon="35.05363178439438" lat="31.812612181529403">
        <ele>446.0</ele>
        <time>2014-07-12T04:29:02.000Z</time>
      </trkpt>
      <trkpt lon="35.05373915657401" lat="31.81270094588399">
        <ele>448.0</ele>
        <time>2014-07-12T04:29:11.000Z</time>
      </trkpt>
      <trkpt lon="35.05383186042309" lat="31.812849892303348">
        <ele>449.20001220703125</ele>
        <time>2014-07-12T04:29:22.000Z</time>
      </trkpt>
      <trkpt lon="35.05388860590756" lat="31.812986936420202">
        <ele>450.20001220703125</ele>
        <time>2014-07-12T04:29:31.000Z</time>
      </trkpt>
      <trkpt lon="35.05397309549153" lat="31.81308844126761">
        <ele>450.79998779296875</ele>
        <time>2014-07-12T04:29:39.000Z</time>
      </trkpt>
      <trkpt lon="35.0541215389967" lat="31.81319212540984">
        <ele>451.3999938964844</ele>
        <time>2014-07-12T04:29:46.000Z</time>
      </trkpt>
      <trkpt lon="35.05433024838567" lat="31.81327703408897">
        <ele>452.79998779296875</ele>
        <time>2014-07-12T04:29:53.000Z</time>
      </trkpt>
      <trkpt lon="35.054513392969966" lat="31.813331097364426">
        <ele>453.79998779296875</ele>
        <time>2014-07-12T04:30:00.000Z</time>
      </trkpt>
      <trkpt lon="35.054701985791326" lat="31.81344031356275">
        <ele>455.0</ele>
        <time>2014-07-12T04:30:08.000Z</time>
      </trkpt>
      <trkpt lon="35.054922765120864" lat="31.8135672993958">
        <ele>455.3999938964844</ele>
        <time>2014-07-12T04:30:18.000Z</time>
      </trkpt>
      <trkpt lon="35.05509342066944" lat="31.81364701129496">
        <ele>456.79998779296875</ele>
        <time>2014-07-12T04:30:27.000Z</time>
      </trkpt>
      <trkpt lon="35.055262483656406" lat="31.813768045976758">
        <ele>458.6000061035156</ele>
        <time>2014-07-12T04:30:39.000Z</time>
      </trkpt>
      <trkpt lon="35.055405059829354" lat="31.81389268487692">
        <ele>460.20001220703125</ele>
        <time>2014-07-12T04:30:50.000Z</time>
      </trkpt>
      <trkpt lon="35.05556272342801" lat="31.813915818929672">
        <ele>460.6000061035156</ele>
        <time>2014-07-12T04:30:58.000Z</time>
      </trkpt>
      <trkpt lon="35.05566515028477" lat="31.813900228589773">
        <ele>460.3999938964844</ele>
        <time>2014-07-12T04:31:05.000Z</time>
      </trkpt>
      <trkpt lon="35.05570345558226" lat="31.813900228589773">
        <ele>460.3999938964844</ele>
        <time>2014-07-12T04:31:19.000Z</time>
      </trkpt>
      <trkpt lon="35.05571762099862" lat="31.81391028687358">
        <ele>460.3999938964844</ele>
        <time>2014-07-12T04:31:38.000Z</time>
      </trkpt>
      <trkpt lon="35.05572985857725" lat="31.813892014324665">
        <ele>460.3999938964844</ele>
        <time>2014-07-12T04:31:58.000Z</time>
      </trkpt>
      <trkpt lon="35.055738324299455" lat="31.81390643119812">
        <ele>460.3999938964844</ele>
        <time>2014-07-12T04:32:19.000Z</time>
      </trkpt>
      <trkpt lon="35.055743185803294" lat="31.81391330435872">
        <ele>460.3999938964844</ele>
        <time>2014-07-12T04:32:40.000Z</time>
      </trkpt>
      <trkpt lon="35.05573648028076" lat="31.813919758424163">
        <ele>460.6000061035156</ele>
        <time>2014-07-12T04:33:00.000Z</time>
      </trkpt>
      <trkpt lon="35.0557254999876" lat="31.813917076215148">
        <ele>460.6000061035156</ele>
        <time>2014-07-12T04:33:20.000Z</time>
      </trkpt>
      <trkpt lon="35.055693816393614" lat="31.813905090093613">
        <ele>460.3999938964844</ele>
        <time>2014-07-12T04:33:41.000Z</time>
      </trkpt>
      <trkpt lon="35.055687529966235" lat="31.813887991011143">
        <ele>460.3999938964844</ele>
        <time>2014-07-12T04:34:02.000Z</time>
      </trkpt>
      <trkpt lon="35.055719213560224" lat="31.813912969082594">
        <ele>460.3999938964844</ele>
        <time>2014-07-12T04:34:24.000Z</time>
      </trkpt>
      <trkpt lon="35.05573513917625" lat="31.813903246074915">
        <ele>460.3999938964844</ele>
        <time>2014-07-12T04:34:37.000Z</time>
      </trkpt>
      <trkpt lon="35.0558584369719" lat="31.81379998102784">
        <ele>460.0</ele>
        <time>2014-07-12T04:34:48.000Z</time>
      </trkpt>
      <trkpt lon="35.056025153025985" lat="31.813738122582436">
        <ele>460.0</ele>
        <time>2014-07-12T04:34:56.000Z</time>
      </trkpt>
      <trkpt lon="35.056258756667376" lat="31.813708618283272">
        <ele>460.20001220703125</ele>
        <time>2014-07-12T04:35:05.000Z</time>
      </trkpt>
      <trkpt lon="35.05653795786202" lat="31.8136933632195">
        <ele>462.20001220703125</ele>
        <time>2014-07-12T04:35:14.000Z</time>
      </trkpt>
      <trkpt lon="35.05680710077286" lat="31.81366846896708">
        <ele>463.6000061035156</ele>
        <time>2014-07-12T04:35:21.000Z</time>
      </trkpt>
      <trkpt lon="35.05699250847101" lat="31.813662853091955">
        <ele>464.0</ele>
        <time>2014-07-12T04:35:27.000Z</time>
      </trkpt>
      <trkpt lon="35.057145059108734" lat="31.813668636605144">
        <ele>464.3999938964844</ele>
        <time>2014-07-12T04:35:35.000Z</time>
      </trkpt>
      <trkpt lon="35.057309260591865" lat="31.813708785921335">
        <ele>465.6000061035156</ele>
        <time>2014-07-12T04:35:42.000Z</time>
      </trkpt>
      <trkpt lon="35.057670855894685" lat="31.813761088997126">
        <ele>467.79998779296875</ele>
        <time>2014-07-12T04:35:55.000Z</time>
      </trkpt>
      <trkpt lon="35.05795416422188" lat="31.81380626745522">
        <ele>470.6000061035156</ele>
        <time>2014-07-12T04:36:05.000Z</time>
      </trkpt>
      <trkpt lon="35.05818575620651" lat="31.813818337395787">
        <ele>472.0</ele>
        <time>2014-07-12T04:36:14.000Z</time>
      </trkpt>
      <trkpt lon="35.058376025408506" lat="31.813794868066907">
        <ele>473.0</ele>
        <time>2014-07-12T04:36:22.000Z</time>
      </trkpt>
      <trkpt lon="35.0585525482893" lat="31.813798053190112">
        <ele>474.0</ele>
        <time>2014-07-12T04:36:31.000Z</time>
      </trkpt>
      <trkpt lon="35.05882420577109" lat="31.813801154494286">
        <ele>475.79998779296875</ele>
        <time>2014-07-12T04:36:41.000Z</time>
      </trkpt>
      <trkpt lon="35.05905051715672" lat="31.8137813732028">
        <ele>479.20001220703125</ele>
        <time>2014-07-12T04:36:50.000Z</time>
      </trkpt>
      <trkpt lon="35.05926987156272" lat="31.813697135075927">
        <ele>481.79998779296875</ele>
        <time>2014-07-12T04:36:58.000Z</time>
      </trkpt>
      <trkpt lon="35.059442203491926" lat="31.813607197254896">
        <ele>479.6000061035156</ele>
        <time>2014-07-12T04:37:05.000Z</time>
      </trkpt>
      <trkpt lon="35.059616547077894" lat="31.81352631188929">
        <ele>478.20001220703125</ele>
        <time>2014-07-12T04:37:13.000Z</time>
      </trkpt>
      <trkpt lon="35.05973498336971" lat="31.813426818698645">
        <ele>478.79998779296875</ele>
        <time>2014-07-12T04:37:21.000Z</time>
      </trkpt>
      <trkpt lon="35.059867249801755" lat="31.813305700197816">
        <ele>477.79998779296875</ele>
        <time>2014-07-12T04:37:32.000Z</time>
      </trkpt>
      <trkpt lon="35.059947380796075" lat="31.813248535618186">
        <ele>477.3999938964844</ele>
        <time>2014-07-12T04:37:37.000Z</time>
      </trkpt>
      <trkpt lon="35.059965485706925" lat="31.81324183009565">
        <ele>477.3999938964844</ele>
        <time>2014-07-12T04:37:38.000Z</time>
      </trkpt>
      <trkpt lon="35.059983003884554" lat="31.813235711306334">
        <ele>477.6000061035156</ele>
        <time>2014-07-12T04:37:39.000Z</time>
      </trkpt>
      <trkpt lon="35.060179978609085" lat="31.813170332461596">
        <ele>481.6000061035156</ele>
        <time>2014-07-12T04:37:51.000Z</time>
      </trkpt>
      <trkpt lon="35.060368571430445" lat="31.81312465108931">
        <ele>484.79998779296875</ele>
        <time>2014-07-12T04:38:01.000Z</time>
      </trkpt>
      <trkpt lon="35.06055875681341" lat="31.813062960281968">
        <ele>487.3999938964844</ele>
        <time>2014-07-12T04:38:12.000Z</time>
      </trkpt>
      <trkpt lon="35.06070342846215" lat="31.812974447384477">
        <ele>491.0</ele>
        <time>2014-07-12T04:38:21.000Z</time>
      </trkpt>
      <trkpt lon="35.060737542808056" lat="31.81291015818715">
        <ele>491.79998779296875</ele>
        <time>2014-07-12T04:38:26.000Z</time>
      </trkpt>
      <trkpt lon="35.06081239320338" lat="31.812847293913364">
        <ele>493.6000061035156</ele>
        <time>2014-07-12T04:38:33.000Z</time>
      </trkpt>
      <trkpt lon="35.060943653807044" lat="31.812759703025222">
        <ele>493.0</ele>
        <time>2014-07-12T04:38:42.000Z</time>
      </trkpt>
      <trkpt lon="35.061099473387" lat="31.812664568424225">
        <ele>490.0</ele>
        <time>2014-07-12T04:38:51.000Z</time>
      </trkpt>
      <trkpt lon="35.061325868591666" lat="31.81255334056914">
        <ele>488.20001220703125</ele>
        <time>2014-07-12T04:39:02.000Z</time>
      </trkpt>
      <trkpt lon="35.06157170981169" lat="31.81246935389936">
        <ele>490.79998779296875</ele>
        <time>2014-07-12T04:39:12.000Z</time>
      </trkpt>
      <trkpt lon="35.061702048406005" lat="31.812378158792853">
        <ele>490.6000061035156</ele>
        <time>2014-07-12T04:39:19.000Z</time>
      </trkpt>
      <trkpt lon="35.06182216107845" lat="31.812332896515727">
        <ele>493.79998779296875</ele>
        <time>2014-07-12T04:39:27.000Z</time>
      </trkpt>
      <trkpt lon="35.061992732807994" lat="31.812269696965814">
        <ele>497.79998779296875</ele>
        <time>2014-07-12T04:39:36.000Z</time>
      </trkpt>
      <trkpt lon="35.062068002298474" lat="31.81222703307867">
        <ele>496.3999938964844</ele>
        <time>2014-07-12T04:39:41.000Z</time>
      </trkpt>
      <trkpt lon="35.062160454690456" lat="31.812128964811563">
        <ele>496.79998779296875</ele>
        <time>2014-07-12T04:39:49.000Z</time>
      </trkpt>
      <trkpt lon="35.062267910689116" lat="31.812013378366828">
        <ele>498.6000061035156</ele>
        <time>2014-07-12T04:39:57.000Z</time>
      </trkpt>
      <trkpt lon="35.062330858781934" lat="31.811888236552477">
        <ele>498.79998779296875</ele>
        <time>2014-07-12T04:40:05.000Z</time>
      </trkpt>
      <trkpt lon="35.06237134337425" lat="31.811800729483366">
        <ele>498.79998779296875</ele>
        <time>2014-07-12T04:40:11.000Z</time>
      </trkpt>
      <trkpt lon="35.06245281547308" lat="31.81168748997152">
        <ele>499.20001220703125</ele>
        <time>2014-07-12T04:40:19.000Z</time>
      </trkpt>
      <trkpt lon="35.06253831088543" lat="31.81160258129239">
        <ele>500.0</ele>
        <time>2014-07-12T04:40:27.000Z</time>
      </trkpt>
      <trkpt lon="35.06261265836656" lat="31.811498561874032">
        <ele>502.3999938964844</ele>
        <time>2014-07-12T04:40:34.000Z</time>
      </trkpt>
      <trkpt lon="35.062701757997274" lat="31.811382807791233">
        <ele>507.3999938964844</ele>
        <time>2014-07-12T04:40:42.000Z</time>
      </trkpt>
      <trkpt lon="35.06283251568675" lat="31.81126386858523">
        <ele>505.79998779296875</ele>
        <time>2014-07-12T04:40:52.000Z</time>
      </trkpt>
      <trkpt lon="35.06293770857155" lat="31.81117451749742">
        <ele>503.6000061035156</ele>
        <time>2014-07-12T04:40:59.000Z</time>
      </trkpt>
      <trkpt lon="35.06301088258624" lat="31.811092710122466">
        <ele>505.20001220703125</ele>
        <time>2014-07-12T04:41:07.000Z</time>
      </trkpt>
      <trkpt lon="35.06302018649876" lat="31.81107820942998">
        <ele>505.20001220703125</ele>
        <time>2014-07-12T04:41:08.000Z</time>
      </trkpt>
      <trkpt lon="35.06303200498223" lat="31.811061445623636">
        <ele>505.3999938964844</ele>
        <time>2014-07-12T04:41:09.000Z</time>
      </trkpt>
      <trkpt lon="35.06309101358056" lat="31.810971004888415">
        <ele>506.3999938964844</ele>
        <time>2014-07-12T04:41:17.000Z</time>
      </trkpt>
      <trkpt lon="35.063166534528136" lat="31.810818118974566">
        <ele>504.6000061035156</ele>
        <time>2014-07-12T04:41:27.000Z</time>
      </trkpt>
      <trkpt lon="35.06322244182229" lat="31.810731031000614">
        <ele>503.20001220703125</ele>
        <time>2014-07-12T04:41:34.000Z</time>
      </trkpt>
      <trkpt lon="35.06323744542897" lat="31.81072055362165">
        <ele>503.20001220703125</ele>
        <time>2014-07-12T04:41:35.000Z</time>
      </trkpt>
      <trkpt lon="35.06325135938823" lat="31.81070890277624">
        <ele>503.6000061035156</ele>
        <time>2014-07-12T04:41:36.000Z</time>
      </trkpt>
      <trkpt lon="35.06337088532746" lat="31.81061016395688">
        <ele>508.3999938964844</ele>
        <time>2014-07-12T04:41:46.000Z</time>
      </trkpt>
      <trkpt lon="35.06344707682729" lat="31.810557190328836">
        <ele>511.20001220703125</ele>
        <time>2014-07-12T04:41:53.000Z</time>
      </trkpt>
      <trkpt lon="35.063524106517434" lat="31.810482759028673">
        <ele>514.4000244140625</ele>
        <time>2014-07-12T04:42:02.000Z</time>
      </trkpt>
      <trkpt lon="35.06365452893078" lat="31.81040933355689">
        <ele>511.0</ele>
        <time>2014-07-12T04:42:11.000Z</time>
      </trkpt>
      <trkpt lon="35.06377514451742" lat="31.810328448191285">
        <ele>508.3999938964844</ele>
        <time>2014-07-12T04:42:17.000Z</time>
      </trkpt>
      <trkpt lon="35.063857873901725" lat="31.810278743505478">
        <ele>510.20001220703125</ele>
        <time>2014-07-12T04:42:26.000Z</time>
      </trkpt>
      <trkpt lon="35.06391763687134" lat="31.81027354672551">
        <ele>511.79998779296875</ele>
        <time>2014-07-12T04:42:38.000Z</time>
      </trkpt>
      <trkpt lon="35.06391562521458" lat="31.81028268299997">
        <ele>512.0</ele>
        <time>2014-07-12T04:42:51.000Z</time>
      </trkpt>
      <trkpt lon="35.06391151808202" lat="31.810295088216662">
        <ele>512.0</ele>
        <time>2014-07-12T04:43:09.000Z</time>
      </trkpt>
      <trkpt lon="35.06393079645932" lat="31.81029601022601">
        <ele>512.7999877929688</ele>
        <time>2014-07-12T04:43:27.000Z</time>
      </trkpt>
      <trkpt lon="35.06397404707968" lat="31.810313360765576">
        <ele>514.4000244140625</ele>
        <time>2014-07-12T04:43:49.000Z</time>
      </trkpt>
      <trkpt lon="35.06394990719855" lat="31.810315791517496">
        <ele>513.5999755859375</ele>
        <time>2014-07-12T04:44:10.000Z</time>
      </trkpt>
      <trkpt lon="35.06393490359187" lat="31.810314366593957">
        <ele>513.2000122070312</ele>
        <time>2014-07-12T04:44:37.000Z</time>
      </trkpt>
      <trkpt lon="35.06389475427568" lat="31.810302045196295">
        <ele>511.6000061035156</ele>
        <time>2014-07-12T04:44:51.000Z</time>
      </trkpt>
      <trkpt lon="35.063882349058986" lat="31.810297518968582">
        <ele>511.20001220703125</ele>
        <time>2014-07-12T04:45:06.000Z</time>
      </trkpt>
      <trkpt lon="35.0639125239104" lat="31.810284359380603">
        <ele>512.0</ele>
        <time>2014-07-12T04:45:17.000Z</time>
      </trkpt>
      <trkpt lon="35.06395384669304" lat="31.810274636372924">
        <ele>513.0</ele>
        <time>2014-07-12T04:45:42.000Z</time>
      </trkpt>
      <trkpt lon="35.06393398158252" lat="31.810267763212323">
        <ele>512.2000122070312</ele>
        <time>2014-07-12T04:46:05.000Z</time>
      </trkpt>
      <trkpt lon="35.06394672207534" lat="31.81028176099062">
        <ele>513.0</ele>
        <time>2014-07-12T04:46:23.000Z</time>
      </trkpt>
      <trkpt lon="35.063923420384526" lat="31.810281593352556">
        <ele>512.2000122070312</ele>
        <time>2014-07-12T04:46:45.000Z</time>
      </trkpt>
      <trkpt lon="35.06396071985364" lat="31.810278240591288">
        <ele>513.4000244140625</ele>
        <time>2014-07-12T04:47:10.000Z</time>
      </trkpt>
      <trkpt lon="35.06394060328603" lat="31.810296764597297">
        <ele>513.0</ele>
        <time>2014-07-12T04:47:33.000Z</time>
      </trkpt>
      <trkpt lon="35.06392258219421" lat="31.810281174257398">
        <ele>512.2000122070312</ele>
        <time>2014-07-12T04:47:55.000Z</time>
      </trkpt>
      <trkpt lon="35.063923420384526" lat="31.810281174257398">
        <ele>512.2000122070312</ele>
        <time>2014-07-12T04:48:14.000Z</time>
      </trkpt>
      <trkpt lon="35.06392962299287" lat="31.8102637398988">
        <ele>512.0</ele>
        <time>2014-07-12T04:48:36.000Z</time>
      </trkpt>
      <trkpt lon="35.06396574899554" lat="31.810279497876763">
        <ele>513.4000244140625</ele>
        <time>2014-07-12T04:48:59.000Z</time>
      </trkpt>
      <trkpt lon="35.063968850299716" lat="31.81026617065072">
        <ele>513.4000244140625</ele>
        <time>2014-07-12T04:49:19.000Z</time>
      </trkpt>
      <trkpt lon="35.0639661680907" lat="31.81028511375189">
        <ele>513.5999755859375</ele>
        <time>2014-07-12T04:49:39.000Z</time>
      </trkpt>
      <trkpt lon="35.06396474316716" lat="31.810260051861405">
        <ele>513.2000122070312</ele>
        <time>2014-07-12T04:50:06.000Z</time>
      </trkpt>
      <trkpt lon="35.063949320465326" lat="31.81024613790214">
        <ele>512.4000244140625</ele>
        <time>2014-07-12T04:50:27.000Z</time>
      </trkpt>
      <trkpt lon="35.06392258219421" lat="31.810240941122174">
        <ele>511.3999938964844</ele>
        <time>2014-07-12T04:50:48.000Z</time>
      </trkpt>
      <trkpt lon="35.06390313617885" lat="31.81026801466942">
        <ele>511.3999938964844</ele>
        <time>2014-07-12T04:51:08.000Z</time>
      </trkpt>
      <trkpt lon="35.063911182805896" lat="31.810292741283774">
        <ele>512.0</ele>
        <time>2014-07-12T04:51:32.000Z</time>
      </trkpt>
      <trkpt lon="35.06393004208803" lat="31.810260638594627">
        <ele>512.0</ele>
        <time>2014-07-12T04:51:58.000Z</time>
      </trkpt>
      <trkpt lon="35.06394018419087" lat="31.810231637209654">
        <ele>511.79998779296875</ele>
        <time>2014-07-12T04:52:23.000Z</time>
      </trkpt>
      <trkpt lon="35.06395325995982" lat="31.810233145952225">
        <ele>512.2000122070312</ele>
        <time>2014-07-12T04:52:50.000Z</time>
      </trkpt>
      <trkpt lon="35.063977064564824" lat="31.810248736292124">
        <ele>513.2000122070312</ele>
        <time>2014-07-12T04:53:08.000Z</time>
      </trkpt>
      <trkpt lon="35.063990727066994" lat="31.81025242432952">
        <ele>513.7999877929688</ele>
        <time>2014-07-12T04:53:33.000Z</time>
      </trkpt>
      <trkpt lon="35.064004892483354" lat="31.810253094881773">
        <ele>514.2000122070312</ele>
        <time>2014-07-12T04:53:48.000Z</time>
      </trkpt>
      <trkpt lon="35.064006401225924" lat="31.81026315316558">
        <ele>514.4000244140625</ele>
        <time>2014-07-12T04:54:17.000Z</time>
      </trkpt>
      <trkpt lon="35.06399877369404" lat="31.810252256691456">
        <ele>514.0</ele>
        <time>2014-07-12T04:54:33.000Z</time>
      </trkpt>
      <trkpt lon="35.06397186778486" lat="31.81026122532785">
        <ele>513.4000244140625</ele>
        <time>2014-07-12T04:54:59.000Z</time>
      </trkpt>
      <trkpt lon="35.0639437045902" lat="31.810263991355896">
        <ele>512.5999755859375</ele>
        <time>2014-07-12T04:55:28.000Z</time>
      </trkpt>
      <trkpt lon="35.06397681310773" lat="31.810287879779935">
        <ele>514.0</ele>
        <time>2014-07-12T04:55:52.000Z</time>
      </trkpt>
      <trkpt lon="35.0639833509922" lat="31.810278743505478">
        <ele>514.0</ele>
        <time>2014-07-12T04:56:16.000Z</time>
      </trkpt>
      <trkpt lon="35.063988799229264" lat="31.810275726020336">
        <ele>514.2000122070312</ele>
        <time>2014-07-12T04:56:35.000Z</time>
      </trkpt>
      <trkpt lon="35.063978070393205" lat="31.810281928628683">
        <ele>514.0</ele>
        <time>2014-07-12T04:56:59.000Z</time>
      </trkpt>
      <trkpt lon="35.06398905068636" lat="31.81027346290648">
        <ele>514.2000122070312</ele>
        <time>2014-07-12T04:57:20.000Z</time>
      </trkpt>
      <trkpt lon="35.06402081809938" lat="31.810280419886112">
        <ele>515.2000122070312</ele>
        <time>2014-07-12T04:57:44.000Z</time>
      </trkpt>
      <trkpt lon="35.06398318335414" lat="31.810312941670418">
        <ele>514.5999755859375</ele>
        <time>2014-07-12T04:58:05.000Z</time>
      </trkpt>
      <trkpt lon="35.063929203897715" lat="31.810284443199635">
        <ele>512.4000244140625</ele>
        <time>2014-07-12T04:58:29.000Z</time>
      </trkpt>
      <trkpt lon="35.063946386799216" lat="31.810283856466413">
        <ele>513.0</ele>
        <time>2014-07-12T04:58:52.000Z</time>
      </trkpt>
      <trkpt lon="35.06397262215614" lat="31.810305062681437">
        <ele>514.2000122070312</ele>
        <time>2014-07-12T04:59:17.000Z</time>
      </trkpt>
      <trkpt lon="35.06398553028703" lat="31.81028318591416">
        <ele>514.2000122070312</ele>
        <time>2014-07-12T04:59:41.000Z</time>
      </trkpt>
      <trkpt lon="35.06396306678653" lat="31.81025586090982">
        <ele>513.0</ele>
        <time>2014-07-12T05:00:02.000Z</time>
      </trkpt>
      <trkpt lon="35.063944878056645" lat="31.81024521589279">
        <ele>512.2000122070312</ele>
        <time>2014-07-12T05:00:26.000Z</time>
      </trkpt>
      <trkpt lon="35.06394429132342" lat="31.810247898101807">
        <ele>512.2000122070312</ele>
        <time>2014-07-12T05:00:46.000Z</time>
      </trkpt>
      <trkpt lon="35.06393884308636" lat="31.810263320803642">
        <ele>512.4000244140625</ele>
        <time>2014-07-12T05:01:12.000Z</time>
      </trkpt>
      <trkpt lon="35.063908165320754" lat="31.8102637398988">
        <ele>511.3999938964844</ele>
        <time>2014-07-12T05:01:34.000Z</time>
      </trkpt>
      <trkpt lon="35.06394018419087" lat="31.810260554775596">
        <ele>512.4000244140625</ele>
        <time>2014-07-12T05:01:58.000Z</time>
      </trkpt>
      <trkpt lon="35.06392945535481" lat="31.810266925022006">
        <ele>512.2000122070312</ele>
        <time>2014-07-12T05:02:21.000Z</time>
      </trkpt>
      <trkpt lon="35.06393666379154" lat="31.810275558382273">
        <ele>512.5999755859375</ele>
        <time>2014-07-12T05:02:40.000Z</time>
      </trkpt>
      <trkpt lon="35.06393549032509" lat="31.810285365208983">
        <ele>512.5999755859375</ele>
        <time>2014-07-12T05:03:00.000Z</time>
      </trkpt>
      <trkpt lon="35.06393875926733" lat="31.81028318591416">
        <ele>512.7999877929688</ele>
        <time>2014-07-12T05:03:21.000Z</time>
      </trkpt>
      <trkpt lon="35.06393976509571" lat="31.81029198691249">
        <ele>513.0</ele>
        <time>2014-07-12T05:03:44.000Z</time>
      </trkpt>
      <trkpt lon="35.06395485252142" lat="31.81028083898127">
        <ele>513.2000122070312</ele>
        <time>2014-07-12T05:04:08.000Z</time>
      </trkpt>
      <trkpt lon="35.06399357691407" lat="31.810278659686446">
        <ele>514.4000244140625</ele>
        <time>2014-07-12T05:04:28.000Z</time>
      </trkpt>
      <trkpt lon="35.064016710966825" lat="31.810262063518167">
        <ele>514.7999877929688</ele>
        <time>2014-07-12T05:04:54.000Z</time>
      </trkpt>
      <trkpt lon="35.06400715559721" lat="31.810259632766247">
        <ele>514.4000244140625</ele>
        <time>2014-07-12T05:05:16.000Z</time>
      </trkpt>
      <trkpt lon="35.0639991927892" lat="31.810257956385612">
        <ele>514.2000122070312</ele>
        <time>2014-07-12T05:05:38.000Z</time>
      </trkpt>
      <trkpt lon="35.06399114616215" lat="31.810264997184277">
        <ele>514.0</ele>
        <time>2014-07-12T05:05:50.000Z</time>
      </trkpt>
      <trkpt lon="35.06399609148502" lat="31.810206910595298">
        <ele>513.2000122070312</ele>
        <time>2014-07-12T05:06:02.000Z</time>
      </trkpt>
      <trkpt lon="35.064102206379175" lat="31.810150668025017">
        <ele>513.7999877929688</ele>
        <time>2014-07-12T05:06:10.000Z</time>
      </trkpt>
      <trkpt lon="35.06420052610338" lat="31.810066429898143">
        <ele>511.79998779296875</ele>
        <time>2014-07-12T05:06:18.000Z</time>
      </trkpt>
      <trkpt lon="35.064250314608216" lat="31.809994345530868">
        <ele>509.3999938964844</ele>
        <time>2014-07-12T05:06:26.000Z</time>
      </trkpt>
      <trkpt lon="35.06435500457883" lat="31.809924943372607">
        <ele>508.0</ele>
        <time>2014-07-12T05:06:34.000Z</time>
      </trkpt>
      <trkpt lon="35.064419796690345" lat="31.809880938380957">
        <ele>507.20001220703125</ele>
        <time>2014-07-12T05:06:39.000Z</time>
      </trkpt>
      <trkpt lon="35.064535131677985" lat="31.809808434918523">
        <ele>510.0</ele>
        <time>2014-07-12T05:06:47.000Z</time>
      </trkpt>
      <trkpt lon="35.06463906727731" lat="31.80971933528781">
        <ele>510.0</ele>
        <time>2014-07-12T05:06:55.000Z</time>
      </trkpt>
      <trkpt lon="35.06468717940152" lat="31.8096783477813">
        <ele>511.20001220703125</ele>
        <time>2014-07-12T05:07:00.000Z</time>
      </trkpt>
      <trkpt lon="35.06469815969467" lat="31.80966560728848">
        <ele>511.3999938964844</ele>
        <time>2014-07-12T05:07:01.000Z</time>
      </trkpt>
      <trkpt lon="35.06483847275376" lat="31.809556894004345">
        <ele>514.5999755859375</ele>
        <time>2014-07-12T05:07:09.000Z</time>
      </trkpt>
      <trkpt lon="35.065057408064604" lat="31.809459077194333">
        <ele>518.2000122070312</ele>
        <time>2014-07-12T05:07:17.000Z</time>
      </trkpt>
      <trkpt lon="35.06527206860483" lat="31.809349860996008">
        <ele>515.4000244140625</ele>
        <time>2014-07-12T05:07:24.000Z</time>
      </trkpt>
      <trkpt lon="35.06543643772602" lat="31.809269562363625">
        <ele>513.4000244140625</ele>
        <time>2014-07-12T05:07:31.000Z</time>
      </trkpt>
      <trkpt lon="35.06556929089129" lat="31.809204937890172">
        <ele>515.7999877929688</ele>
        <time>2014-07-12T05:07:38.000Z</time>
      </trkpt>
      <trkpt lon="35.065700551494956" lat="31.809141989797354">
        <ele>515.0</ele>
        <time>2014-07-12T05:07:45.000Z</time>
      </trkpt>
      <trkpt lon="35.06589040160179" lat="31.809057416394353">
        <ele>513.7999877929688</ele>
        <time>2014-07-12T05:07:55.000Z</time>
      </trkpt>
      <trkpt lon="35.06606038659811" lat="31.808985332027078">
        <ele>517.4000244140625</ele>
        <time>2014-07-12T05:08:03.000Z</time>
      </trkpt>
      <trkpt lon="35.06629331968725" lat="31.80888961069286">
        <ele>519.2000122070312</ele>
        <time>2014-07-12T05:08:12.000Z</time>
      </trkpt>
      <trkpt lon="35.06646506488323" lat="31.808840995654464">
        <ele>523.2000122070312</ele>
        <time>2014-07-12T05:08:20.000Z</time>
      </trkpt>
      <trkpt lon="35.06663018837571" lat="31.808769749477506">
        <ele>527.0</ele>
        <time>2014-07-12T05:08:28.000Z</time>
      </trkpt>
      <trkpt lon="35.06677293218672" lat="31.808663634583354">
        <ele>528.7999877929688</ele>
        <time>2014-07-12T05:08:35.000Z</time>
      </trkpt>
      <trkpt lon="35.06691458635032" lat="31.808567075058818">
        <ele>525.7999877929688</ele>
        <time>2014-07-12T05:08:44.000Z</time>
      </trkpt>
      <trkpt lon="35.06705230101943" lat="31.808516029268503">
        <ele>524.0</ele>
        <time>2014-07-12T05:08:51.000Z</time>
      </trkpt>
      <trkpt lon="35.067227901890874" lat="31.808443861082196">
        <ele>525.7999877929688</ele>
        <time>2014-07-12T05:08:59.000Z</time>
      </trkpt>
      <trkpt lon="35.067395120859146" lat="31.80838393047452">
        <ele>527.2000122070312</ele>
        <time>2014-07-12T05:09:07.000Z</time>
      </trkpt>
      <trkpt lon="35.06752973422408" lat="31.808340847492218">
        <ele>527.5999755859375</ele>
        <time>2014-07-12T05:09:14.000Z</time>
      </trkpt>
      <trkpt lon="35.06754926405847" lat="31.808332465589046">
        <ele>527.5999755859375</ele>
        <time>2014-07-12T05:09:15.000Z</time>
      </trkpt>
      <trkpt lon="35.06756963208318" lat="31.808326430618763">
        <ele>527.7999877929688</ele>
        <time>2014-07-12T05:09:16.000Z</time>
      </trkpt>
      <trkpt lon="35.06758874282241" lat="31.80832047946751">
        <ele>527.7999877929688</ele>
        <time>2014-07-12T05:09:17.000Z</time>
      </trkpt>
      <trkpt lon="35.06760676391423" lat="31.808313438668847">
        <ele>527.7999877929688</ele>
        <time>2014-07-12T05:09:18.000Z</time>
      </trkpt>
      <trkpt lon="35.06762285716832" lat="31.808304637670517">
        <ele>527.7999877929688</ele>
        <time>2014-07-12T05:09:19.000Z</time>
      </trkpt>
      <trkpt lon="35.06764247082174" lat="31.808297345414758">
        <ele>527.7999877929688</ele>
        <time>2014-07-12T05:09:20.000Z</time>
      </trkpt>
      <trkpt lon="35.067867105826735" lat="31.80821444839239">
        <ele>528.2000122070312</ele>
        <time>2014-07-12T05:09:30.000Z</time>
      </trkpt>
      <trkpt lon="35.06799685768783" lat="31.80810053832829">
        <ele>530.5999755859375</ele>
        <time>2014-07-12T05:09:38.000Z</time>
      </trkpt>
      <trkpt lon="35.06813524290919" lat="31.80797698907554">
        <ele>533.7999877929688</ele>
        <time>2014-07-12T05:09:46.000Z</time>
      </trkpt>
      <trkpt lon="35.06825434975326" lat="31.807926446199417">
        <ele>536.4000244140625</ele>
        <time>2014-07-12T05:09:52.000Z</time>
      </trkpt>
      <trkpt lon="35.06827337667346" lat="31.80792066268623">
        <ele>536.7999877929688</ele>
        <time>2014-07-12T05:09:53.000Z</time>
      </trkpt>
      <trkpt lon="35.06844403222203" lat="31.807859055697918">
        <ele>539.4000244140625</ele>
        <time>2014-07-12T05:10:02.000Z</time>
      </trkpt>
      <trkpt lon="35.06858761422336" lat="31.807866683229804">
        <ele>539.2000122070312</ele>
        <time>2014-07-12T05:10:09.000Z</time>
      </trkpt>
      <trkpt lon="35.06879724562168" lat="31.807779679074883">
        <ele>537.4000244140625</ele>
        <time>2014-07-12T05:10:21.000Z</time>
      </trkpt>
      <trkpt lon="35.0688808131963" lat="31.807723687961698">
        <ele>537.2000122070312</ele>
        <time>2014-07-12T05:10:27.000Z</time>
      </trkpt>
      <trkpt lon="35.068896654993296" lat="31.807712372392416">
        <ele>537.2000122070312</ele>
        <time>2014-07-12T05:10:28.000Z</time>
      </trkpt>
      <trkpt lon="35.06891149096191" lat="31.80769443511963">
        <ele>537.0</ele>
        <time>2014-07-12T05:10:29.000Z</time>
      </trkpt>
      <trkpt lon="35.068924482911825" lat="31.807675743475556">
        <ele>536.5999755859375</ele>
        <time>2014-07-12T05:10:30.000Z</time>
      </trkpt>
      <trkpt lon="35.06893152371049" lat="31.807656465098262">
        <ele>536.4000244140625</ele>
        <time>2014-07-12T05:10:31.000Z</time>
      </trkpt>
      <trkpt lon="35.0689397379756" lat="31.807639366015792">
        <ele>536.2000122070312</ele>
        <time>2014-07-12T05:10:32.000Z</time>
      </trkpt>
      <trkpt lon="35.06895197555423" lat="31.807625284418464">
        <ele>536.0</ele>
        <time>2014-07-12T05:10:33.000Z</time>
      </trkpt>
      <trkpt lon="35.068966560065746" lat="31.80761380121112">
        <ele>535.7999877929688</ele>
        <time>2014-07-12T05:10:34.000Z</time>
      </trkpt>
      <trkpt lon="35.068981144577265" lat="31.807605922222137">
        <ele>535.7999877929688</ele>
        <time>2014-07-12T05:10:35.000Z</time>
      </trkpt>
      <trkpt lon="35.068991873413324" lat="31.807596618309617">
        <ele>535.5999755859375</ele>
        <time>2014-07-12T05:10:36.000Z</time>
      </trkpt>
      <trkpt lon="35.06915959529579" lat="31.807560911402106">
        <ele>534.7999877929688</ele>
        <time>2014-07-12T05:10:44.000Z</time>
      </trkpt>
      <trkpt lon="35.06932815536857" lat="31.807536268606782">
        <ele>534.2000122070312</ele>
        <time>2014-07-12T05:10:52.000Z</time>
      </trkpt>
      <trkpt lon="35.06952965632081" lat="31.807480612769723">
        <ele>532.7999877929688</ele>
        <time>2014-07-12T05:11:01.000Z</time>
      </trkpt>
      <trkpt lon="35.069733085110784" lat="31.807440295815468">
        <ele>532.7999877929688</ele>
        <time>2014-07-12T05:11:10.000Z</time>
      </trkpt>
      <trkpt lon="35.06976426579058" lat="31.807428896427155">
        <ele>532.5999755859375</ele>
        <time>2014-07-12T05:11:12.000Z</time>
      </trkpt>
      <trkpt lon="35.06978094577789" lat="31.80742378346622">
        <ele>532.5999755859375</ele>
        <time>2014-07-12T05:11:13.000Z</time>
      </trkpt>
      <trkpt lon="35.07000658661127" lat="31.807358991354704">
        <ele>534.0</ele>
        <time>2014-07-12T05:11:24.000Z</time>
      </trkpt>
      <trkpt lon="35.07019283249974" lat="31.807299396023154">
        <ele>536.5999755859375</ele>
        <time>2014-07-12T05:11:32.000Z</time>
      </trkpt>
      <trkpt lon="35.07037153467536" lat="31.807233011350036">
        <ele>537.4000244140625</ele>
        <time>2014-07-12T05:11:41.000Z</time>
      </trkpt>
      <trkpt lon="35.07049508392811" lat="31.807079119607806">
        <ele>537.7999877929688</ele>
        <time>2014-07-12T05:11:51.000Z</time>
      </trkpt>
      <trkpt lon="35.07059583440423" lat="31.806905949488282">
        <ele>539.5999755859375</ele>
        <time>2014-07-12T05:12:02.000Z</time>
      </trkpt>
      <trkpt lon="35.070683006197214" lat="31.806751051917672">
        <ele>540.5999755859375</ele>
        <time>2014-07-12T05:12:11.000Z</time>
      </trkpt>
      <trkpt lon="35.07076397538185" lat="31.806613504886627">
        <ele>539.5999755859375</ele>
        <time>2014-07-12T05:12:19.000Z</time>
      </trkpt>
      <trkpt lon="35.07085223682225" lat="31.806494649499655">
        <ele>541.2000122070312</ele>
        <time>2014-07-12T05:12:27.000Z</time>
      </trkpt>
      <trkpt lon="35.07101987488568" lat="31.806378224864602">
        <ele>546.2000122070312</ele>
        <time>2014-07-12T05:12:36.000Z</time>
      </trkpt>
      <trkpt lon="35.071239648386836" lat="31.806251658126712">
        <ele>544.0</ele>
        <time>2014-07-12T05:12:47.000Z</time>
      </trkpt>
      <trkpt lon="35.071388091892004" lat="31.80616515688598">
        <ele>546.7999877929688</ele>
        <time>2014-07-12T05:12:55.000Z</time>
      </trkpt>
      <trkpt lon="35.07154265418649" lat="31.8060571141541">
        <ele>550.4000244140625</ele>
        <time>2014-07-12T05:13:03.000Z</time>
      </trkpt>
      <trkpt lon="35.071683302521706" lat="31.805964075028896">
        <ele>550.5999755859375</ele>
        <time>2014-07-12T05:13:10.000Z</time>
      </trkpt>
      <trkpt lon="35.07189410738647" lat="31.805831724777818">
        <ele>549.2000122070312</ele>
        <time>2014-07-12T05:13:20.000Z</time>
      </trkpt>
      <trkpt lon="35.072035090997815" lat="31.805684538558125">
        <ele>548.5999755859375</ele>
        <time>2014-07-12T05:13:28.000Z</time>
      </trkpt>
      <trkpt lon="35.07214514538646" lat="31.80554162710905">
        <ele>549.7999877929688</ele>
        <time>2014-07-12T05:13:37.000Z</time>
      </trkpt>
      <trkpt lon="35.07230205461383" lat="31.805395698174834">
        <ele>555.0</ele>
        <time>2014-07-12T05:13:47.000Z</time>
      </trkpt>
      <trkpt lon="35.072458209469914" lat="31.805238956585526">
        <ele>560.2000122070312</ele>
        <time>2014-07-12T05:13:56.000Z</time>
      </trkpt>
      <trkpt lon="35.07262174040079" lat="31.805015243589878">
        <ele>558.7999877929688</ele>
        <time>2014-07-12T05:14:08.000Z</time>
      </trkpt>
      <trkpt lon="35.07274470292032" lat="31.804870320484042">
        <ele>558.5999755859375</ele>
        <time>2014-07-12T05:14:16.000Z</time>
      </trkpt>
      <trkpt lon="35.072927344590425" lat="31.804672507569194">
        <ele>559.5999755859375</ele>
        <time>2014-07-12T05:14:25.000Z</time>
      </trkpt>
      <trkpt lon="35.073003116995096" lat="31.804517107084394">
        <ele>560.5999755859375</ele>
        <time>2014-07-12T05:14:34.000Z</time>
      </trkpt>
      <trkpt lon="35.07305315695703" lat="31.804404454305768">
        <ele>561.4000244140625</ele>
        <time>2014-07-12T05:14:43.000Z</time>
      </trkpt>
      <trkpt lon="35.0730752851814" lat="31.80440059863031">
        <ele>562.0</ele>
        <time>2014-07-12T05:14:54.000Z</time>
      </trkpt>
      <trkpt lon="35.07306824438274" lat="31.804400263354182">
        <ele>561.7999877929688</ele>
        <time>2014-07-12T05:15:17.000Z</time>
      </trkpt>
      <trkpt lon="35.073076374828815" lat="31.804405376315117">
        <ele>562.2000122070312</ele>
        <time>2014-07-12T05:15:36.000Z</time>
      </trkpt>
      <trkpt lon="35.07308886386454" lat="31.804396072402596">
        <ele>562.4000244140625</ele>
        <time>2014-07-12T05:15:57.000Z</time>
      </trkpt>
      <trkpt lon="35.07310437038541" lat="31.804405376315117">
        <ele>563.0</ele>
        <time>2014-07-12T05:15:59.000Z</time>
      </trkpt>
      <trkpt lon="35.07311761379242" lat="31.80441677570343">
        <ele>563.5999755859375</ele>
        <time>2014-07-12T05:16:00.000Z</time>
      </trkpt>
      <trkpt lon="35.07314007729292" lat="31.80442507378757">
        <ele>564.2000122070312</ele>
        <time>2014-07-12T05:16:01.000Z</time>
      </trkpt>
      <trkpt lon="35.073164300993085" lat="31.80442649871111">
        <ele>565.0</ele>
        <time>2014-07-12T05:16:02.000Z</time>
      </trkpt>
      <trkpt lon="35.07318424992263" lat="31.804422894492745">
        <ele>565.5999755859375</ele>
        <time>2014-07-12T05:16:03.000Z</time>
      </trkpt>
      <trkpt lon="35.07320218719542" lat="31.80441585369408">
        <ele>566.2000122070312</ele>
        <time>2014-07-12T05:16:04.000Z</time>
      </trkpt>
      <trkpt lon="35.07321861572564" lat="31.804405292496085">
        <ele>566.5999755859375</ele>
        <time>2014-07-12T05:16:05.000Z</time>
      </trkpt>
      <trkpt lon="35.073231272399426" lat="31.804392049089074">
        <ele>566.7999877929688</ele>
        <time>2014-07-12T05:16:06.000Z</time>
      </trkpt>
      <trkpt lon="35.073294220492244" lat="31.80426967330277">
        <ele>565.2000122070312</ele>
        <time>2014-07-12T05:16:14.000Z</time>
      </trkpt>
      <trkpt lon="35.073383152484894" lat="31.804152159020305">
        <ele>563.2000122070312</ele>
        <time>2014-07-12T05:16:22.000Z</time>
      </trkpt>
      <trkpt lon="35.07347384467721" lat="31.804058281704783">
        <ele>561.7999877929688</ele>
        <time>2014-07-12T05:16:30.000Z</time>
      </trkpt>
      <trkpt lon="35.07356772199273" lat="31.8039658293128">
        <ele>563.4000244140625</ele>
        <time>2014-07-12T05:16:38.000Z</time>
      </trkpt>
      <trkpt lon="35.07370116189122" lat="31.803863821551204">
        <ele>563.2000122070312</ele>
        <time>2014-07-12T05:16:47.000Z</time>
      </trkpt>
      <trkpt lon="35.07381725125015" lat="31.80379081517458">
        <ele>562.2000122070312</ele>
        <time>2014-07-12T05:16:55.000Z</time>
      </trkpt>
      <trkpt lon="35.07394524291158" lat="31.8037361651659">
        <ele>562.5999755859375</ele>
        <time>2014-07-12T05:17:03.000Z</time>
      </trkpt>
      <trkpt lon="35.074109779670835" lat="31.80368377827108">
        <ele>563.0</ele>
        <time>2014-07-12T05:17:12.000Z</time>
      </trkpt>
      <trkpt lon="35.074253026396036" lat="31.803641449660063">
        <ele>564.0</ele>
        <time>2014-07-12T05:17:19.000Z</time>
      </trkpt>
      <trkpt lon="35.07448336109519" lat="31.803637677803636">
        <ele>567.4000244140625</ele>
        <time>2014-07-12T05:17:29.000Z</time>
      </trkpt>
      <trkpt lon="35.07469642907381" lat="31.803685035556555">
        <ele>569.0</ele>
        <time>2014-07-12T05:17:39.000Z</time>
      </trkpt>
      <trkpt lon="35.07485467940569" lat="31.803723173215985">
        <ele>568.7999877929688</ele>
        <time>2014-07-12T05:17:47.000Z</time>
      </trkpt>
      <trkpt lon="35.07500756531954" lat="31.803765753284097">
        <ele>568.5999755859375</ele>
        <time>2014-07-12T05:17:56.000Z</time>
      </trkpt>
      <trkpt lon="35.07516288198531" lat="31.80383875966072">
        <ele>568.5999755859375</ele>
        <time>2014-07-12T05:18:06.000Z</time>
      </trkpt>
      <trkpt lon="35.0753238145262" lat="31.803932720795274">
        <ele>569.0</ele>
        <time>2014-07-12T05:18:17.000Z</time>
      </trkpt>
      <trkpt lon="35.07544258609414" lat="31.803967086598277">
        <ele>570.4000244140625</ele>
        <time>2014-07-12T05:18:25.000Z</time>
      </trkpt>
      <trkpt lon="35.075578624382615" lat="31.804011091589928">
        <ele>570.2000122070312</ele>
        <time>2014-07-12T05:18:33.000Z</time>
      </trkpt>
      <trkpt lon="35.07573880255222" lat="31.80407806299627">
        <ele>570.4000244140625</ele>
        <time>2014-07-12T05:18:42.000Z</time>
      </trkpt>
      <trkpt lon="35.075780879706144" lat="31.804097844287753">
        <ele>570.7999877929688</ele>
        <time>2014-07-12T05:18:49.000Z</time>
      </trkpt>
      <trkpt lon="35.075829243287444" lat="31.80411427281797">
        <ele>571.2000122070312</ele>
        <time>2014-07-12T05:18:59.000Z</time>
      </trkpt>
      <trkpt lon="35.07584324106574" lat="31.804121816530824">
        <ele>571.4000244140625</ele>
        <time>2014-07-12T05:19:00.000Z</time>
      </trkpt>
      <trkpt lon="35.0758592505008" lat="31.80412751622498">
        <ele>571.5999755859375</ele>
        <time>2014-07-12T05:19:01.000Z</time>
      </trkpt>
      <trkpt lon="35.075877690687776" lat="31.804132293909788">
        <ele>571.5999755859375</ele>
        <time>2014-07-12T05:19:02.000Z</time>
      </trkpt>
      <trkpt lon="35.075895795598626" lat="31.804135646671057">
        <ele>571.7999877929688</ele>
        <time>2014-07-12T05:19:03.000Z</time>
      </trkpt>
      <trkpt lon="35.07591415196657" lat="31.804137993603945">
        <ele>571.7999877929688</ele>
        <time>2014-07-12T05:19:04.000Z</time>
      </trkpt>
      <trkpt lon="35.07607282139361" lat="31.804192811250687">
        <ele>573.2000122070312</ele>
        <time>2014-07-12T05:19:12.000Z</time>
      </trkpt>
      <trkpt lon="35.076225623488426" lat="31.804236229509115">
        <ele>574.4000244140625</ele>
        <time>2014-07-12T05:19:20.000Z</time>
      </trkpt>
      <trkpt lon="35.07647322490811" lat="31.804332872852683">
        <ele>574.0</ele>
        <time>2014-07-12T05:19:31.000Z</time>
      </trkpt>
      <trkpt lon="35.07665150798857" lat="31.80438836105168">
        <ele>574.5999755859375</ele>
        <time>2014-07-12T05:19:38.000Z</time>
      </trkpt>
      <trkpt lon="35.07679115049541" lat="31.804429851472378">
        <ele>576.5999755859375</ele>
        <time>2014-07-12T05:19:45.000Z</time>
      </trkpt>
      <trkpt lon="35.07696214132011" lat="31.804529847577214">
        <ele>578.2000122070312</ele>
        <time>2014-07-12T05:19:54.000Z</time>
      </trkpt>
      <trkpt lon="35.07707403972745" lat="31.804621377959847">
        <ele>579.0</ele>
        <time>2014-07-12T05:20:02.000Z</time>
      </trkpt>
      <trkpt lon="35.07710253819823" lat="31.80463328026235">
        <ele>579.4000244140625</ele>
        <time>2014-07-12T05:20:04.000Z</time>
      </trkpt>
      <trkpt lon="35.0771162007004" lat="31.8046445120126">
        <ele>579.2000122070312</ele>
        <time>2014-07-12T05:20:05.000Z</time>
      </trkpt>
      <trkpt lon="35.077236983925104" lat="31.804735204204917">
        <ele>578.7999877929688</ele>
        <time>2014-07-12T05:20:14.000Z</time>
      </trkpt>
      <trkpt lon="35.07735005579889" lat="31.80479940958321">
        <ele>578.5999755859375</ele>
        <time>2014-07-12T05:20:23.000Z</time>
      </trkpt>
      <trkpt lon="35.07745667360723" lat="31.80486638098955">
        <ele>578.4000244140625</ele>
        <time>2014-07-12T05:20:29.000Z</time>
      </trkpt>
      <trkpt lon="35.077592795714736" lat="31.804959420114756">
        <ele>580.0</ele>
        <time>2014-07-12T05:20:39.000Z</time>
      </trkpt>
      <trkpt lon="35.07769086398184" lat="31.805011807009578">
        <ele>581.2000122070312</ele>
        <time>2014-07-12T05:20:46.000Z</time>
      </trkpt>
      <trkpt lon="35.07770586758852" lat="31.80501390248537">
        <ele>581.4000244140625</ele>
        <time>2014-07-12T05:20:47.000Z</time>
      </trkpt>
      <trkpt lon="35.07772254757583" lat="31.80501298047602">
        <ele>581.4000244140625</ele>
        <time>2014-07-12T05:20:48.000Z</time>
      </trkpt>
      <trkpt lon="35.07787090726197" lat="31.804954474791884">
        <ele>581.5999755859375</ele>
        <time>2014-07-12T05:20:57.000Z</time>
      </trkpt>
      <trkpt lon="35.07799613289535" lat="31.804907200857997">
        <ele>582.2000122070312</ele>
        <time>2014-07-12T05:21:02.000Z</time>
      </trkpt>
      <trkpt lon="35.07813963107765" lat="31.80488138459623">
        <ele>583.0</ele>
        <time>2014-07-12T05:21:08.000Z</time>
      </trkpt>
      <trkpt lon="35.078312046825886" lat="31.804840732365847">
        <ele>585.5999755859375</ele>
        <time>2014-07-12T05:21:17.000Z</time>
      </trkpt>
      <trkpt lon="35.07838002406061" lat="31.804825477302074">
        <ele>586.5999755859375</ele>
        <time>2014-07-12T05:21:21.000Z</time>
      </trkpt>
      <trkpt lon="35.07852151058614" lat="31.804770827293396">
        <ele>589.2000122070312</ele>
        <time>2014-07-12T05:21:31.000Z</time>
      </trkpt>
      <trkpt lon="35.078663751482964" lat="31.80475934408605">
        <ele>590.7999877929688</ele>
        <time>2014-07-12T05:21:40.000Z</time>
      </trkpt>
      <trkpt lon="35.07879417389631" lat="31.804750710725784">
        <ele>592.0</ele>
        <time>2014-07-12T05:21:49.000Z</time>
      </trkpt>
      <trkpt lon="35.07889618165791" lat="31.804732605814934">
        <ele>593.2000122070312</ele>
        <time>2014-07-12T05:21:57.000Z</time>
      </trkpt>
      <trkpt lon="35.07893683388829" lat="31.804726319387555">
        <ele>593.5999755859375</ele>
        <time>2014-07-12T05:22:00.000Z</time>
      </trkpt>
      <trkpt lon="35.07900808006525" lat="31.80470947176218">
        <ele>594.5999755859375</ele>
        <time>2014-07-12T05:22:06.000Z</time>
      </trkpt>
      <trkpt lon="35.07904370315373" lat="31.80470888502896">
        <ele>595.0</ele>
        <time>2014-07-12T05:22:09.000Z</time>
      </trkpt>
      <trkpt lon="35.07905795238912" lat="31.804703855887055">
        <ele>595.2000122070312</ele>
        <time>2014-07-12T05:22:10.000Z</time>
      </trkpt>
      <trkpt lon="35.07919332012534" lat="31.804671669378877">
        <ele>597.0</ele>
        <time>2014-07-12T05:22:20.000Z</time>
      </trkpt>
      <trkpt lon="35.079320473596454" lat="31.804652474820614">
        <ele>598.4000244140625</ele>
        <time>2014-07-12T05:22:28.000Z</time>
      </trkpt>
      <trkpt lon="35.07937738671899" lat="31.804642751812935">
        <ele>598.7999877929688</ele>
        <time>2014-07-12T05:22:32.000Z</time>
      </trkpt>
      <trkpt lon="35.079416362568736" lat="31.804646691307425">
        <ele>598.7999877929688</ele>
        <time>2014-07-12T05:22:35.000Z</time>
      </trkpt>
      <trkpt lon="35.07942876778543" lat="31.804643841460347">
        <ele>598.7999877929688</ele>
        <time>2014-07-12T05:22:36.000Z</time>
      </trkpt>
      <trkpt lon="35.079481741413474" lat="31.80462003685534">
        <ele>598.7999877929688</ele>
        <time>2014-07-12T05:22:40.000Z</time>
      </trkpt>
      <trkpt lon="35.079498421400785" lat="31.80461961776018">
        <ele>598.7999877929688</ele>
        <time>2014-07-12T05:22:41.000Z</time>
      </trkpt>
      <trkpt lon="35.07951686158776" lat="31.804622383788228">
        <ele>598.7999877929688</ele>
        <time>2014-07-12T05:22:42.000Z</time>
      </trkpt>
      <trkpt lon="35.079716853797436" lat="31.804610984399915">
        <ele>600.0</ele>
        <time>2014-07-12T05:22:52.000Z</time>
      </trkpt>
      <trkpt lon="35.07996344938874" lat="31.8045995850116">
        <ele>602.5999755859375</ele>
        <time>2014-07-12T05:22:59.000Z</time>
      </trkpt>
      <trkpt lon="35.080156652256846" lat="31.804581144824624">
        <ele>604.5999755859375</ele>
        <time>2014-07-12T05:23:07.000Z</time>
      </trkpt>
      <trkpt lon="35.08029109798372" lat="31.804589442908764">
        <ele>604.5999755859375</ele>
        <time>2014-07-12T05:23:14.000Z</time>
      </trkpt>
      <trkpt lon="35.0804144795984" lat="31.80458676069975">
        <ele>604.5999755859375</ele>
        <time>2014-07-12T05:23:22.000Z</time>
      </trkpt>
      <trkpt lon="35.08044029586017" lat="31.804594974964857">
        <ele>604.7999877929688</ele>
        <time>2014-07-12T05:23:24.000Z</time>
      </trkpt>
      <trkpt lon="35.08062553592026" lat="31.80455105379224">
        <ele>606.2000122070312</ele>
        <time>2014-07-12T05:23:36.000Z</time>
      </trkpt>
      <trkpt lon="35.080757550895214" lat="31.804493218660355">
        <ele>607.2000122070312</ele>
        <time>2014-07-12T05:23:44.000Z</time>
      </trkpt>
      <trkpt lon="35.080957459285855" lat="31.804414177313447">
        <ele>608.4000244140625</ele>
        <time>2014-07-12T05:23:52.000Z</time>
      </trkpt>
      <trkpt lon="35.08109257556498" lat="31.804367657750845">
        <ele>609.2000122070312</ele>
        <time>2014-07-12T05:23:58.000Z</time>
      </trkpt>
      <trkpt lon="35.08111344650388" lat="31.804365310817957">
        <ele>609.2000122070312</ele>
        <time>2014-07-12T05:23:59.000Z</time>
      </trkpt>
      <trkpt lon="35.08116155862808" lat="31.804362377151847">
        <ele>609.5999755859375</ele>
        <time>2014-07-12T05:24:01.000Z</time>
      </trkpt>
      <trkpt lon="35.0813159532845" lat="31.804320719093084">
        <ele>610.4000244140625</ele>
        <time>2014-07-12T05:24:10.000Z</time>
      </trkpt>
      <trkpt lon="35.081445034593344" lat="31.804284173995256">
        <ele>611.5999755859375</ele>
        <time>2014-07-12T05:24:19.000Z</time>
      </trkpt>
      <trkpt lon="35.08157637901604" lat="31.804259112104774">
        <ele>611.7999877929688</ele>
        <time>2014-07-12T05:24:27.000Z</time>
      </trkpt>
      <trkpt lon="35.08176966570318" lat="31.80422466248274">
        <ele>611.5999755859375</ele>
        <time>2014-07-12T05:24:39.000Z</time>
      </trkpt>
      <trkpt lon="35.0818947236985" lat="31.804196666926146">
        <ele>611.5999755859375</ele>
        <time>2014-07-12T05:24:47.000Z</time>
      </trkpt>
      <trkpt lon="35.08203260600567" lat="31.80419247597456">
        <ele>611.5999755859375</ele>
        <time>2014-07-12T05:24:53.000Z</time>
      </trkpt>
      <trkpt lon="35.08226478472352" lat="31.804178897291422">
        <ele>612.4000244140625</ele>
        <time>2014-07-12T05:25:04.000Z</time>
      </trkpt>
      <trkpt lon="35.082394955679774" lat="31.804176717996597">
        <ele>612.7999877929688</ele>
        <time>2014-07-12T05:25:10.000Z</time>
      </trkpt>
      <trkpt lon="35.08259796537459" lat="31.8041695933789">
        <ele>613.5999755859375</ele>
        <time>2014-07-12T05:25:18.000Z</time>
      </trkpt>
      <trkpt lon="35.082761412486434" lat="31.80416079238057">
        <ele>614.0</ele>
        <time>2014-07-12T05:25:26.000Z</time>
      </trkpt>
      <trkpt lon="35.082985293120146" lat="31.804136149585247">
        <ele>614.5999755859375</ele>
        <time>2014-07-12T05:25:34.000Z</time>
      </trkpt>
      <trkpt lon="35.0831691082567" lat="31.804118044674397">
        <ele>615.4000244140625</ele>
        <time>2014-07-12T05:25:41.000Z</time>
      </trkpt>
      <trkpt lon="35.08335082791746" lat="31.804088037461042">
        <ele>616.2000122070312</ele>
        <time>2014-07-12T05:25:50.000Z</time>
      </trkpt>
      <trkpt lon="35.083550652489066" lat="31.804030956700444">
        <ele>617.0</ele>
        <time>2014-07-12T05:25:58.000Z</time>
      </trkpt>
      <trkpt lon="35.083627346903086" lat="31.804009163752198">
        <ele>618.0</ele>
        <time>2014-07-12T05:26:03.000Z</time>
      </trkpt>
      <trkpt lon="35.083640338853" lat="31.804002290591598">
        <ele>618.2000122070312</ele>
        <time>2014-07-12T05:26:04.000Z</time>
      </trkpt>
      <trkpt lon="35.08365576155484" lat="31.80399550125003">
        <ele>618.4000244140625</ele>
        <time>2014-07-12T05:26:05.000Z</time>
      </trkpt>
      <trkpt lon="35.083672692999244" lat="31.80398871190846">
        <ele>618.5999755859375</ele>
        <time>2014-07-12T05:26:06.000Z</time>
      </trkpt>
      <trkpt lon="35.083692809566855" lat="31.803982593119144">
        <ele>618.7999877929688</ele>
        <time>2014-07-12T05:26:07.000Z</time>
      </trkpt>
      <trkpt lon="35.08383865468204" lat="31.80394227616489">
        <ele>619.7999877929688</ele>
        <time>2014-07-12T05:26:15.000Z</time>
      </trkpt>
      <trkpt lon="35.08402188308537" lat="31.80392316542566">
        <ele>621.2000122070312</ele>
        <time>2014-07-12T05:26:23.000Z</time>
      </trkpt>
      <trkpt lon="35.084213828668" lat="31.803895672783256">
        <ele>622.7999877929688</ele>
        <time>2014-07-12T05:26:32.000Z</time>
      </trkpt>
      <trkpt lon="35.084423292428255" lat="31.80385342799127">
        <ele>624.4000244140625</ele>
        <time>2014-07-12T05:26:41.000Z</time>
      </trkpt>
      <trkpt lon="35.08466829545796" lat="31.803829288110137">
        <ele>625.2000122070312</ele>
        <time>2014-07-12T05:26:51.000Z</time>
      </trkpt>
      <trkpt lon="35.084801483899355" lat="31.803860804066062">
        <ele>625.7999877929688</ele>
        <time>2014-07-12T05:26:58.000Z</time>
      </trkpt>
      <trkpt lon="35.085002733394504" lat="31.803905898705125">
        <ele>627.0</ele>
        <time>2014-07-12T05:27:07.000Z</time>
      </trkpt>
      <trkpt lon="35.08520926348865" lat="31.803951496258378">
        <ele>628.2000122070312</ele>
        <time>2014-07-12T05:27:15.000Z</time>
      </trkpt>
      <trkpt lon="35.08534639142454" lat="31.80398477241397">
        <ele>628.7999877929688</ele>
        <time>2014-07-12T05:27:21.000Z</time>
      </trkpt>
      <trkpt lon="35.08549525402486" lat="31.804015953093767">
        <ele>629.7999877929688</ele>
        <time>2014-07-12T05:27:29.000Z</time>
      </trkpt>
      <trkpt lon="35.08568359538913" lat="31.804011510685086">
        <ele>632.4000244140625</ele>
        <time>2014-07-12T05:27:39.000Z</time>
      </trkpt>
      <trkpt lon="35.08585232309997" lat="31.8039745464921">
        <ele>634.5999755859375</ele>
        <time>2014-07-12T05:27:48.000Z</time>
      </trkpt>
      <trkpt lon="35.08599582128227" lat="31.8039364926517">
        <ele>636.4000244140625</ele>
        <time>2014-07-12T05:27:56.000Z</time>
      </trkpt>
      <trkpt lon="35.08616496808827" lat="31.80388863198459">
        <ele>638.0</ele>
        <time>2014-07-12T05:28:04.000Z</time>
      </trkpt>
      <trkpt lon="35.08633017539978" lat="31.80383917875588">
        <ele>638.5999755859375</ele>
        <time>2014-07-12T05:28:13.000Z</time>
      </trkpt>
      <trkpt lon="35.08643972687423" lat="31.803759215399623">
        <ele>639.4000244140625</ele>
        <time>2014-07-12T05:28:22.000Z</time>
      </trkpt>
      <trkpt lon="35.0865054409951" lat="31.803678581491113">
        <ele>639.4000244140625</ele>
        <time>2014-07-12T05:28:29.000Z</time>
      </trkpt>
      <trkpt lon="35.0865120626986" lat="31.803677827119827">
        <ele>639.5999755859375</ele>
        <time>2014-07-12T05:28:37.000Z</time>
      </trkpt>
      <trkpt lon="35.08653008379042" lat="31.803665086627007">
        <ele>639.5999755859375</ele>
        <time>2014-07-12T05:28:54.000Z</time>
      </trkpt>
      <trkpt lon="35.08650275878608" lat="31.80370238609612">
        <ele>639.5999755859375</ele>
        <time>2014-07-12T05:29:01.000Z</time>
      </trkpt>
      <trkpt lon="35.08648172020912" lat="31.80370573885739">
        <ele>639.4000244140625</ele>
        <time>2014-07-12T05:29:11.000Z</time>
      </trkpt>
      <trkpt lon="35.08649965748191" lat="31.80373214185238">
        <ele>640.0</ele>
        <time>2014-07-12T05:29:21.000Z</time>
      </trkpt>
      <trkpt lon="35.086507285013795" lat="31.803748235106468">
        <ele>640.2000122070312</ele>
        <time>2014-07-12T05:29:44.000Z</time>
      </trkpt>
      <trkpt lon="35.08650451898575" lat="31.803749492391944">
        <ele>640.2000122070312</ele>
        <time>2014-07-12T05:30:05.000Z</time>
      </trkpt>
      <trkpt lon="35.08650854229927" lat="31.80374932475388">
        <ele>640.2000122070312</ele>
        <time>2014-07-12T05:30:32.000Z</time>
      </trkpt>
      <trkpt lon="35.08651860058308" lat="31.80375963449478">
        <ele>640.5999755859375</ele>
        <time>2014-07-12T05:30:55.000Z</time>
      </trkpt>
      <trkpt lon="35.08651030249894" lat="31.80374873802066">
        <ele>640.2000122070312</ele>
        <time>2014-07-12T05:31:09.000Z</time>
      </trkpt>
      <trkpt lon="35.08650376461446" lat="31.80375711992383">
        <ele>640.2000122070312</ele>
        <time>2014-07-12T05:31:31.000Z</time>
      </trkpt>
      <trkpt lon="35.086493538692594" lat="31.803726945072412">
        <ele>639.7999877929688</ele>
        <time>2014-07-12T05:31:52.000Z</time>
      </trkpt>
      <trkpt lon="35.08646747097373" lat="31.803682688623667">
        <ele>639.0</ele>
        <time>2014-07-12T05:32:03.000Z</time>
      </trkpt>
      <trkpt lon="35.08645129390061" lat="31.803679168224335">
        <ele>638.5999755859375</ele>
        <time>2014-07-12T05:32:16.000Z</time>
      </trkpt>
      <trkpt lon="35.086487755179405" lat="31.80363499559462">
        <ele>638.7999877929688</ele>
        <time>2014-07-12T05:32:24.000Z</time>
      </trkpt>
      <trkpt lon="35.08650418370962" lat="31.803622590377927">
        <ele>638.7999877929688</ele>
        <time>2014-07-12T05:32:25.000Z</time>
      </trkpt>
      <trkpt lon="35.086523965001106" lat="31.803605742752552">
        <ele>639.0</ele>
        <time>2014-07-12T05:32:26.000Z</time>
      </trkpt>
      <trkpt lon="35.0865794532001" lat="31.803474398329854">
        <ele>637.7999877929688</ele>
        <time>2014-07-12T05:32:30.000Z</time>
      </trkpt>
      <trkpt lon="35.086563527584076" lat="31.80344154126942">
        <ele>637.2000122070312</ele>
        <time>2014-07-12T05:32:31.000Z</time>
      </trkpt>
      <trkpt lon="35.0865347776562" lat="31.803417233750224">
        <ele>636.5999755859375</ele>
        <time>2014-07-12T05:32:32.000Z</time>
      </trkpt>
      <trkpt lon="35.086506279185414" lat="31.803394937887788">
        <ele>636.0</ele>
        <time>2014-07-12T05:32:33.000Z</time>
      </trkpt>
      <trkpt lon="35.08648783899844" lat="31.803372809663415">
        <ele>635.4000244140625</ele>
        <time>2014-07-12T05:32:34.000Z</time>
      </trkpt>
      <trkpt lon="35.08648063056171" lat="31.803353196009994">
        <ele>635.0</ele>
        <time>2014-07-12T05:32:35.000Z</time>
      </trkpt>
      <trkpt lon="35.08647903800011" lat="31.803335342556238">
        <ele>634.5999755859375</ele>
        <time>2014-07-12T05:32:36.000Z</time>
      </trkpt>
      <trkpt lon="35.086479876190424" lat="31.80331740528345">
        <ele>634.4000244140625</ele>
        <time>2014-07-12T05:32:37.000Z</time>
      </trkpt>
      <trkpt lon="35.08648163639009" lat="31.80330030620098">
        <ele>634.0</ele>
        <time>2014-07-12T05:32:38.000Z</time>
      </trkpt>
      <trkpt lon="35.086519438773394" lat="31.803191425278783">
        <ele>633.2000122070312</ele>
        <time>2014-07-12T05:32:45.000Z</time>
      </trkpt>
      <trkpt lon="35.08659630082548" lat="31.803016243502498">
        <ele>636.0</ele>
        <time>2014-07-12T05:32:53.000Z</time>
      </trkpt>
      <trkpt lon="35.08666335605085" lat="31.8028658721596">
        <ele>638.5999755859375</ele>
        <time>2014-07-12T05:33:02.000Z</time>
      </trkpt>
      <trkpt lon="35.08670886978507" lat="31.80276327766478">
        <ele>639.4000244140625</ele>
        <time>2014-07-12T05:33:10.000Z</time>
      </trkpt>
      <trkpt lon="35.08676645345986" lat="31.802653558552265">
        <ele>639.5999755859375</ele>
        <time>2014-07-12T05:33:20.000Z</time>
      </trkpt>
      <trkpt lon="35.086800903081894" lat="31.802539229393005">
        <ele>639.5999755859375</ele>
        <time>2014-07-12T05:33:29.000Z</time>
      </trkpt>
      <trkpt lon="35.08683719672263" lat="31.802409728989005">
        <ele>639.7999877929688</ele>
        <time>2014-07-12T05:33:39.000Z</time>
      </trkpt>
      <trkpt lon="35.086891343817115" lat="31.80229179561138">
        <ele>641.5999755859375</ele>
        <time>2014-07-12T05:33:49.000Z</time>
      </trkpt>
      <trkpt lon="35.08696300908923" lat="31.802195655182004">
        <ele>642.7999877929688</ele>
        <time>2014-07-12T05:33:59.000Z</time>
      </trkpt>
      <trkpt lon="35.087024783715606" lat="31.8021182063967">
        <ele>643.4000244140625</ele>
        <time>2014-07-12T05:34:08.000Z</time>
      </trkpt>
      <trkpt lon="35.08703433908522" lat="31.802101442590356">
        <ele>643.5999755859375</ele>
        <time>2014-07-12T05:34:10.000Z</time>
      </trkpt>
      <trkpt lon="35.0870805233717" lat="31.80200639180839">
        <ele>644.5999755859375</ele>
        <time>2014-07-12T05:34:19.000Z</time>
      </trkpt>
      <trkpt lon="35.087104411795735" lat="31.801896672695875">
        <ele>646.0</ele>
        <time>2014-07-12T05:34:27.000Z</time>
      </trkpt>
      <trkpt lon="35.087135676294565" lat="31.801751162856817">
        <ele>648.2000122070312</ele>
        <time>2014-07-12T05:34:38.000Z</time>
      </trkpt>
      <trkpt lon="35.08714900352061" lat="31.801661644130945">
        <ele>649.5999755859375</ele>
        <time>2014-07-12T05:34:47.000Z</time>
      </trkpt>
      <trkpt lon="35.08710709400475" lat="31.801579920575023">
        <ele>650.5999755859375</ele>
        <time>2014-07-12T05:34:57.000Z</time>
      </trkpt>
      <trkpt lon="35.08706174790859" lat="31.801619231700897">
        <ele>650.4000244140625</ele>
        <time>2014-07-12T05:35:03.000Z</time>
      </trkpt>
      <trkpt lon="35.087064262479544" lat="31.8016364146024">
        <ele>650.0</ele>
        <time>2014-07-12T05:35:04.000Z</time>
      </trkpt>
      <trkpt lon="35.08706610649824" lat="31.80165644735098">
        <ele>649.7999877929688</ele>
        <time>2014-07-12T05:35:05.000Z</time>
      </trkpt>
      <trkpt lon="35.08706392720342" lat="31.801677402108908">
        <ele>649.4000244140625</ele>
        <time>2014-07-12T05:35:06.000Z</time>
      </trkpt>
      <trkpt lon="35.08705772459507" lat="31.801698775961995">
        <ele>649.2000122070312</ele>
        <time>2014-07-12T05:35:07.000Z</time>
      </trkpt>
      <trkpt lon="35.086957812309265" lat="31.80176549591124">
        <ele>649.0</ele>
        <time>2014-07-12T05:35:13.000Z</time>
      </trkpt>
      <trkpt lon="35.08690274320543" lat="31.801705565303564">
        <ele>650.4000244140625</ele>
        <time>2014-07-12T05:35:19.000Z</time>
      </trkpt>
      <trkpt lon="35.08691104128957" lat="31.801694501191378">
        <ele>650.4000244140625</ele>
        <time>2014-07-12T05:35:20.000Z</time>
      </trkpt>
      <trkpt lon="35.08696082979441" lat="31.801671953871846">
        <ele>650.4000244140625</ele>
        <time>2014-07-12T05:35:24.000Z</time>
      </trkpt>
      <trkpt lon="35.08697625249624" lat="31.801668517291546">
        <ele>650.4000244140625</ele>
        <time>2014-07-12T05:35:25.000Z</time>
      </trkpt>
      <trkpt lon="35.08699133992195" lat="31.801664577797055">
        <ele>650.2000122070312</ele>
        <time>2014-07-12T05:35:26.000Z</time>
      </trkpt>
      <trkpt lon="35.087111284956336" lat="31.80164965800941">
        <ele>649.5999755859375</ele>
        <time>2014-07-12T05:35:34.000Z</time>
      </trkpt>
      <trkpt lon="35.08712821640074" lat="31.801643036305904">
        <ele>649.7999877929688</ele>
        <time>2014-07-12T05:35:35.000Z</time>
      </trkpt>
      <trkpt lon="35.087145483121276" lat="31.801632223650813">
        <ele>650.0</ele>
        <time>2014-07-12T05:35:36.000Z</time>
      </trkpt>
      <trkpt lon="35.08715897798538" lat="31.80161990225315">
        <ele>650.2000122070312</ele>
        <time>2014-07-12T05:35:37.000Z</time>
      </trkpt>
      <trkpt lon="35.08716652169824" lat="31.801607748493552">
        <ele>650.4000244140625</ele>
        <time>2014-07-12T05:35:38.000Z</time>
      </trkpt>
      <trkpt lon="35.08716568350792" lat="31.80159551091492">
        <ele>650.4000244140625</ele>
        <time>2014-07-12T05:35:39.000Z</time>
      </trkpt>
      <trkpt lon="35.087159564718604" lat="31.80158318951726">
        <ele>650.5999755859375</ele>
        <time>2014-07-12T05:35:40.000Z</time>
      </trkpt>
      <trkpt lon="35.08714816533029" lat="31.80157237686217">
        <ele>650.5999755859375</ele>
        <time>2014-07-12T05:35:41.000Z</time>
      </trkpt>
      <trkpt lon="35.08713039569557" lat="31.801565503701568">
        <ele>650.7999877929688</ele>
        <time>2014-07-12T05:35:42.000Z</time>
      </trkpt>
      <trkpt lon="35.087111284956336" lat="31.80156852118671">
        <ele>650.7999877929688</ele>
        <time>2014-07-12T05:35:43.000Z</time>
      </trkpt>
      <trkpt lon="35.087098544463515" lat="31.80157874710858">
        <ele>650.5999755859375</ele>
        <time>2014-07-12T05:35:44.000Z</time>
      </trkpt>
      <trkpt lon="35.087086809799075" lat="31.801590733230114">
        <ele>650.5999755859375</ele>
        <time>2014-07-12T05:35:45.000Z</time>
      </trkpt>
      <trkpt lon="35.08707616478205" lat="31.80160380899906">
        <ele>650.4000244140625</ele>
        <time>2014-07-12T05:35:46.000Z</time>
      </trkpt>
      <trkpt lon="35.0870646815747" lat="31.801617555320263">
        <ele>650.4000244140625</ele>
        <time>2014-07-12T05:35:47.000Z</time>
      </trkpt>
      <trkpt lon="35.08705537766218" lat="31.80163398385048">
        <ele>650.2000122070312</ele>
        <time>2014-07-12T05:35:48.000Z</time>
      </trkpt>
      <trkpt lon="35.08704498410225" lat="31.80165267549455">
        <ele>650.0</ele>
        <time>2014-07-12T05:35:49.000Z</time>
      </trkpt>
      <trkpt lon="35.08703584782779" lat="31.801671450957656">
        <ele>649.7999877929688</ele>
        <time>2014-07-12T05:35:50.000Z</time>
      </trkpt>
      <trkpt lon="35.087028220295906" lat="31.80169173516333">
        <ele>649.5999755859375</ele>
        <time>2014-07-12T05:35:51.000Z</time>
      </trkpt>
      <trkpt lon="35.08702260442078" lat="31.801713025197387">
        <ele>649.2000122070312</ele>
        <time>2014-07-12T05:35:52.000Z</time>
      </trkpt>
      <trkpt lon="35.08701749145985" lat="31.80173414759338">
        <ele>649.0</ele>
        <time>2014-07-12T05:35:53.000Z</time>
      </trkpt>
      <trkpt lon="35.0870096962899" lat="31.801754012703896">
        <ele>648.7999877929688</ele>
        <time>2014-07-12T05:35:54.000Z</time>
      </trkpt>
      <trkpt lon="35.08687642402947" lat="31.801918633282185">
        <ele>647.5999755859375</ele>
        <time>2014-07-12T05:36:01.000Z</time>
      </trkpt>
      <trkpt lon="35.086722280830145" lat="31.802048971876502">
        <ele>646.7999877929688</ele>
        <time>2014-07-12T05:36:05.000Z</time>
      </trkpt>
      <trkpt lon="35.08630100637674" lat="31.802340997383">
        <ele>642.5999755859375</ele>
        <time>2014-07-12T05:36:13.000Z</time>
      </trkpt>
      <trkpt lon="35.08623101748526" lat="31.802368741482496">
        <ele>642.4000244140625</ele>
        <time>2014-07-12T05:36:14.000Z</time>
      </trkpt>
      <trkpt lon="35.08615708909929" lat="31.80238693021238">
        <ele>642.2000122070312</ele>
        <time>2014-07-12T05:36:15.000Z</time>
      </trkpt>
      <trkpt lon="35.08608014322817" lat="31.802392629906535">
        <ele>642.4000244140625</ele>
        <time>2014-07-12T05:36:16.000Z</time>
      </trkpt>
      <trkpt lon="35.08600814267993" lat="31.80238902568817">
        <ele>642.5999755859375</ele>
        <time>2014-07-12T05:36:17.000Z</time>
      </trkpt>
      <trkpt lon="35.08594519458711" lat="31.80238508619368">
        <ele>642.7999877929688</ele>
        <time>2014-07-12T05:36:18.000Z</time>
      </trkpt>
      <trkpt lon="35.0858854316175" lat="31.802386846393347">
        <ele>642.7999877929688</ele>
        <time>2014-07-12T05:36:19.000Z</time>
      </trkpt>
      <trkpt lon="35.08583027869463" lat="31.802394725382328">
        <ele>642.7999877929688</ele>
        <time>2014-07-12T05:36:20.000Z</time>
      </trkpt>
      <trkpt lon="35.08550346828997" lat="31.80250042118132">
        <ele>642.0</ele>
        <time>2014-07-12T05:36:27.000Z</time>
      </trkpt>
      <trkpt lon="35.08514187298715" lat="31.802595891058445">
        <ele>641.5999755859375</ele>
        <time>2014-07-12T05:36:33.000Z</time>
      </trkpt>
      <trkpt lon="35.08493844419718" lat="31.802618019282818">
        <ele>642.2000122070312</ele>
        <time>2014-07-12T05:36:36.000Z</time>
      </trkpt>
      <trkpt lon="35.08486761711538" lat="31.802625814452767">
        <ele>642.4000244140625</ele>
        <time>2014-07-12T05:36:37.000Z</time>
      </trkpt>
      <trkpt lon="35.084721269086" lat="31.802641404792666">
        <ele>642.2000122070312</ele>
        <time>2014-07-12T05:36:39.000Z</time>
      </trkpt>
      <trkpt lon="35.08464960381389" lat="31.8026362080127">
        <ele>642.2000122070312</ele>
        <time>2014-07-12T05:36:40.000Z</time>
      </trkpt>
      <trkpt lon="35.08452270179987" lat="31.80262204259634">
        <ele>642.5999755859375</ele>
        <time>2014-07-12T05:36:42.000Z</time>
      </trkpt>
      <trkpt lon="35.084464866667986" lat="31.802620282396674">
        <ele>642.5999755859375</ele>
        <time>2014-07-12T05:36:43.000Z</time>
      </trkpt>
      <trkpt lon="35.08429110981524" lat="31.802633022889495">
        <ele>642.4000244140625</ele>
        <time>2014-07-12T05:36:46.000Z</time>
      </trkpt>
      <trkpt lon="35.08395499549806" lat="31.802708376199007">
        <ele>640.5999755859375</ele>
        <time>2014-07-12T05:36:51.000Z</time>
      </trkpt>
      <trkpt lon="35.08387980982661" lat="31.802713992074132">
        <ele>640.4000244140625</ele>
        <time>2014-07-12T05:36:52.000Z</time>
      </trkpt>
      <trkpt lon="35.083304811269045" lat="31.802751626819372">
        <ele>638.5999755859375</ele>
        <time>2014-07-12T05:37:00.000Z</time>
      </trkpt>
      <trkpt lon="35.08324546739459" lat="31.80275732651353">
        <ele>638.4000244140625</ele>
        <time>2014-07-12T05:37:01.000Z</time>
      </trkpt>
      <trkpt lon="35.08318687789142" lat="31.802759086713195">
        <ele>638.4000244140625</ele>
        <time>2014-07-12T05:37:02.000Z</time>
      </trkpt>
      <trkpt lon="35.083134323358536" lat="31.80275590158999">
        <ele>638.4000244140625</ele>
        <time>2014-07-12T05:37:03.000Z</time>
      </trkpt>
      <trkpt lon="35.08308604359627" lat="31.802750285714865">
        <ele>638.5999755859375</ele>
        <time>2014-07-12T05:37:04.000Z</time>
      </trkpt>
      <trkpt lon="35.083041870966554" lat="31.802748441696167">
        <ele>638.5999755859375</ele>
        <time>2014-07-12T05:37:05.000Z</time>
      </trkpt>
      <trkpt lon="35.08299853652716" lat="31.8027501180768">
        <ele>638.5999755859375</ele>
        <time>2014-07-12T05:37:06.000Z</time>
      </trkpt>
      <trkpt lon="35.082957381382585" lat="31.80275598540902">
        <ele>638.4000244140625</ele>
        <time>2014-07-12T05:37:07.000Z</time>
      </trkpt>
      <trkpt lon="35.08291790261865" lat="31.802762942388654">
        <ele>638.2000122070312</ele>
        <time>2014-07-12T05:37:08.000Z</time>
      </trkpt>
      <trkpt lon="35.08269670419395" lat="31.80275682359934">
        <ele>638.2000122070312</ele>
        <time>2014-07-12T05:37:14.000Z</time>
      </trkpt>
      <trkpt lon="35.08255446329713" lat="31.802733354270458">
        <ele>638.4000244140625</ele>
        <time>2014-07-12T05:37:21.000Z</time>
      </trkpt>
      <trkpt lon="35.08230920881033" lat="31.802775850519538">
        <ele>637.2000122070312</ele>
        <time>2014-07-12T05:37:29.000Z</time>
      </trkpt>
      <trkpt lon="35.08208055049181" lat="31.80276772007346">
        <ele>637.2000122070312</ele>
        <time>2014-07-12T05:37:36.000Z</time>
      </trkpt>
      <trkpt lon="35.08206328377128" lat="31.802763110026717">
        <ele>637.2000122070312</ele>
        <time>2014-07-12T05:37:41.000Z</time>
      </trkpt>
      <trkpt lon="35.082052471116185" lat="31.8027709890157">
        <ele>637.0</ele>
        <time>2014-07-12T05:37:48.000Z</time>
      </trkpt>
      <trkpt lon="35.08206554688513" lat="31.802787082269788">
        <ele>636.5999755859375</ele>
        <time>2014-07-12T05:37:56.000Z</time>
      </trkpt>
      <trkpt lon="35.0820620264858" lat="31.80279211141169">
        <ele>636.5999755859375</ele>
        <time>2014-07-12T05:38:16.000Z</time>
      </trkpt>
      <trkpt lon="35.082068648189306" lat="31.802800241857767">
        <ele>636.4000244140625</ele>
        <time>2014-07-12T05:38:36.000Z</time>
      </trkpt>
      <trkpt lon="35.08207216858864" lat="31.802805103361607">
        <ele>636.4000244140625</ele>
        <time>2014-07-12T05:38:59.000Z</time>
      </trkpt>
      <trkpt lon="35.082069067284465" lat="31.802794374525547">
        <ele>636.5999755859375</ele>
        <time>2014-07-12T05:39:19.000Z</time>
      </trkpt>
      <trkpt lon="35.08206160739064" lat="31.802797811105847">
        <ele>636.4000244140625</ele>
        <time>2014-07-12T05:39:36.000Z</time>
      </trkpt>
      <trkpt lon="35.08205716498196" lat="31.802807869389653">
        <ele>636.2000122070312</ele>
        <time>2014-07-12T05:40:03.000Z</time>
      </trkpt>
      <trkpt lon="35.082059260457754" lat="31.802807534113526">
        <ele>636.2000122070312</ele>
        <time>2014-07-12T05:40:27.000Z</time>
      </trkpt>
      <trkpt lon="35.0820342823863" lat="31.802796386182308">
        <ele>636.4000244140625</ele>
        <time>2014-07-12T05:40:44.000Z</time>
      </trkpt>
      <trkpt lon="35.08201701566577" lat="31.802760595455766">
        <ele>637.2000122070312</ele>
        <time>2014-07-12T05:40:59.000Z</time>
      </trkpt>
      <trkpt lon="35.0820033531636" lat="31.802762942388654">
        <ele>637.0</ele>
        <time>2014-07-12T05:41:09.000Z</time>
      </trkpt>
      <trkpt lon="35.08194535039365" lat="31.802751794457436">
        <ele>637.2000122070312</ele>
        <time>2014-07-12T05:41:22.000Z</time>
      </trkpt>
      <trkpt lon="35.081778382882476" lat="31.802762607112527">
        <ele>636.5999755859375</ele>
        <time>2014-07-12T05:41:29.000Z</time>
      </trkpt>
      <trkpt lon="35.08153044618666" lat="31.802690690383315">
        <ele>637.4000244140625</ele>
        <time>2014-07-12T05:41:37.000Z</time>
      </trkpt>
      <trkpt lon="35.081447968259454" lat="31.80259907618165">
        <ele>639.2000122070312</ele>
        <time>2014-07-12T05:41:44.000Z</time>
      </trkpt>
      <trkpt lon="35.08136046119034" lat="31.80244266986847">
        <ele>642.0</ele>
        <time>2014-07-12T05:41:54.000Z</time>
      </trkpt>
      <trkpt lon="35.081307319924235" lat="31.802285173907876">
        <ele>643.4000244140625</ele>
        <time>2014-07-12T05:42:04.000Z</time>
      </trkpt>
      <trkpt lon="35.08117555640638" lat="31.802138574421406">
        <ele>643.5999755859375</ele>
        <time>2014-07-12T05:42:14.000Z</time>
      </trkpt>
      <trkpt lon="35.081049827858806" lat="31.802055593580008">
        <ele>643.4000244140625</ele>
        <time>2014-07-12T05:42:21.000Z</time>
      </trkpt>
      <trkpt lon="35.0810416135937" lat="31.802038410678506">
        <ele>643.4000244140625</ele>
        <time>2014-07-12T05:42:22.000Z</time>
      </trkpt>
      <trkpt lon="35.08104035630822" lat="31.802021898329258">
        <ele>643.4000244140625</ele>
        <time>2014-07-12T05:42:23.000Z</time>
      </trkpt>
      <trkpt lon="35.08102954365313" lat="31.801904551684856">
        <ele>643.7999877929688</ele>
        <time>2014-07-12T05:42:29.000Z</time>
      </trkpt>
      <trkpt lon="35.08088529109955" lat="31.801805645227432">
        <ele>643.7999877929688</ele>
        <time>2014-07-12T05:42:35.000Z</time>
      </trkpt>
      <trkpt lon="35.08084514178336" lat="31.80179726332426">
        <ele>643.5999755859375</ele>
        <time>2014-07-12T05:42:36.000Z</time>
      </trkpt>
      <trkpt lon="35.08080800995231" lat="31.801787707954645">
        <ele>643.5999755859375</ele>
        <time>2014-07-12T05:42:37.000Z</time>
      </trkpt>
      <trkpt lon="35.08062704466283" lat="31.801668517291546">
        <ele>643.2000122070312</ele>
        <time>2014-07-12T05:42:43.000Z</time>
      </trkpt>
      <trkpt lon="35.080560157075524" lat="31.801478248089552">
        <ele>643.0</ele>
        <time>2014-07-12T05:42:50.000Z</time>
      </trkpt>
      <trkpt lon="35.080468291416764" lat="31.801285380497575">
        <ele>641.5999755859375</ele>
        <time>2014-07-12T05:42:57.000Z</time>
      </trkpt>
      <trkpt lon="35.08044666610658" lat="31.80127004161477">
        <ele>641.4000244140625</ele>
        <time>2014-07-12T05:43:03.000Z</time>
      </trkpt>
      <trkpt lon="35.08042545989156" lat="31.801285045221448">
        <ele>641.4000244140625</ele>
        <time>2014-07-12T05:43:13.000Z</time>
      </trkpt>
      <trkpt lon="35.080447755753994" lat="31.801305580884218">
        <ele>641.5999755859375</ele>
        <time>2014-07-12T05:43:20.000Z</time>
      </trkpt>
      <trkpt lon="35.0804559700191" lat="31.80131396278739">
        <ele>641.5999755859375</ele>
        <time>2014-07-12T05:43:22.000Z</time>
      </trkpt>
      <trkpt lon="35.08053408935666" lat="31.801418233662844">
        <ele>642.5999755859375</ele>
        <time>2014-07-12T05:43:30.000Z</time>
      </trkpt>
      <trkpt lon="35.080591505393386" lat="31.801578663289547">
        <ele>643.4000244140625</ele>
        <time>2014-07-12T05:43:38.000Z</time>
      </trkpt>
      <trkpt lon="35.080480528995395" lat="31.80157531052828">
        <ele>643.0</ele>
        <time>2014-07-12T05:43:46.000Z</time>
      </trkpt>
      <trkpt lon="35.080483462661505" lat="31.80154513567686">
        <ele>643.2000122070312</ele>
        <time>2014-07-12T05:43:48.000Z</time>
      </trkpt>
      <trkpt lon="35.080476673319936" lat="31.80145226418972">
        <ele>642.5999755859375</ele>
        <time>2014-07-12T05:43:54.000Z</time>
      </trkpt>
      <trkpt lon="35.080384807661176" lat="31.801385460421443">
        <ele>642.0</ele>
        <time>2014-07-12T05:44:02.000Z</time>
      </trkpt>
      <trkpt lon="35.08034792728722" lat="31.801379006356">
        <ele>641.7999877929688</ele>
        <time>2014-07-12T05:44:09.000Z</time>
      </trkpt>
      <trkpt lon="35.080323703587055" lat="31.801318991929293">
        <ele>641.4000244140625</ele>
        <time>2014-07-12T05:44:16.000Z</time>
      </trkpt>
      <trkpt lon="35.08029252290726" lat="31.80125973187387">
        <ele>641.0</ele>
        <time>2014-07-12T05:44:25.000Z</time>
      </trkpt>
      <trkpt lon="35.08026788011193" lat="31.80124808102846">
        <ele>641.0</ele>
        <time>2014-07-12T05:44:33.000Z</time>
      </trkpt>
      <trkpt lon="35.080266036093235" lat="31.801259480416775">
        <ele>641.0</ele>
        <time>2014-07-12T05:44:46.000Z</time>
      </trkpt>
      <trkpt lon="35.08025069721043" lat="31.80122897028923">
        <ele>640.7999877929688</ele>
        <time>2014-07-12T05:45:00.000Z</time>
      </trkpt>
      <trkpt lon="35.08024223148823" lat="31.801216062158346">
        <ele>640.7999877929688</ele>
        <time>2014-07-12T05:45:06.000Z</time>
      </trkpt>
      <trkpt lon="35.08024885319173" lat="31.80121178738773">
        <ele>640.7999877929688</ele>
        <time>2014-07-12T05:45:07.000Z</time>
      </trkpt>
      <trkpt lon="35.080292355269194" lat="31.801192928105593">
        <ele>640.5999755859375</ele>
        <time>2014-07-12T05:45:12.000Z</time>
      </trkpt>
      <trkpt lon="35.08030819706619" lat="31.801186306402087">
        <ele>640.5999755859375</ele>
        <time>2014-07-12T05:45:18.000Z</time>
      </trkpt>
      <trkpt lon="35.08030392229557" lat="31.80120600387454">
        <ele>640.7999877929688</ele>
        <time>2014-07-12T05:45:30.000Z</time>
      </trkpt>
      <trkpt lon="35.08030258119106" lat="31.801210781559348">
        <ele>640.7999877929688</ele>
        <time>2014-07-12T05:45:48.000Z</time>
      </trkpt>
      <trkpt lon="35.08027743548155" lat="31.80119376629591">
        <ele>640.5999755859375</ele>
        <time>2014-07-12T05:46:00.000Z</time>
      </trkpt>
      <trkpt lon="35.08026100695133" lat="31.801174404099584">
        <ele>640.5999755859375</ele>
        <time>2014-07-12T05:46:11.000Z</time>
      </trkpt>
      <trkpt lon="35.08024918846786" lat="31.80118639022112">
        <ele>640.5999755859375</ele>
        <time>2014-07-12T05:46:22.000Z</time>
      </trkpt>
      <trkpt lon="35.0802265573293" lat="31.80119326338172">
        <ele>640.5999755859375</ele>
        <time>2014-07-12T05:46:24.000Z</time>
      </trkpt>
      <trkpt lon="35.08001323789358" lat="31.801213128492236">
        <ele>640.5999755859375</ele>
        <time>2014-07-12T05:46:30.000Z</time>
      </trkpt>
      <trkpt lon="35.07991927675903" lat="31.801195945590734">
        <ele>640.4000244140625</ele>
        <time>2014-07-12T05:46:32.000Z</time>
      </trkpt>
      <trkpt lon="35.07987527176738" lat="31.801171638071537">
        <ele>640.2000122070312</ele>
        <time>2014-07-12T05:46:33.000Z</time>
      </trkpt>
      <trkpt lon="35.07983193732798" lat="31.8011390324682">
        <ele>640.0</ele>
        <time>2014-07-12T05:46:34.000Z</time>
      </trkpt>
      <trkpt lon="35.0797912850976" lat="31.801101565361023">
        <ele>639.7999877929688</ele>
        <time>2014-07-12T05:46:35.000Z</time>
      </trkpt>
      <trkpt lon="35.07974543608725" lat="31.80106619372964">
        <ele>639.5999755859375</ele>
        <time>2014-07-12T05:46:36.000Z</time>
      </trkpt>
      <trkpt lon="35.079694390296936" lat="31.80103794671595">
        <ele>639.4000244140625</ele>
        <time>2014-07-12T05:46:37.000Z</time>
      </trkpt>
      <trkpt lon="35.079573690891266" lat="31.8010008148849">
        <ele>639.0</ele>
        <time>2014-07-12T05:46:39.000Z</time>
      </trkpt>
      <trkpt lon="35.079168509691954" lat="31.80093141272664">
        <ele>638.0</ele>
        <time>2014-07-12T05:46:45.000Z</time>
      </trkpt>
      <trkpt lon="35.07860784418881" lat="31.800894113257527">
        <ele>635.5999755859375</ele>
        <time>2014-07-12T05:46:52.000Z</time>
      </trkpt>
      <trkpt lon="35.07790409959853" lat="31.800864273682237">
        <ele>629.4000244140625</ele>
        <time>2014-07-12T05:46:59.000Z</time>
      </trkpt>
      <trkpt lon="35.077157439664006" lat="31.800878271460533">
        <ele>618.7999877929688</ele>
        <time>2014-07-12T05:47:05.000Z</time>
      </trkpt>
      <trkpt lon="35.07680816575885" lat="31.800925629213452">
        <ele>613.5999755859375</ele>
        <time>2014-07-12T05:47:08.000Z</time>
      </trkpt>
      <trkpt lon="35.076729878783226" lat="31.80095094256103">
        <ele>612.5999755859375</ele>
        <time>2014-07-12T05:47:09.000Z</time>
      </trkpt>
      <trkpt lon="35.07666600868106" lat="31.800985895097256">
        <ele>611.7999877929688</ele>
        <time>2014-07-12T05:47:10.000Z</time>
      </trkpt>
      <trkpt lon="35.076613035053015" lat="31.801029313355684">
        <ele>611.2000122070312</ele>
        <time>2014-07-12T05:47:11.000Z</time>
      </trkpt>
      <trkpt lon="35.076565677300096" lat="31.801063930615783">
        <ele>610.5999755859375</ele>
        <time>2014-07-12T05:47:12.000Z</time>
      </trkpt>
      <trkpt lon="35.07651882246137" lat="31.801086142659187">
        <ele>610.0</ele>
        <time>2014-07-12T05:47:13.000Z</time>
      </trkpt>
      <trkpt lon="35.07647356018424" lat="31.801089914515615">
        <ele>609.4000244140625</ele>
        <time>2014-07-12T05:47:14.000Z</time>
      </trkpt>
      <trkpt lon="35.076427794992924" lat="31.801079604774714">
        <ele>608.5999755859375</ele>
        <time>2014-07-12T05:47:15.000Z</time>
      </trkpt>
      <trkpt lon="35.07639200426638" lat="31.801044568419456">
        <ele>607.7999877929688</ele>
        <time>2014-07-12T05:47:16.000Z</time>
      </trkpt>
      <trkpt lon="35.07636317051947" lat="31.8009992223233">
        <ele>607.0</ele>
        <time>2014-07-12T05:47:17.000Z</time>
      </trkpt>
      <trkpt lon="35.07634749636054" lat="31.800949601456523">
        <ele>606.2000122070312</ele>
        <time>2014-07-12T05:47:18.000Z</time>
      </trkpt>
      <trkpt lon="35.07635512389243" lat="31.80090492591262">
        <ele>606.0</ele>
        <time>2014-07-12T05:47:19.000Z</time>
      </trkpt>
      <trkpt lon="35.07637574337423" lat="31.80087282322347">
        <ele>606.0</ele>
        <time>2014-07-12T05:47:20.000Z</time>
      </trkpt>
      <trkpt lon="35.07638948969543" lat="31.800842648372054">
        <ele>606.0</ele>
        <time>2014-07-12T05:47:21.000Z</time>
      </trkpt>
      <trkpt lon="35.076394602656364" lat="31.80080970749259">
        <ele>605.7999877929688</ele>
        <time>2014-07-12T05:47:22.000Z</time>
      </trkpt>
      <trkpt lon="35.07639242336154" lat="31.80077542550862">
        <ele>605.5999755859375</ele>
        <time>2014-07-12T05:47:23.000Z</time>
      </trkpt>
      <trkpt lon="35.07638270035386" lat="31.80074038915336">
        <ele>605.2000122070312</ele>
        <time>2014-07-12T05:47:24.000Z</time>
      </trkpt>
      <trkpt lon="35.07636711001396" lat="31.80070317350328">
        <ele>605.0</ele>
        <time>2014-07-12T05:47:25.000Z</time>
      </trkpt>
      <trkpt lon="35.07634732872248" lat="31.800662772729993">
        <ele>605.2000122070312</ele>
        <time>2014-07-12T05:47:26.000Z</time>
      </trkpt>
      <trkpt lon="35.07581105455756" lat="31.79950841702521">
        <ele>614.7999877929688</ele>
        <time>2014-07-12T05:47:49.000Z</time>
      </trkpt>
      <trkpt lon="35.07568390108645" lat="31.799285961315036">
        <ele>615.4000244140625</ele>
        <time>2014-07-12T05:47:58.000Z</time>
      </trkpt>
      <trkpt lon="35.075573762878776" lat="31.799065181985497">
        <ele>615.5999755859375</ele>
        <time>2014-07-12T05:48:08.000Z</time>
      </trkpt>
      <trkpt lon="35.07550687529147" lat="31.798853455111384">
        <ele>616.5999755859375</ele>
        <time>2014-07-12T05:48:18.000Z</time>
      </trkpt>
      <trkpt lon="35.07546295411885" lat="31.798670142889023">
        <ele>617.4000244140625</ele>
        <time>2014-07-12T05:48:27.000Z</time>
      </trkpt>
      <trkpt lon="35.075448621064425" lat="31.798487836495042">
        <ele>618.4000244140625</ele>
        <time>2014-07-12T05:48:36.000Z</time>
      </trkpt>
      <trkpt lon="35.07540771737695" lat="31.798296561464667">
        <ele>619.7999877929688</ele>
        <time>2014-07-12T05:48:44.000Z</time>
      </trkpt>
      <trkpt lon="35.075401682406664" lat="31.798187512904406">
        <ele>620.2000122070312</ele>
        <time>2014-07-12T05:48:50.000Z</time>
      </trkpt>
      <trkpt lon="35.07545708678663" lat="31.798024233430624">
        <ele>619.5999755859375</ele>
        <time>2014-07-12T05:48:58.000Z</time>
      </trkpt>
      <trkpt lon="35.075610810890794" lat="31.797927170991898">
        <ele>618.4000244140625</ele>
        <time>2014-07-12T05:49:07.000Z</time>
      </trkpt>
      <trkpt lon="35.075845923274755" lat="31.797896828502417">
        <ele>616.5999755859375</ele>
        <time>2014-07-12T05:49:17.000Z</time>
      </trkpt>
      <trkpt lon="35.075891772285104" lat="31.79791652597487">
        <ele>616.4000244140625</ele>
        <time>2014-07-12T05:49:19.000Z</time>
      </trkpt>
      <trkpt lon="35.07590669207275" lat="31.79793756455183">
        <ele>616.2000122070312</ele>
        <time>2014-07-12T05:49:20.000Z</time>
      </trkpt>
      <trkpt lon="35.07602806203067" lat="31.79811450652778">
        <ele>615.5999755859375</ele>
        <time>2014-07-12T05:49:28.000Z</time>
      </trkpt>
      <trkpt lon="35.07610525935888" lat="31.798304188996553">
        <ele>615.5999755859375</ele>
        <time>2014-07-12T05:49:36.000Z</time>
      </trkpt>
      <trkpt lon="35.07609696127474" lat="31.798379123210907">
        <ele>616.2000122070312</ele>
        <time>2014-07-12T05:49:39.000Z</time>
      </trkpt>
      <trkpt lon="35.07608179003" lat="31.798396222293377">
        <ele>616.4000244140625</ele>
        <time>2014-07-12T05:49:40.000Z</time>
      </trkpt>
      <trkpt lon="35.07606712169945" lat="31.79841147735715">
        <ele>616.5999755859375</ele>
        <time>2014-07-12T05:49:41.000Z</time>
      </trkpt>
      <trkpt lon="35.07605027407408" lat="31.798424301669">
        <ele>616.7999877929688</ele>
        <time>2014-07-12T05:49:42.000Z</time>
      </trkpt>
      <trkpt lon="35.07603124715388" lat="31.798436623066664">
        <ele>617.0</ele>
        <time>2014-07-12T05:49:43.000Z</time>
      </trkpt>
      <trkpt lon="35.07588615640998" lat="31.798519184812903">
        <ele>618.5999755859375</ele>
        <time>2014-07-12T05:49:51.000Z</time>
      </trkpt>
      <trkpt lon="35.07577593438327" lat="31.798616582527757">
        <ele>619.2000122070312</ele>
        <time>2014-07-12T05:50:00.000Z</time>
      </trkpt>
      <trkpt lon="35.0757363718003" lat="31.798656899482012">
        <ele>618.7999877929688</ele>
        <time>2014-07-12T05:50:07.000Z</time>
      </trkpt>
      <trkpt lon="35.07574408315122" lat="31.79867886006832">
        <ele>618.7999877929688</ele>
        <time>2014-07-12T05:50:17.000Z</time>
      </trkpt>
      <trkpt lon="35.07572832517326" lat="31.798717165365815">
        <ele>618.4000244140625</ele>
        <time>2014-07-12T05:50:27.000Z</time>
      </trkpt>
      <trkpt lon="35.075734527781606" lat="31.79874373599887">
        <ele>618.4000244140625</ele>
        <time>2014-07-12T05:50:36.000Z</time>
      </trkpt>
      <trkpt lon="35.075743328779936" lat="31.798758069053292">
        <ele>618.2000122070312</ele>
        <time>2014-07-12T05:50:48.000Z</time>
      </trkpt>
      <trkpt lon="35.07575087249279" lat="31.798763517290354">
        <ele>618.2000122070312</ele>
        <time>2014-07-12T05:51:09.000Z</time>
      </trkpt>
      <trkpt lon="35.075743831694126" lat="31.798767456784844">
        <ele>618.2000122070312</ele>
        <time>2014-07-12T05:51:26.000Z</time>
      </trkpt>
      <trkpt lon="35.07572874426842" lat="31.79880442097783">
        <ele>618.0</ele>
        <time>2014-07-12T05:51:52.000Z</time>
      </trkpt>
      <trkpt lon="35.07573285140097" lat="31.798818837851286">
        <ele>617.7999877929688</ele>
        <time>2014-07-12T05:52:13.000Z</time>
      </trkpt>
      <trkpt lon="35.07572438567877" lat="31.79881858639419">
        <ele>617.7999877929688</ele>
        <time>2014-07-12T05:52:33.000Z</time>
      </trkpt>
      <trkpt lon="35.075725726783276" lat="31.798810539767146">
        <ele>617.7999877929688</ele>
        <time>2014-07-12T05:52:52.000Z</time>
      </trkpt>
      <trkpt lon="35.0757297500968" lat="31.798783633857965">
        <ele>618.0</ele>
        <time>2014-07-12T05:53:12.000Z</time>
      </trkpt>
      <trkpt lon="35.07573385722935" lat="31.798761589452624">
        <ele>618.2000122070312</ele>
        <time>2014-07-12T05:53:30.000Z</time>
      </trkpt>
      <trkpt lon="35.075733521953225" lat="31.798770390450954">
        <ele>618.2000122070312</ele>
        <time>2014-07-12T05:53:51.000Z</time>
      </trkpt>
      <trkpt lon="35.075756488367915" lat="31.79878732189536">
        <ele>618.2000122070312</ele>
        <time>2014-07-12T05:54:15.000Z</time>
      </trkpt>
      <trkpt lon="35.07576026022434" lat="31.798798721283674">
        <ele>618.0</ele>
        <time>2014-07-12T05:54:42.000Z</time>
      </trkpt>
      <trkpt lon="35.0757556501776" lat="31.79879360832274">
        <ele>618.2000122070312</ele>
        <time>2014-07-12T05:55:02.000Z</time>
      </trkpt>
      <trkpt lon="35.075745256617665" lat="31.798733845353127">
        <ele>618.4000244140625</ele>
        <time>2014-07-12T05:55:21.000Z</time>
      </trkpt>
      <trkpt lon="35.07574207149446" lat="31.798752453178167">
        <ele>618.2000122070312</ele>
        <time>2014-07-12T05:55:39.000Z</time>
      </trkpt>
      <trkpt lon="35.075736874714494" lat="31.798771396279335">
        <ele>618.2000122070312</ele>
        <time>2014-07-12T05:56:03.000Z</time>
      </trkpt>
      <trkpt lon="35.07574173621833" lat="31.7987818736583">
        <ele>618.2000122070312</ele>
        <time>2014-07-12T05:56:15.000Z</time>
      </trkpt>
      <trkpt lon="35.07572480477393" lat="31.798768881708384">
        <ele>618.2000122070312</ele>
        <time>2014-07-12T05:56:30.000Z</time>
      </trkpt>
      <trkpt lon="35.07572539150715" lat="31.7987765930593">
        <ele>618.0</ele>
        <time>2014-07-12T05:56:51.000Z</time>
      </trkpt>
      <trkpt lon="35.07572899572551" lat="31.798786399886012">
        <ele>618.0</ele>
        <time>2014-07-12T05:57:12.000Z</time>
      </trkpt>
      <trkpt lon="35.075722290202975" lat="31.79879712872207">
        <ele>618.0</ele>
        <time>2014-07-12T05:57:31.000Z</time>
      </trkpt>
      <trkpt lon="35.07571700960398" lat="31.79881372489035">
        <ele>617.7999877929688</ele>
        <time>2014-07-12T05:57:50.000Z</time>
      </trkpt>
      <trkpt lon="35.07573327049613" lat="31.798826968297362">
        <ele>617.7999877929688</ele>
        <time>2014-07-12T05:58:04.000Z</time>
      </trkpt>
      <trkpt lon="35.075743244960904" lat="31.798803163692355">
        <ele>618.0</ele>
        <time>2014-07-12T05:58:26.000Z</time>
      </trkpt>
      <trkpt lon="35.075732097029686" lat="31.798779359087348">
        <ele>618.0</ele>
        <time>2014-07-12T05:58:43.000Z</time>
      </trkpt>
      <trkpt lon="35.075743496418" lat="31.79879947565496">
        <ele>618.0</ele>
        <time>2014-07-12T05:58:57.000Z</time>
      </trkpt>
      <trkpt lon="35.075763361528516" lat="31.798808863386512">
        <ele>618.0</ele>
        <time>2014-07-12T05:59:21.000Z</time>
      </trkpt>
      <trkpt lon="35.07575003430247" lat="31.798812802881002">
        <ele>618.0</ele>
        <time>2014-07-12T05:59:42.000Z</time>
      </trkpt>
      <trkpt lon="35.0757297500968" lat="31.7988336738199">
        <ele>617.7999877929688</ele>
        <time>2014-07-12T06:00:03.000Z</time>
      </trkpt>
      <trkpt lon="35.07573561742902" lat="31.798847671598196">
        <ele>617.5999755859375</ele>
        <time>2014-07-12T06:00:25.000Z</time>
      </trkpt>
      <trkpt lon="35.07574207149446" lat="31.798829566687346">
        <ele>617.7999877929688</ele>
        <time>2014-07-12T06:00:41.000Z</time>
      </trkpt>
      <trkpt lon="35.07575665600598" lat="31.79879947565496">
        <ele>618.0</ele>
        <time>2014-07-12T06:01:07.000Z</time>
      </trkpt>
      <trkpt lon="35.07575782947242" lat="31.798770977184176">
        <ele>618.2000122070312</ele>
        <time>2014-07-12T06:01:27.000Z</time>
      </trkpt>
      <trkpt lon="35.07575313560665" lat="31.798775922507048">
        <ele>618.2000122070312</ele>
        <time>2014-07-12T06:01:51.000Z</time>
      </trkpt>
      <trkpt lon="35.07575472816825" lat="31.798759158700705">
        <ele>618.4000244140625</ele>
        <time>2014-07-12T06:02:07.000Z</time>
      </trkpt>
      <trkpt lon="35.07575388997793" lat="31.79876033216715">
        <ele>618.2000122070312</ele>
        <time>2014-07-12T06:02:29.000Z</time>
      </trkpt>
      <trkpt lon="35.075764367356896" lat="31.79879168048501">
        <ele>618.2000122070312</ele>
        <time>2014-07-12T06:02:55.000Z</time>
      </trkpt>
      <trkpt lon="35.075771156698465" lat="31.798760583624244">
        <ele>618.4000244140625</ele>
        <time>2014-07-12T06:03:15.000Z</time>
      </trkpt>
      <trkpt lon="35.07578163407743" lat="31.798723032698035">
        <ele>618.5999755859375</ele>
        <time>2014-07-12T06:03:38.000Z</time>
      </trkpt>
      <trkpt lon="35.075748190283775" lat="31.79869352839887">
        <ele>618.5999755859375</ele>
        <time>2014-07-12T06:04:02.000Z</time>
      </trkpt>
      <trkpt lon="35.07573511451483" lat="31.798727475106716">
        <ele>618.4000244140625</ele>
        <time>2014-07-12T06:04:20.000Z</time>
      </trkpt>
      <trkpt lon="35.075725726783276" lat="31.798748513683677">
        <ele>618.2000122070312</ele>
        <time>2014-07-12T06:04:40.000Z</time>
      </trkpt>
      <trkpt lon="35.07574148476124" lat="31.798761254176497">
        <ele>618.2000122070312</ele>
        <time>2014-07-12T06:05:03.000Z</time>
      </trkpt>
      <trkpt lon="35.07575347088277" lat="31.798776173964143">
        <ele>618.2000122070312</ele>
        <time>2014-07-12T06:05:15.000Z</time>
      </trkpt>
      <trkpt lon="35.075749615207314" lat="31.798782041296363">
        <ele>618.2000122070312</ele>
        <time>2014-07-12T06:05:38.000Z</time>
      </trkpt>
      <trkpt lon="35.07572354748845" lat="31.798794949427247">
        <ele>618.0</ele>
        <time>2014-07-12T06:05:56.000Z</time>
      </trkpt>
      <trkpt lon="35.07573075592518" lat="31.798795703798532">
        <ele>618.0</ele>
        <time>2014-07-12T06:06:20.000Z</time>
      </trkpt>
      <trkpt lon="35.075744250789285" lat="31.798781119287014">
        <ele>618.2000122070312</ele>
        <time>2014-07-12T06:06:28.000Z</time>
      </trkpt>
      <trkpt lon="35.07575137540698" lat="31.798706268891692">
        <ele>618.5999755859375</ele>
        <time>2014-07-12T06:06:35.000Z</time>
      </trkpt>
      <trkpt lon="35.07575581781566" lat="31.798656145110726">
        <ele>619.0</ele>
        <time>2014-07-12T06:06:41.000Z</time>
      </trkpt>
      <trkpt lon="35.075761852785945" lat="31.798642817884684">
        <ele>619.0</ele>
        <time>2014-07-12T06:06:42.000Z</time>
      </trkpt>
      <trkpt lon="35.075771072879434" lat="31.798625299707055">
        <ele>619.2000122070312</ele>
        <time>2014-07-12T06:06:43.000Z</time>
      </trkpt>
      <trkpt lon="35.075783813372254" lat="31.798609793186188">
        <ele>619.4000244140625</ele>
        <time>2014-07-12T06:06:44.000Z</time>
      </trkpt>
      <trkpt lon="35.07579923607409" lat="31.79859227500856">
        <ele>619.5999755859375</ele>
        <time>2014-07-12T06:06:45.000Z</time>
      </trkpt>
      <trkpt lon="35.075811641290784" lat="31.798572493717074">
        <ele>619.4000244140625</ele>
        <time>2014-07-12T06:06:46.000Z</time>
      </trkpt>
      <trkpt lon="35.075823962688446" lat="31.798550952225924">
        <ele>619.2000122070312</ele>
        <time>2014-07-12T06:06:47.000Z</time>
      </trkpt>
      <trkpt lon="35.07583896629512" lat="31.798528656363487">
        <ele>619.0</ele>
        <time>2014-07-12T06:06:48.000Z</time>
      </trkpt>
      <trkpt lon="35.07585883140564" lat="31.79851214401424">
        <ele>618.5999755859375</ele>
        <time>2014-07-12T06:06:49.000Z</time>
      </trkpt>
      <trkpt lon="35.075886910781264" lat="31.798495296388865">
        <ele>618.4000244140625</ele>
        <time>2014-07-12T06:06:50.000Z</time>
      </trkpt>
      <trkpt lon="35.07591851055622" lat="31.798477275297046">
        <ele>618.0</ele>
        <time>2014-07-12T06:06:51.000Z</time>
      </trkpt>
      <trkpt lon="35.076130237430334" lat="31.79833235219121">
        <ele>615.5999755859375</ele>
        <time>2014-07-12T06:06:58.000Z</time>
      </trkpt>
      <trkpt lon="35.07614666596055" lat="31.798308715224266">
        <ele>615.4000244140625</ele>
        <time>2014-07-12T06:06:59.000Z</time>
      </trkpt>
      <trkpt lon="35.07615068927407" lat="31.79828206077218">
        <ele>615.2000122070312</ele>
        <time>2014-07-12T06:07:00.000Z</time>
      </trkpt>
      <trkpt lon="35.07615110836923" lat="31.798255154863">
        <ele>615.0</ele>
        <time>2014-07-12T06:07:01.000Z</time>
      </trkpt>
      <trkpt lon="35.07614800706506" lat="31.79822682403028">
        <ele>614.7999877929688</ele>
        <time>2014-07-12T06:07:02.000Z</time>
      </trkpt>
      <trkpt lon="35.07614406757057" lat="31.798195727169514">
        <ele>614.7999877929688</ele>
        <time>2014-07-12T06:07:03.000Z</time>
      </trkpt>
      <trkpt lon="35.07614063099027" lat="31.798162031918764">
        <ele>614.7999877929688</ele>
        <time>2014-07-12T06:07:04.000Z</time>
      </trkpt>
      <trkpt lon="35.07613526657224" lat="31.79812707938254">
        <ele>614.7999877929688</ele>
        <time>2014-07-12T06:07:05.000Z</time>
      </trkpt>
      <trkpt lon="35.0761354342103" lat="31.79809237830341">
        <ele>614.7999877929688</ele>
        <time>2014-07-12T06:07:06.000Z</time>
      </trkpt>
      <trkpt lon="35.07614339701831" lat="31.798057509586215">
        <ele>614.4000244140625</ele>
        <time>2014-07-12T06:07:07.000Z</time>
      </trkpt>
      <trkpt lon="35.07615647278726" lat="31.79802448488772">
        <ele>613.7999877929688</ele>
        <time>2014-07-12T06:07:08.000Z</time>
      </trkpt>
      <trkpt lon="35.07617063820362" lat="31.797993388026953">
        <ele>613.2000122070312</ele>
        <time>2014-07-12T06:07:09.000Z</time>
      </trkpt>
      <trkpt lon="35.07631975226104" lat="31.7978389095515">
        <ele>610.2000122070312</ele>
        <time>2014-07-12T06:07:15.000Z</time>
      </trkpt>
      <trkpt lon="35.07647121325135" lat="31.797656770795584">
        <ele>607.7999877929688</ele>
        <time>2014-07-12T06:07:20.000Z</time>
      </trkpt>
      <trkpt lon="35.07654765620828" lat="31.797103146091104">
        <ele>600.2000122070312</ele>
        <time>2014-07-12T06:07:27.000Z</time>
      </trkpt>
      <trkpt lon="35.07658235728741" lat="31.796751525253057">
        <ele>597.0</ele>
        <time>2014-07-12T06:07:32.000Z</time>
      </trkpt>
      <trkpt lon="35.076603814959526" lat="31.796474251896143">
        <ele>594.4000244140625</ele>
        <time>2014-07-12T06:07:38.000Z</time>
      </trkpt>
      <trkpt lon="35.07660934701562" lat="31.796428319066763">
        <ele>594.0</ele>
        <time>2014-07-12T06:07:39.000Z</time>
      </trkpt>
      <trkpt lon="35.07666793651879" lat="31.796277863904834">
        <ele>592.4000244140625</ele>
        <time>2014-07-12T06:07:43.000Z</time>
      </trkpt>
      <trkpt lon="35.07670464925468" lat="31.796255484223366">
        <ele>591.5999755859375</ele>
        <time>2014-07-12T06:07:44.000Z</time>
      </trkpt>
      <trkpt lon="35.07675100117922" lat="31.79624198935926">
        <ele>591.0</ele>
        <time>2014-07-12T06:07:45.000Z</time>
      </trkpt>
      <trkpt lon="35.076802214607596" lat="31.79624391719699">
        <ele>590.0</ele>
        <time>2014-07-12T06:07:46.000Z</time>
      </trkpt>
      <trkpt lon="35.07685116492212" lat="31.796263195574284">
        <ele>589.2000122070312</ele>
        <time>2014-07-12T06:07:47.000Z</time>
      </trkpt>
      <trkpt lon="35.076897433027625" lat="31.796292196959257">
        <ele>588.5999755859375</ele>
        <time>2014-07-12T06:07:48.000Z</time>
      </trkpt>
      <trkpt lon="35.0769383367151" lat="31.796328322961926">
        <ele>588.0</ele>
        <time>2014-07-12T06:07:49.000Z</time>
      </trkpt>
      <trkpt lon="35.07697488181293" lat="31.796375093981624">
        <ele>587.7999877929688</ele>
        <time>2014-07-12T06:07:50.000Z</time>
      </trkpt>
      <trkpt lon="35.07700723595917" lat="31.796428067609668">
        <ele>587.5999755859375</ele>
        <time>2014-07-12T06:07:51.000Z</time>
      </trkpt>
      <trkpt lon="35.07703305222094" lat="31.796478191390634">
        <ele>587.5999755859375</ele>
        <time>2014-07-12T06:07:52.000Z</time>
      </trkpt>
      <trkpt lon="35.07705057039857" lat="31.796521274372935">
        <ele>587.5999755859375</ele>
        <time>2014-07-12T06:07:53.000Z</time>
      </trkpt>
      <trkpt lon="35.077061634510756" lat="31.796557400375605">
        <ele>587.5999755859375</ele>
        <time>2014-07-12T06:07:54.000Z</time>
      </trkpt>
      <trkpt lon="35.07707353681326" lat="31.79658900015056">
        <ele>587.7999877929688</ele>
        <time>2014-07-12T06:07:55.000Z</time>
      </trkpt>
      <trkpt lon="35.07709063589573" lat="31.796620432287455">
        <ele>587.7999877929688</ele>
        <time>2014-07-12T06:07:56.000Z</time>
      </trkpt>
      <trkpt lon="35.07711175829172" lat="31.79665731266141">
        <ele>588.0</ele>
        <time>2014-07-12T06:07:57.000Z</time>
      </trkpt>
      <trkpt lon="35.07725140079856" lat="31.796929724514484">
        <ele>589.4000244140625</ele>
        <time>2014-07-12T06:08:02.000Z</time>
      </trkpt>
      <trkpt lon="35.07729724980891" lat="31.79699200205505">
        <ele>589.5999755859375</ele>
        <time>2014-07-12T06:08:03.000Z</time>
      </trkpt>
      <trkpt lon="35.07735542021692" lat="31.79705025628209">
        <ele>589.5999755859375</ele>
        <time>2014-07-12T06:08:04.000Z</time>
      </trkpt>
      <trkpt lon="35.07742230780423" lat="31.797102224081755">
        <ele>589.5999755859375</ele>
        <time>2014-07-12T06:08:05.000Z</time>
      </trkpt>
      <trkpt lon="35.077493051066995" lat="31.797147067263722">
        <ele>589.4000244140625</ele>
        <time>2014-07-12T06:08:06.000Z</time>
      </trkpt>
      <trkpt lon="35.077566392719746" lat="31.79718461818993">
        <ele>589.2000122070312</ele>
        <time>2014-07-12T06:08:07.000Z</time>
      </trkpt>
      <trkpt lon="35.07763906382024" lat="31.797214122489095">
        <ele>588.7999877929688</ele>
        <time>2014-07-12T06:08:08.000Z</time>
      </trkpt>
      <trkpt lon="35.07770796306431" lat="31.797239687293768">
        <ele>588.4000244140625</ele>
        <time>2014-07-12T06:08:09.000Z</time>
      </trkpt>
      <trkpt lon="35.07783243432641" lat="31.797275310382247">
        <ele>587.5999755859375</ele>
        <time>2014-07-12T06:08:11.000Z</time>
      </trkpt>
      <trkpt lon="35.07789387367666" lat="31.797279752790928">
        <ele>586.5999755859375</ele>
        <time>2014-07-12T06:08:12.000Z</time>
      </trkpt>
      <trkpt lon="35.07795321755111" lat="31.797282937914133">
        <ele>585.5999755859375</ele>
        <time>2014-07-12T06:08:13.000Z</time>
      </trkpt>
      <trkpt lon="35.07801356725395" lat="31.797284614294767">
        <ele>585.2000122070312</ele>
        <time>2014-07-12T06:08:14.000Z</time>
      </trkpt>
      <trkpt lon="35.07807676680386" lat="31.797284446656704">
        <ele>584.5999755859375</ele>
        <time>2014-07-12T06:08:15.000Z</time>
      </trkpt>
      <trkpt lon="35.07828505709767" lat="31.797304395586252">
        <ele>583.4000244140625</ele>
        <time>2014-07-12T06:08:18.000Z</time>
      </trkpt>
      <trkpt lon="35.07868395186961" lat="31.797390896826982">
        <ele>581.7999877929688</ele>
        <time>2014-07-12T06:08:24.000Z</time>
      </trkpt>
      <trkpt lon="35.07905250415206" lat="31.797487623989582">
        <ele>582.0</ele>
        <time>2014-07-12T06:08:31.000Z</time>
      </trkpt>
      <trkpt lon="35.07923271507025" lat="31.797504806891084">
        <ele>581.2000122070312</ele>
        <time>2014-07-12T06:08:38.000Z</time>
      </trkpt>
      <trkpt lon="35.07945165038109" lat="31.79748854599893">
        <ele>579.2000122070312</ele>
        <time>2014-07-12T06:08:46.000Z</time>
      </trkpt>
      <trkpt lon="35.079610235989094" lat="31.79751872085035">
        <ele>579.0</ele>
        <time>2014-07-12T06:08:52.000Z</time>
      </trkpt>
      <trkpt lon="35.07991592399776" lat="31.797577142715454">
        <ele>579.5999755859375</ele>
        <time>2014-07-12T06:09:01.000Z</time>
      </trkpt>
      <trkpt lon="35.08018615655601" lat="31.79766733199358">
        <ele>581.4000244140625</ele>
        <time>2014-07-12T06:09:09.000Z</time>
      </trkpt>
      <trkpt lon="35.08028908632696" lat="31.797710917890072">
        <ele>582.4000244140625</ele>
        <time>2014-07-12T06:09:13.000Z</time>
      </trkpt>
      <trkpt lon="35.08031448349357" lat="31.79770303890109">
        <ele>582.2000122070312</ele>
        <time>2014-07-12T06:09:14.000Z</time>
      </trkpt>
      <trkpt lon="35.080336360260844" lat="31.797692393884063">
        <ele>581.7999877929688</ele>
        <time>2014-07-12T06:09:15.000Z</time>
      </trkpt>
      <trkpt lon="35.08035454899073" lat="31.797678312286735">
        <ele>581.4000244140625</ele>
        <time>2014-07-12T06:09:16.000Z</time>
      </trkpt>
      <trkpt lon="35.080367624759674" lat="31.79766247048974">
        <ele>580.7999877929688</ele>
        <time>2014-07-12T06:09:17.000Z</time>
      </trkpt>
      <trkpt lon="35.08037391118705" lat="31.797646461054683">
        <ele>580.4000244140625</ele>
        <time>2014-07-12T06:09:18.000Z</time>
      </trkpt>
      <trkpt lon="35.08037567138672" lat="31.79763061925769">
        <ele>580.0</ele>
        <time>2014-07-12T06:09:19.000Z</time>
      </trkpt>
      <trkpt lon="35.08037131279707" lat="31.797613687813282">
        <ele>579.5999755859375</ele>
        <time>2014-07-12T06:09:20.000Z</time>
      </trkpt>
      <trkpt lon="35.08036368526518" lat="31.797599187120795">
        <ele>579.2000122070312</ele>
        <time>2014-07-12T06:09:21.000Z</time>
      </trkpt>
      <trkpt lon="35.0803542137146" lat="31.79758619517088">
        <ele>578.7999877929688</ele>
        <time>2014-07-12T06:09:22.000Z</time>
      </trkpt>
      <trkpt lon="35.08033971302211" lat="31.797572281211615">
        <ele>578.4000244140625</ele>
        <time>2014-07-12T06:09:23.000Z</time>
      </trkpt>
      <trkpt lon="35.08032152429223" lat="31.797554092481732">
        <ele>578.0</ele>
        <time>2014-07-12T06:09:24.000Z</time>
      </trkpt>
      <trkpt lon="35.08016956038773" lat="31.797456359490752">
        <ele>575.5999755859375</ele>
        <time>2014-07-12T06:09:28.000Z</time>
      </trkpt>
      <trkpt lon="35.079869320616126" lat="31.797290481626987">
        <ele>572.0</ele>
        <time>2014-07-12T06:09:33.000Z</time>
      </trkpt>
      <trkpt lon="35.07939264178276" lat="31.797077162191272">
        <ele>568.5999755859375</ele>
        <time>2014-07-12T06:09:40.000Z</time>
      </trkpt>
      <trkpt lon="35.079083098098636" lat="31.79697498679161">
        <ele>568.4000244140625</ele>
        <time>2014-07-12T06:09:46.000Z</time>
      </trkpt>
      <trkpt lon="35.078914454206824" lat="31.796911535784602">
        <ele>568.0</ele>
        <time>2014-07-12T06:09:51.000Z</time>
      </trkpt>
      <trkpt lon="35.07869887165725" lat="31.796864429488778">
        <ele>568.7999877929688</ele>
        <time>2014-07-12T06:09:59.000Z</time>
      </trkpt>
      <trkpt lon="35.07845898158848" lat="31.796837439760566">
        <ele>571.0</ele>
        <time>2014-07-12T06:10:07.000Z</time>
      </trkpt>
      <trkpt lon="35.078341383486986" lat="31.79678153246641">
        <ele>571.0</ele>
        <time>2014-07-12T06:10:13.000Z</time>
      </trkpt>
      <trkpt lon="35.07832629606128" lat="31.796756638213992">
        <ele>570.4000244140625</ele>
        <time>2014-07-12T06:10:15.000Z</time>
      </trkpt>
      <trkpt lon="35.07832285948098" lat="31.796740628778934">
        <ele>570.2000122070312</ele>
        <time>2014-07-12T06:10:16.000Z</time>
      </trkpt>
      <trkpt lon="35.0783181656152" lat="31.796723026782274">
        <ele>569.7999877929688</ele>
        <time>2014-07-12T06:10:17.000Z</time>
      </trkpt>
      <trkpt lon="35.078315483406186" lat="31.79670232348144">
        <ele>569.2000122070312</ele>
        <time>2014-07-12T06:10:18.000Z</time>
      </trkpt>
      <trkpt lon="35.07831380702555" lat="31.796678937971592">
        <ele>568.5999755859375</ele>
        <time>2014-07-12T06:10:19.000Z</time>
      </trkpt>
      <trkpt lon="35.07831095717847" lat="31.796476431190968">
        <ele>564.5999755859375</ele>
        <time>2014-07-12T06:10:26.000Z</time>
      </trkpt>
      <trkpt lon="35.078288577497005" lat="31.79626101627946">
        <ele>562.2000122070312</ele>
        <time>2014-07-12T06:10:32.000Z</time>
      </trkpt>
      <trkpt lon="35.07818472571671" lat="31.795967733487487">
        <ele>560.0</ele>
        <time>2014-07-12T06:10:39.000Z</time>
      </trkpt>
      <trkpt lon="35.07814709097147" lat="31.795868575572968">
        <ele>558.5999755859375</ele>
        <time>2014-07-12T06:10:41.000Z</time>
      </trkpt>
      <trkpt lon="35.0781384576112" lat="31.79581493139267">
        <ele>557.7999877929688</ele>
        <time>2014-07-12T06:10:42.000Z</time>
      </trkpt>
      <trkpt lon="35.07814231328666" lat="31.795763885602355">
        <ele>556.5999755859375</ele>
        <time>2014-07-12T06:10:43.000Z</time>
      </trkpt>
      <trkpt lon="35.078153209760785" lat="31.795661207288504">
        <ele>555.0</ele>
        <time>2014-07-12T06:10:45.000Z</time>
      </trkpt>
      <trkpt lon="35.07814181037247" lat="31.795512260869145">
        <ele>554.2000122070312</ele>
        <time>2014-07-12T06:10:49.000Z</time>
      </trkpt>
      <trkpt lon="35.07813745178282" lat="31.795511338859797">
        <ele>554.2000122070312</ele>
        <time>2014-07-12T06:11:05.000Z</time>
      </trkpt>
      <trkpt lon="35.07813535630703" lat="31.795519972220063">
        <ele>554.4000244140625</ele>
        <time>2014-07-12T06:11:25.000Z</time>
      </trkpt>
      <trkpt lon="35.078138541430235" lat="31.795531455427408">
        <ele>554.4000244140625</ele>
        <time>2014-07-12T06:11:46.000Z</time>
      </trkpt>
      <trkpt lon="35.0781125575304" lat="31.795496502891183">
        <ele>554.5999755859375</ele>
        <time>2014-07-12T06:12:04.000Z</time>
      </trkpt>
      <trkpt lon="35.07809663191438" lat="31.795399524271488">
        <ele>554.4000244140625</ele>
        <time>2014-07-12T06:12:12.000Z</time>
      </trkpt>
      <trkpt lon="35.07802681066096" lat="31.79523540660739">
        <ele>554.5999755859375</ele>
        <time>2014-07-12T06:12:24.000Z</time>
      </trkpt>
      <trkpt lon="35.07797836326063" lat="31.795122250914574">
        <ele>554.7999877929688</ele>
        <time>2014-07-12T06:12:33.000Z</time>
      </trkpt>
      <trkpt lon="35.077975345775485" lat="31.79509132169187">
        <ele>554.5999755859375</ele>
        <time>2014-07-12T06:12:39.000Z</time>
      </trkpt>
      <trkpt lon="35.0779798720032" lat="31.79507900029421">
        <ele>554.4000244140625</ele>
        <time>2014-07-12T06:12:56.000Z</time>
      </trkpt>
      <trkpt lon="35.07798230275512" lat="31.795070031657815">
        <ele>554.2000122070312</ele>
        <time>2014-07-12T06:12:57.000Z</time>
      </trkpt>
      <trkpt lon="35.077963108196855" lat="31.7949481587857">
        <ele>553.7999877929688</ele>
        <time>2014-07-12T06:13:04.000Z</time>
      </trkpt>
      <trkpt lon="35.07794642820954" lat="31.794778173789382">
        <ele>553.5999755859375</ele>
        <time>2014-07-12T06:13:11.000Z</time>
      </trkpt>
      <trkpt lon="35.077904518693686" lat="31.79455714300275">
        <ele>554.4000244140625</ele>
        <time>2014-07-12T06:13:16.000Z</time>
      </trkpt>
      <trkpt lon="35.077825309708714" lat="31.79434608668089">
        <ele>555.5999755859375</ele>
        <time>2014-07-12T06:13:22.000Z</time>
      </trkpt>
      <trkpt lon="35.077772084623575" lat="31.794084990397096">
        <ele>556.4000244140625</ele>
        <time>2014-07-12T06:13:29.000Z</time>
      </trkpt>
      <trkpt lon="35.07772648707032" lat="31.79393562488258">
        <ele>556.7999877929688</ele>
        <time>2014-07-12T06:13:35.000Z</time>
      </trkpt>
      <trkpt lon="35.077717350795865" lat="31.793759102001786">
        <ele>556.7999877929688</ele>
        <time>2014-07-12T06:13:42.000Z</time>
      </trkpt>
      <trkpt lon="35.077700670808554" lat="31.793434470891953">
        <ele>556.5999755859375</ele>
        <time>2014-07-12T06:13:50.000Z</time>
      </trkpt>
      <trkpt lon="35.07757502608001" lat="31.793184773996472">
        <ele>557.7999877929688</ele>
        <time>2014-07-12T06:13:57.000Z</time>
      </trkpt>
      <trkpt lon="35.07744208909571" lat="31.793047729879618">
        <ele>557.7999877929688</ele>
        <time>2014-07-12T06:14:03.000Z</time>
      </trkpt>
      <trkpt lon="35.07733999751508" lat="31.792875565588474">
        <ele>557.0</ele>
        <time>2014-07-12T06:14:10.000Z</time>
      </trkpt>
      <trkpt lon="35.07716406136751" lat="31.792744640260935">
        <ele>557.7999877929688</ele>
        <time>2014-07-12T06:14:15.000Z</time>
      </trkpt>
      <trkpt lon="35.07710295729339" lat="31.792720081284642">
        <ele>558.4000244140625</ele>
        <time>2014-07-12T06:14:16.000Z</time>
      </trkpt>
      <trkpt lon="35.07704135030508" lat="31.792699126526713">
        <ele>557.7999877929688</ele>
        <time>2014-07-12T06:14:17.000Z</time>
      </trkpt>
      <trkpt lon="35.07697530090809" lat="31.792681021615863">
        <ele>557.0</ele>
        <time>2014-07-12T06:14:18.000Z</time>
      </trkpt>
      <trkpt lon="35.07690615020692" lat="31.792666856199503">
        <ele>556.4000244140625</ele>
        <time>2014-07-12T06:14:19.000Z</time>
      </trkpt>
      <trkpt lon="35.07683649659157" lat="31.79265403188765">
        <ele>555.7999877929688</ele>
        <time>2014-07-12T06:14:20.000Z</time>
      </trkpt>
      <trkpt lon="35.076769944280386" lat="31.792649673298">
        <ele>555.2000122070312</ele>
        <time>2014-07-12T06:14:21.000Z</time>
      </trkpt>
      <trkpt lon="35.07670481689274" lat="31.7926531098783">
        <ele>554.7999877929688</ele>
        <time>2014-07-12T06:14:22.000Z</time>
      </trkpt>
      <trkpt lon="35.07664052769542" lat="31.79266031831503">
        <ele>554.4000244140625</ele>
        <time>2014-07-12T06:14:23.000Z</time>
      </trkpt>
      <trkpt lon="35.07657749578357" lat="31.792669789865613">
        <ele>554.0</ele>
        <time>2014-07-12T06:14:24.000Z</time>
      </trkpt>
      <trkpt lon="35.07651446387172" lat="31.792680518701673">
        <ele>554.5999755859375</ele>
        <time>2014-07-12T06:14:25.000Z</time>
      </trkpt>
      <trkpt lon="35.076449336484075" lat="31.792693762108684">
        <ele>555.7999877929688</ele>
        <time>2014-07-12T06:14:26.000Z</time>
      </trkpt>
      <trkpt lon="35.07639041170478" lat="31.7927170637995">
        <ele>557.0</ele>
        <time>2014-07-12T06:14:27.000Z</time>
      </trkpt>
      <trkpt lon="35.07633517496288" lat="31.792743550613523">
        <ele>558.4000244140625</ele>
        <time>2014-07-12T06:14:28.000Z</time>
      </trkpt>
      <trkpt lon="35.076276836916804" lat="31.792769702151418">
        <ele>560.0</ele>
        <time>2014-07-12T06:14:29.000Z</time>
      </trkpt>
      <trkpt lon="35.07616527378559" lat="31.79281923919916">
        <ele>560.2000122070312</ele>
        <time>2014-07-12T06:14:31.000Z</time>
      </trkpt>
      <trkpt lon="35.07610995322466" lat="31.79283684119582">
        <ele>560.0</ele>
        <time>2014-07-12T06:14:32.000Z</time>
      </trkpt>
      <trkpt lon="35.075783394277096" lat="31.792957540601492">
        <ele>561.2000122070312</ele>
        <time>2014-07-12T06:14:37.000Z</time>
      </trkpt>
      <trkpt lon="35.07530881091952" lat="31.7931314650923">
        <ele>565.5999755859375</ele>
        <time>2014-07-12T06:14:44.000Z</time>
      </trkpt>
      <trkpt lon="35.0752373971045" lat="31.793146803975105">
        <ele>566.0</ele>
        <time>2014-07-12T06:14:45.000Z</time>
      </trkpt>
      <trkpt lon="35.075170677155256" lat="31.793153509497643">
        <ele>566.0</ele>
        <time>2014-07-12T06:14:46.000Z</time>
      </trkpt>
      <trkpt lon="35.07510873489082" lat="31.79315342567861">
        <ele>565.7999877929688</ele>
        <time>2014-07-12T06:14:47.000Z</time>
      </trkpt>
      <trkpt lon="35.07504880428314" lat="31.793142445385456">
        <ele>565.2000122070312</ele>
        <time>2014-07-12T06:14:48.000Z</time>
      </trkpt>
      <trkpt lon="35.074991304427385" lat="31.793119981884956">
        <ele>563.7999877929688</ele>
        <time>2014-07-12T06:14:49.000Z</time>
      </trkpt>
      <trkpt lon="35.07493883371353" lat="31.793090561404824">
        <ele>562.2000122070312</ele>
        <time>2014-07-12T06:14:50.000Z</time>
      </trkpt>
      <trkpt lon="35.07489290088415" lat="31.793056530877948">
        <ele>560.4000244140625</ele>
        <time>2014-07-12T06:14:51.000Z</time>
      </trkpt>
      <trkpt lon="35.07470045238733" lat="31.792880007997155">
        <ele>551.2000122070312</ele>
        <time>2014-07-12T06:14:57.000Z</time>
      </trkpt>
      <trkpt lon="35.07467891089618" lat="31.792868860065937">
        <ele>550.5999755859375</ele>
        <time>2014-07-12T06:15:01.000Z</time>
      </trkpt>
      <trkpt lon="35.0746726244688" lat="31.79284648038447">
        <ele>549.5999755859375</ele>
        <time>2014-07-12T06:15:10.000Z</time>
      </trkpt>
      <trkpt lon="35.07466080598533" lat="31.79284513927996">
        <ele>549.4000244140625</ele>
        <time>2014-07-12T06:15:24.000Z</time>
      </trkpt>
      <trkpt lon="35.07460255175829" lat="31.792794512584805">
        <ele>546.7999877929688</ele>
        <time>2014-07-12T06:15:33.000Z</time>
      </trkpt>
      <trkpt lon="35.074407923966646" lat="31.79267548955977">
        <ele>544.2000122070312</ele>
        <time>2014-07-12T06:15:39.000Z</time>
      </trkpt>
      <trkpt lon="35.07431806996465" lat="31.792610781267285">
        <ele>542.5999755859375</ele>
        <time>2014-07-12T06:15:41.000Z</time>
      </trkpt>
      <trkpt lon="35.07397558540106" lat="31.792363096028566">
        <ele>536.5999755859375</ele>
        <time>2014-07-12T06:15:47.000Z</time>
      </trkpt>
      <trkpt lon="35.07347568869591" lat="31.79186881519854">
        <ele>527.0</ele>
        <time>2014-07-12T06:15:56.000Z</time>
      </trkpt>
      <trkpt lon="35.07309766486287" lat="31.791505543515086">
        <ele>524.0</ele>
        <time>2014-07-12T06:16:03.000Z</time>
      </trkpt>
      <trkpt lon="35.072842352092266" lat="31.791327595710754">
        <ele>526.2000122070312</ele>
        <time>2014-07-12T06:16:09.000Z</time>
      </trkpt>
      <trkpt lon="35.0726127717644" lat="31.791196586564183">
        <ele>528.4000244140625</ele>
        <time>2014-07-12T06:16:16.000Z</time>
      </trkpt>
      <trkpt lon="35.072432896122336" lat="31.79110891185701">
        <ele>530.5999755859375</ele>
        <time>2014-07-12T06:16:23.000Z</time>
      </trkpt>
      <trkpt lon="35.07222485728562" lat="31.7909746337682">
        <ele>532.0</ele>
        <time>2014-07-12T06:16:31.000Z</time>
      </trkpt>
      <trkpt lon="35.072076581418514" lat="31.790865417569876">
        <ele>532.4000244140625</ele>
        <time>2014-07-12T06:16:38.000Z</time>
      </trkpt>
      <trkpt lon="35.07188430055976" lat="31.79072384722531">
        <ele>532.4000244140625</ele>
        <time>2014-07-12T06:16:47.000Z</time>
      </trkpt>
      <trkpt lon="35.0717041734606" lat="31.79061831906438">
        <ele>533.2000122070312</ele>
        <time>2014-07-12T06:16:57.000Z</time>
      </trkpt>
      <trkpt lon="35.07148188538849" lat="31.790483118966222">
        <ele>534.0</ele>
        <time>2014-07-12T06:17:07.000Z</time>
      </trkpt>
      <trkpt lon="35.07126680575311" lat="31.79040927439928">
        <ele>537.0</ele>
        <time>2014-07-12T06:17:17.000Z</time>
      </trkpt>
      <trkpt lon="35.071092462167144" lat="31.790394773706794">
        <ele>537.4000244140625</ele>
        <time>2014-07-12T06:17:24.000Z</time>
      </trkpt>
      <trkpt lon="35.07086539641023" lat="31.790427714586258">
        <ele>540.7999877929688</ele>
        <time>2014-07-12T06:17:33.000Z</time>
      </trkpt>
      <trkpt lon="35.07069440558553" lat="31.790478425100446">
        <ele>546.0</ele>
        <time>2014-07-12T06:17:41.000Z</time>
      </trkpt>
      <trkpt lon="35.0704852771014" lat="31.790496362373233">
        <ele>549.7999877929688</ele>
        <time>2014-07-12T06:17:49.000Z</time>
      </trkpt>
      <trkpt lon="35.07019333541393" lat="31.79048052057624">
        <ele>553.0</ele>
        <time>2014-07-12T06:17:58.000Z</time>
      </trkpt>
      <trkpt lon="35.06990524940193" lat="31.79040390998125">
        <ele>552.4000244140625</ele>
        <time>2014-07-12T06:18:07.000Z</time>
      </trkpt>
      <trkpt lon="35.06964893080294" lat="31.790311792865396">
        <ele>550.5999755859375</ele>
        <time>2014-07-12T06:18:17.000Z</time>
      </trkpt>
      <trkpt lon="35.06938406266272" lat="31.790124289691448">
        <ele>548.2000122070312</ele>
        <time>2014-07-12T06:18:27.000Z</time>
      </trkpt>
      <trkpt lon="35.06920184008777" lat="31.789952125400305">
        <ele>545.2000122070312</ele>
        <time>2014-07-12T06:18:36.000Z</time>
      </trkpt>
      <trkpt lon="35.069034369662404" lat="31.789786834269762">
        <ele>543.5999755859375</ele>
        <time>2014-07-12T06:18:45.000Z</time>
      </trkpt>
      <trkpt lon="35.06882934831083" lat="31.78958491422236">
        <ele>543.0</ele>
        <time>2014-07-12T06:18:56.000Z</time>
      </trkpt>
      <trkpt lon="35.068659614771605" lat="31.789427921175957">
        <ele>543.4000244140625</ele>
        <time>2014-07-12T06:19:06.000Z</time>
      </trkpt>
      <trkpt lon="35.0684526655823" lat="31.789261791855097">
        <ele>545.0</ele>
        <time>2014-07-12T06:19:16.000Z</time>
      </trkpt>
      <trkpt lon="35.06824831478298" lat="31.789120975881815">
        <ele>547.4000244140625</ele>
        <time>2014-07-12T06:19:25.000Z</time>
      </trkpt>
      <trkpt lon="35.06805586628616" lat="31.789076551795006">
        <ele>552.5999755859375</ele>
        <time>2014-07-12T06:19:33.000Z</time>
      </trkpt>
      <trkpt lon="35.06781404837966" lat="31.789093734696507">
        <ele>557.7999877929688</ele>
        <time>2014-07-12T06:19:43.000Z</time>
      </trkpt>
      <trkpt lon="35.06767390295863" lat="31.7891804035753">
        <ele>561.0</ele>
        <time>2014-07-12T06:19:51.000Z</time>
      </trkpt>
      <trkpt lon="35.067516239359975" lat="31.78925801999867">
        <ele>564.0</ele>
        <time>2014-07-12T06:20:00.000Z</time>
      </trkpt>
      <trkpt lon="35.067366203293204" lat="31.789303198456764">
        <ele>566.0</ele>
        <time>2014-07-12T06:20:08.000Z</time>
      </trkpt>
      <trkpt lon="35.06722957827151" lat="31.78936505690217">
        <ele>569.2000122070312</ele>
        <time>2014-07-12T06:20:16.000Z</time>
      </trkpt>
      <trkpt lon="35.06709789857268" lat="31.789433704689145">
        <ele>572.4000244140625</ele>
        <time>2014-07-12T06:20:24.000Z</time>
      </trkpt>
      <trkpt lon="35.06695398129523" lat="31.7895223852247">
        <ele>574.5999755859375</ele>
        <time>2014-07-12T06:20:32.000Z</time>
      </trkpt>
      <trkpt lon="35.06678223609924" lat="31.789620872586966">
        <ele>576.7999877929688</ele>
        <time>2014-07-12T06:20:42.000Z</time>
      </trkpt>
      <trkpt lon="35.06666237488389" lat="31.789696644991636">
        <ele>579.4000244140625</ele>
        <time>2014-07-12T06:20:49.000Z</time>
      </trkpt>
      <trkpt lon="35.06652943789959" lat="31.78976286202669">
        <ele>581.4000244140625</ele>
        <time>2014-07-12T06:20:55.000Z</time>
      </trkpt>
      <trkpt lon="35.06634101271629" lat="31.789840646088123">
        <ele>583.7999877929688</ele>
        <time>2014-07-12T06:21:04.000Z</time>
      </trkpt>
      <trkpt lon="35.06622651591897" lat="31.78989512845874">
        <ele>585.4000244140625</ele>
        <time>2014-07-12T06:21:12.000Z</time>
      </trkpt>
      <trkpt lon="35.06614973768592" lat="31.78991767577827">
        <ele>586.0</ele>
        <time>2014-07-12T06:21:16.000Z</time>
      </trkpt>
      <trkpt lon="35.066135320812464" lat="31.789924297481775">
        <ele>586.2000122070312</ele>
        <time>2014-07-12T06:21:17.000Z</time>
      </trkpt>
      <trkpt lon="35.06612014956772" lat="31.789929326623678">
        <ele>586.2000122070312</ele>
        <time>2014-07-12T06:21:18.000Z</time>
      </trkpt>
      <trkpt lon="35.06610631942749" lat="31.789933936670423">
        <ele>586.4000244140625</ele>
        <time>2014-07-12T06:21:19.000Z</time>
      </trkpt>
      <trkpt lon="35.066090477630496" lat="31.789937959983945">
        <ele>586.4000244140625</ele>
        <time>2014-07-12T06:21:20.000Z</time>
      </trkpt>
      <trkpt lon="35.066075809299946" lat="31.78994106128812">
        <ele>586.5999755859375</ele>
        <time>2014-07-12T06:21:21.000Z</time>
      </trkpt>
      <trkpt lon="35.06593516096473" lat="31.78996662609279">
        <ele>586.7999877929688</ele>
        <time>2014-07-12T06:21:29.000Z</time>
      </trkpt>
      <trkpt lon="35.06571337580681" lat="31.78995782509446">
        <ele>584.7999877929688</ele>
        <time>2014-07-12T06:21:38.000Z</time>
      </trkpt>
      <trkpt lon="35.06546225398779" lat="31.789975007995963">
        <ele>584.2000122070312</ele>
        <time>2014-07-12T06:21:47.000Z</time>
      </trkpt>
      <trkpt lon="35.06521414965391" lat="31.78998556919396">
        <ele>584.4000244140625</ele>
        <time>2014-07-12T06:21:54.000Z</time>
      </trkpt>
      <trkpt lon="35.064978282898664" lat="31.790004344657063">
        <ele>585.2000122070312</ele>
        <time>2014-07-12T06:22:01.000Z</time>
      </trkpt>
      <trkpt lon="35.06493251770735" lat="31.790001410990953">
        <ele>585.0</ele>
        <time>2014-07-12T06:22:02.000Z</time>
      </trkpt>
      <trkpt lon="35.064884489402175" lat="31.789995292201638">
        <ele>584.5999755859375</ele>
        <time>2014-07-12T06:22:03.000Z</time>
      </trkpt>
      <trkpt lon="35.06483595818281" lat="31.789988167583942">
        <ele>584.2000122070312</ele>
        <time>2014-07-12T06:22:04.000Z</time>
      </trkpt>
      <trkpt lon="35.064405212178826" lat="31.789964446797967">
        <ele>582.7999877929688</ele>
        <time>2014-07-12T06:22:12.000Z</time>
      </trkpt>
      <trkpt lon="35.064352825284004" lat="31.789961764588952">
        <ele>582.7999877929688</ele>
        <time>2014-07-12T06:22:13.000Z</time>
      </trkpt>
      <trkpt lon="35.06430261768401" lat="31.789963357150555">
        <ele>582.7999877929688</ele>
        <time>2014-07-12T06:22:14.000Z</time>
      </trkpt>
      <trkpt lon="35.06388553418219" lat="31.790033178403974">
        <ele>587.0</ele>
        <time>2014-07-12T06:22:23.000Z</time>
      </trkpt>
      <trkpt lon="35.0635517667979" lat="31.79012387059629">
        <ele>591.5999755859375</ele>
        <time>2014-07-12T06:22:32.000Z</time>
      </trkpt>
      <trkpt lon="35.063293939456344" lat="31.790176425129175">
        <ele>593.2000122070312</ele>
        <time>2014-07-12T06:22:40.000Z</time>
      </trkpt>
      <trkpt lon="35.0630319211632" lat="31.79018497467041">
        <ele>591.2000122070312</ele>
        <time>2014-07-12T06:22:48.000Z</time>
      </trkpt>
      <trkpt lon="35.06282765418291" lat="31.790142310783267">
        <ele>588.4000244140625</ele>
        <time>2014-07-12T06:22:55.000Z</time>
      </trkpt>
      <trkpt lon="35.06255507469177" lat="31.790072740986943">
        <ele>586.4000244140625</ele>
        <time>2014-07-12T06:23:04.000Z</time>
      </trkpt>
      <trkpt lon="35.06219381466508" lat="31.78996704518795">
        <ele>583.0</ele>
        <time>2014-07-12T06:23:14.000Z</time>
      </trkpt>
      <trkpt lon="35.061879493296146" lat="31.789902336895466">
        <ele>583.2000122070312</ele>
        <time>2014-07-12T06:23:24.000Z</time>
      </trkpt>
      <trkpt lon="35.06160121411085" lat="31.789867551997304">
        <ele>585.2000122070312</ele>
        <time>2014-07-12T06:23:33.000Z</time>
      </trkpt>
      <trkpt lon="35.06138185970485" lat="31.789865288883448">
        <ele>588.2000122070312</ele>
        <time>2014-07-12T06:23:40.000Z</time>
      </trkpt>
      <trkpt lon="35.06104180589318" lat="31.7898366227746">
        <ele>590.7999877929688</ele>
        <time>2014-07-12T06:23:51.000Z</time>
      </trkpt>
      <trkpt lon="35.06079914979637" lat="31.789785157889128">
        <ele>590.4000244140625</ele>
        <time>2014-07-12T06:23:59.000Z</time>
      </trkpt>
      <trkpt lon="35.060480972751975" lat="31.78972321562469">
        <ele>590.2000122070312</ele>
        <time>2014-07-12T06:24:08.000Z</time>
      </trkpt>
      <trkpt lon="35.06015097722411" lat="31.789616933092475">
        <ele>593.4000244140625</ele>
        <time>2014-07-12T06:24:17.000Z</time>
      </trkpt>
      <trkpt lon="35.05988275632262" lat="31.789443511515856">
        <ele>592.0</ele>
        <time>2014-07-12T06:24:26.000Z</time>
      </trkpt>
      <trkpt lon="35.059630712494254" lat="31.789215859025717">
        <ele>588.4000244140625</ele>
        <time>2014-07-12T06:24:34.000Z</time>
      </trkpt>
      <trkpt lon="35.05930155515671" lat="31.788902124390006">
        <ele>584.7999877929688</ele>
        <time>2014-07-12T06:24:42.000Z</time>
      </trkpt>
      <trkpt lon="35.058977259323" lat="31.788628539070487">
        <ele>582.5999755859375</ele>
        <time>2014-07-12T06:24:49.000Z</time>
      </trkpt>
      <trkpt lon="35.05892772227526" lat="31.788605321198702">
        <ele>583.0</ele>
        <time>2014-07-12T06:24:50.000Z</time>
      </trkpt>
      <trkpt lon="35.0586767680943" lat="31.788496524095535">
        <ele>584.0</ele>
        <time>2014-07-12T06:24:55.000Z</time>
      </trkpt>
      <trkpt lon="35.058627566322684" lat="31.788478922098875">
        <ele>584.0</ele>
        <time>2014-07-12T06:24:56.000Z</time>
      </trkpt>
      <trkpt lon="35.05853712558746" lat="31.788442712277174">
        <ele>583.5999755859375</ele>
        <time>2014-07-12T06:24:58.000Z</time>
      </trkpt>
      <trkpt lon="35.058105122298" lat="31.788288485258818">
        <ele>582.7999877929688</ele>
        <time>2014-07-12T06:25:06.000Z</time>
      </trkpt>
      <trkpt lon="35.05799104459584" lat="31.78825336508453">
        <ele>582.5999755859375</ele>
        <time>2014-07-12T06:25:08.000Z</time>
      </trkpt>
      <trkpt lon="35.05793144926429" lat="31.788242384791374">
        <ele>583.2000122070312</ele>
        <time>2014-07-12T06:25:09.000Z</time>
      </trkpt>
      <trkpt lon="35.05787160247564" lat="31.78823526017368">
        <ele>583.0</ele>
        <time>2014-07-12T06:25:10.000Z</time>
      </trkpt>
      <trkpt lon="35.0578115042299" lat="31.788228806108236">
        <ele>583.0</ele>
        <time>2014-07-12T06:25:11.000Z</time>
      </trkpt>
      <trkpt lon="35.0577478017658" lat="31.788219418376684">
        <ele>582.7999877929688</ele>
        <time>2014-07-12T06:25:12.000Z</time>
      </trkpt>
      <trkpt lon="35.057206247001886" lat="31.788176335394382">
        <ele>582.0</ele>
        <time>2014-07-12T06:25:20.000Z</time>
      </trkpt>
      <trkpt lon="35.05679218098521" lat="31.788102658465505">
        <ele>579.2000122070312</ele>
        <time>2014-07-12T06:25:26.000Z</time>
      </trkpt>
      <trkpt lon="35.056724455207586" lat="31.788095282390714">
        <ele>578.7999877929688</ele>
        <time>2014-07-12T06:25:27.000Z</time>
      </trkpt>
      <trkpt lon="35.05665488541126" lat="31.788093354552984">
        <ele>578.7999877929688</ele>
        <time>2014-07-12T06:25:28.000Z</time>
      </trkpt>
      <trkpt lon="35.05657768808305" lat="31.788113890215755">
        <ele>580.0</ele>
        <time>2014-07-12T06:25:29.000Z</time>
      </trkpt>
      <trkpt lon="35.05649705417454" lat="31.788138868287206">
        <ele>581.5999755859375</ele>
        <time>2014-07-12T06:25:30.000Z</time>
      </trkpt>
      <trkpt lon="35.05641533061862" lat="31.788166612386703">
        <ele>583.2000122070312</ele>
        <time>2014-07-12T06:25:31.000Z</time>
      </trkpt>
      <trkpt lon="35.05633536726236" lat="31.78819083608687">
        <ele>584.5999755859375</ele>
        <time>2014-07-12T06:25:32.000Z</time>
      </trkpt>
      <trkpt lon="35.05589196458459" lat="31.788357719779015">
        <ele>585.4000244140625</ele>
        <time>2014-07-12T06:25:38.000Z</time>
      </trkpt>
      <trkpt lon="35.05582071840763" lat="31.788370544090867">
        <ele>584.7999877929688</ele>
        <time>2014-07-12T06:25:39.000Z</time>
      </trkpt>
      <trkpt lon="35.055607901886106" lat="31.788389906287193">
        <ele>582.5999755859375</ele>
        <time>2014-07-12T06:25:42.000Z</time>
      </trkpt>
      <trkpt lon="35.05553523078561" lat="31.788406670093536">
        <ele>581.2000122070312</ele>
        <time>2014-07-12T06:25:43.000Z</time>
      </trkpt>
      <trkpt lon="35.05546163767576" lat="31.788430139422417">
        <ele>579.5999755859375</ele>
        <time>2014-07-12T06:25:44.000Z</time>
      </trkpt>
      <trkpt lon="35.05539164878428" lat="31.78846752271056">
        <ele>578.5999755859375</ele>
        <time>2014-07-12T06:25:45.000Z</time>
      </trkpt>
      <trkpt lon="35.055327862501144" lat="31.788509851321578">
        <ele>578.2000122070312</ele>
        <time>2014-07-12T06:25:46.000Z</time>
      </trkpt>
      <trkpt lon="35.055282013490796" lat="31.78855586796999">
        <ele>578.2000122070312</ele>
        <time>2014-07-12T06:25:47.000Z</time>
      </trkpt>
      <trkpt lon="35.05524932406843" lat="31.78860272280872">
        <ele>578.4000244140625</ele>
        <time>2014-07-12T06:25:48.000Z</time>
      </trkpt>
      <trkpt lon="35.05522660911083" lat="31.788646392524242">
        <ele>578.5999755859375</ele>
        <time>2014-07-12T06:25:49.000Z</time>
      </trkpt>
      <trkpt lon="35.055210599675775" lat="31.788688972592354">
        <ele>579.0</ele>
        <time>2014-07-12T06:25:50.000Z</time>
      </trkpt>
      <trkpt lon="35.055199367925525" lat="31.78872736170888">
        <ele>579.5999755859375</ele>
        <time>2014-07-12T06:25:51.000Z</time>
      </trkpt>
      <trkpt lon="35.05519509315491" lat="31.788763822987676">
        <ele>580.0</ele>
        <time>2014-07-12T06:25:52.000Z</time>
      </trkpt>
      <trkpt lon="35.05519316531718" lat="31.78880212828517">
        <ele>580.5999755859375</ele>
        <time>2014-07-12T06:25:53.000Z</time>
      </trkpt>
      <trkpt lon="35.05519526079297" lat="31.788843953981996">
        <ele>581.2000122070312</ele>
        <time>2014-07-12T06:25:54.000Z</time>
      </trkpt>
      <trkpt lon="35.055245552212" lat="31.789170177653432">
        <ele>583.7999877929688</ele>
        <time>2014-07-12T06:26:00.000Z</time>
      </trkpt>
      <trkpt lon="35.05534462630749" lat="31.78954778239131">
        <ele>585.0</ele>
        <time>2014-07-12T06:26:08.000Z</time>
      </trkpt>
      <trkpt lon="35.05541721358895" lat="31.789943743497133">
        <ele>586.0</ele>
        <time>2014-07-12T06:26:18.000Z</time>
      </trkpt>
      <trkpt lon="35.05544043146074" lat="31.79010970517993">
        <ele>587.0</ele>
        <time>2014-07-12T06:26:22.000Z</time>
      </trkpt>
      <trkpt lon="35.05540078505874" lat="31.790268877521157">
        <ele>586.4000244140625</ele>
        <time>2014-07-12T06:26:26.000Z</time>
      </trkpt>
      <trkpt lon="35.05536868236959" lat="31.790284886956215">
        <ele>585.7999877929688</ele>
        <time>2014-07-12T06:26:27.000Z</time>
      </trkpt>
      <trkpt lon="35.05533004179597" lat="31.790288826450706">
        <ele>585.2000122070312</ele>
        <time>2014-07-12T06:26:28.000Z</time>
      </trkpt>
      <trkpt lon="35.05528897047043" lat="31.790278097614646">
        <ele>584.4000244140625</ele>
        <time>2014-07-12T06:26:29.000Z</time>
      </trkpt>
      <trkpt lon="35.05524798296392" lat="31.790255634114146">
        <ele>583.4000244140625</ele>
        <time>2014-07-12T06:26:30.000Z</time>
      </trkpt>
      <trkpt lon="35.055210683494806" lat="31.79023526608944">
        <ele>582.7999877929688</ele>
        <time>2014-07-12T06:26:31.000Z</time>
      </trkpt>
      <trkpt lon="35.05517380312085" lat="31.790214059874415">
        <ele>582.0</ele>
        <time>2014-07-12T06:26:32.000Z</time>
      </trkpt>
      <trkpt lon="35.05505603738129" lat="31.790144070982933">
        <ele>579.5999755859375</ele>
        <time>2014-07-12T06:26:35.000Z</time>
      </trkpt>
      <trkpt lon="35.05498420447111" lat="31.790082715451717">
        <ele>578.0</ele>
        <time>2014-07-12T06:26:37.000Z</time>
      </trkpt>
      <trkpt lon="35.05494648590684" lat="31.79005002602935">
        <ele>577.2000122070312</ele>
        <time>2014-07-12T06:26:38.000Z</time>
      </trkpt>
      <trkpt lon="35.054903319105506" lat="31.790019432082772">
        <ele>576.2000122070312</ele>
        <time>2014-07-12T06:26:39.000Z</time>
      </trkpt>
      <trkpt lon="35.05475630052388" lat="31.789925638586283">
        <ele>573.2000122070312</ele>
        <time>2014-07-12T06:26:42.000Z</time>
      </trkpt>
      <trkpt lon="35.05470315925777" lat="31.789894122630358">
        <ele>572.2000122070312</ele>
        <time>2014-07-12T06:26:43.000Z</time>
      </trkpt>
      <trkpt lon="35.054258834570646" lat="31.78961819037795">
        <ele>567.4000244140625</ele>
        <time>2014-07-12T06:26:50.000Z</time>
      </trkpt>
      <trkpt lon="35.05419152788818" lat="31.789578208699822">
        <ele>567.2000122070312</ele>
        <time>2014-07-12T06:26:51.000Z</time>
      </trkpt>
      <trkpt lon="35.05413243547082" lat="31.78953554481268">
        <ele>566.7999877929688</ele>
        <time>2014-07-12T06:26:52.000Z</time>
      </trkpt>
      <trkpt lon="35.05407585762441" lat="31.789494892582297">
        <ele>566.4000244140625</ele>
        <time>2014-07-12T06:26:53.000Z</time>
      </trkpt>
      <trkpt lon="35.05401626229286" lat="31.789461532607675">
        <ele>566.4000244140625</ele>
        <time>2014-07-12T06:26:54.000Z</time>
      </trkpt>
      <trkpt lon="35.0539539847523" lat="31.78943060338497">
        <ele>566.2000122070312</ele>
        <time>2014-07-12T06:26:55.000Z</time>
      </trkpt>
      <trkpt lon="35.053479401394725" lat="31.789209572598338">
        <ele>563.0</ele>
        <time>2014-07-12T06:27:02.000Z</time>
      </trkpt>
      <trkpt lon="35.0531872920692" lat="31.78915349766612">
        <ele>561.5999755859375</ele>
        <time>2014-07-12T06:27:06.000Z</time>
      </trkpt>
      <trkpt lon="35.053114453330636" lat="31.78915936499834">
        <ele>561.7999877929688</ele>
        <time>2014-07-12T06:27:07.000Z</time>
      </trkpt>
      <trkpt lon="35.053045051172376" lat="31.789176966995">
        <ele>562.2000122070312</ele>
        <time>2014-07-12T06:27:08.000Z</time>
      </trkpt>
      <trkpt lon="35.05297816358507" lat="31.789201609790325">
        <ele>563.4000244140625</ele>
        <time>2014-07-12T06:27:09.000Z</time>
      </trkpt>
      <trkpt lon="35.052916556596756" lat="31.789228012785316">
        <ele>564.2000122070312</ele>
        <time>2014-07-12T06:27:10.000Z</time>
      </trkpt>
      <trkpt lon="35.05285922437906" lat="31.789260786026716">
        <ele>564.5999755859375</ele>
        <time>2014-07-12T06:27:11.000Z</time>
      </trkpt>
      <trkpt lon="35.05280423909426" lat="31.789301438257098">
        <ele>565.2000122070312</ele>
        <time>2014-07-12T06:27:12.000Z</time>
      </trkpt>
      <trkpt lon="35.05275193601847" lat="31.789345275610685">
        <ele>566.0</ele>
        <time>2014-07-12T06:27:13.000Z</time>
      </trkpt>
      <trkpt lon="35.05270943976939" lat="31.789394645020366">
        <ele>567.0</ele>
        <time>2014-07-12T06:27:14.000Z</time>
      </trkpt>
      <trkpt lon="35.05267356522381" lat="31.789447870105505">
        <ele>568.2000122070312</ele>
        <time>2014-07-12T06:27:15.000Z</time>
      </trkpt>
      <trkpt lon="35.05264523439109" lat="31.78949933499098">
        <ele>569.5999755859375</ele>
        <time>2014-07-12T06:27:16.000Z</time>
      </trkpt>
      <trkpt lon="35.05262612365186" lat="31.789549877867103">
        <ele>570.7999877929688</ele>
        <time>2014-07-12T06:27:17.000Z</time>
      </trkpt>
      <trkpt lon="35.05260994657874" lat="31.789602264761925">
        <ele>571.5999755859375</ele>
        <time>2014-07-12T06:27:18.000Z</time>
      </trkpt>
      <trkpt lon="35.05259242840111" lat="31.78965523838997">
        <ele>572.0</ele>
        <time>2014-07-12T06:27:19.000Z</time>
      </trkpt>
      <trkpt lon="35.052461083978415" lat="31.789984982460737">
        <ele>574.2000122070312</ele>
        <time>2014-07-12T06:27:26.000Z</time>
      </trkpt>
      <trkpt lon="35.05229478701949" lat="31.790411453694105">
        <ele>580.4000244140625</ele>
        <time>2014-07-12T06:27:35.000Z</time>
      </trkpt>
      <trkpt lon="35.05215145647526" lat="31.790589401498437">
        <ele>581.4000244140625</ele>
        <time>2014-07-12T06:27:41.000Z</time>
      </trkpt>
      <trkpt lon="35.05212429910898" lat="31.79059744812548">
        <ele>580.7999877929688</ele>
        <time>2014-07-12T06:27:42.000Z</time>
      </trkpt>
      <trkpt lon="35.05209982395172" lat="31.79060314781964">
        <ele>580.4000244140625</ele>
        <time>2014-07-12T06:27:43.000Z</time>
      </trkpt>
      <trkpt lon="35.05206914618611" lat="31.790601639077067">
        <ele>579.7999877929688</ele>
        <time>2014-07-12T06:27:44.000Z</time>
      </trkpt>
      <trkpt lon="35.0520302541554" lat="31.790594346821308">
        <ele>579.2000122070312</ele>
        <time>2014-07-12T06:27:45.000Z</time>
      </trkpt>
      <trkpt lon="35.051984740421176" lat="31.79058311507106">
        <ele>578.5999755859375</ele>
        <time>2014-07-12T06:27:46.000Z</time>
      </trkpt>
      <trkpt lon="35.05193361081183" lat="31.790558053180575">
        <ele>577.4000244140625</ele>
        <time>2014-07-12T06:27:47.000Z</time>
      </trkpt>
      <trkpt lon="35.05157897248864" lat="31.790378848090768">
        <ele>569.2000122070312</ele>
        <time>2014-07-12T06:27:53.000Z</time>
      </trkpt>
      <trkpt lon="35.05151879042387" lat="31.790356384590268">
        <ele>568.0</ele>
        <time>2014-07-12T06:27:54.000Z</time>
      </trkpt>
      <trkpt lon="35.05146011710167" lat="31.790335848927498">
        <ele>567.0</ele>
        <time>2014-07-12T06:27:55.000Z</time>
      </trkpt>
      <trkpt lon="35.05106884986162" lat="31.79015865549445">
        <ele>563.2000122070312</ele>
        <time>2014-07-12T06:28:03.000Z</time>
      </trkpt>
      <trkpt lon="35.051032304763794" lat="31.790123702958226">
        <ele>563.0</ele>
        <time>2014-07-12T06:28:04.000Z</time>
      </trkpt>
      <trkpt lon="35.05099852569401" lat="31.790082463994622">
        <ele>562.4000244140625</ele>
        <time>2014-07-12T06:28:05.000Z</time>
      </trkpt>
      <trkpt lon="35.0509680993855" lat="31.790032675489783">
        <ele>561.5999755859375</ele>
        <time>2014-07-12T06:28:06.000Z</time>
      </trkpt>
      <trkpt lon="35.050943959504366" lat="31.789979869499803">
        <ele>560.5999755859375</ele>
        <time>2014-07-12T06:28:07.000Z</time>
      </trkpt>
      <trkpt lon="35.050925854593515" lat="31.78993234410882">
        <ele>559.5999755859375</ele>
        <time>2014-07-12T06:28:08.000Z</time>
      </trkpt>
      <trkpt lon="35.0508370064199" lat="31.78959757089615">
        <ele>552.0</ele>
        <time>2014-07-12T06:28:15.000Z</time>
      </trkpt>
      <trkpt lon="35.050777327269316" lat="31.789430687204003">
        <ele>548.5999755859375</ele>
        <time>2014-07-12T06:28:18.000Z</time>
      </trkpt>
      <trkpt lon="35.05074631422758" lat="31.7893791384995">
        <ele>547.7999877929688</ele>
        <time>2014-07-12T06:28:19.000Z</time>
      </trkpt>
      <trkpt lon="35.05067406222224" lat="31.78928291425109">
        <ele>546.2000122070312</ele>
        <time>2014-07-12T06:28:21.000Z</time>
      </trkpt>
      <trkpt lon="35.05063156597316" lat="31.789239831268787">
        <ele>545.7999877929688</ele>
        <time>2014-07-12T06:28:22.000Z</time>
      </trkpt>
      <trkpt lon="35.050422018393874" lat="31.7890768032521">
        <ele>544.7999877929688</ele>
        <time>2014-07-12T06:28:26.000Z</time>
      </trkpt>
      <trkpt lon="35.05036703310907" lat="31.789050484076142">
        <ele>545.5999755859375</ele>
        <time>2014-07-12T06:28:27.000Z</time>
      </trkpt>
      <trkpt lon="35.050311125814915" lat="31.78903078660369">
        <ele>546.0</ele>
        <time>2014-07-12T06:28:28.000Z</time>
      </trkpt>
      <trkpt lon="35.050086826086044" lat="31.788965491577983">
        <ele>548.5999755859375</ele>
        <time>2014-07-12T06:28:32.000Z</time>
      </trkpt>
      <trkpt lon="35.0500354450196" lat="31.788948643952608">
        <ele>549.2000122070312</ele>
        <time>2014-07-12T06:28:33.000Z</time>
      </trkpt>
      <trkpt lon="35.04983930848539" lat="31.78891897201538">
        <ele>552.7999877929688</ele>
        <time>2014-07-12T06:28:37.000Z</time>
      </trkpt>
      <trkpt lon="35.04946329630911" lat="31.788961719721556">
        <ele>560.4000244140625</ele>
        <time>2014-07-12T06:28:45.000Z</time>
      </trkpt>
      <trkpt lon="35.04903791472316" lat="31.7890820838511">
        <ele>561.5999755859375</ele>
        <time>2014-07-12T06:28:53.000Z</time>
      </trkpt>
      <trkpt lon="35.048717223107815" lat="31.789188031107187">
        <ele>562.0</ele>
        <time>2014-07-12T06:29:01.000Z</time>
      </trkpt>
      <trkpt lon="35.048510609194636" lat="31.7892892844975">
        <ele>561.5999755859375</ele>
        <time>2014-07-12T06:29:08.000Z</time>
      </trkpt>
      <trkpt lon="35.0482845492661" lat="31.789363380521536">
        <ele>560.2000122070312</ele>
        <time>2014-07-12T06:29:14.000Z</time>
      </trkpt>
      <trkpt lon="35.04805086180568" lat="31.789434710517526">
        <ele>559.7999877929688</ele>
        <time>2014-07-12T06:29:20.000Z</time>
      </trkpt>
      <trkpt lon="35.04781784489751" lat="31.78943881765008">
        <ele>559.2000122070312</ele>
        <time>2014-07-12T06:29:26.000Z</time>
      </trkpt>
      <trkpt lon="35.047489274293184" lat="31.789320213720202">
        <ele>557.2000122070312</ele>
        <time>2014-07-12T06:29:33.000Z</time>
      </trkpt>
      <trkpt lon="35.04733571782708" lat="31.789201190695167">
        <ele>554.4000244140625</ele>
        <time>2014-07-12T06:29:39.000Z</time>
      </trkpt>
      <trkpt lon="35.04715098068118" lat="31.789032462984324">
        <ele>550.2000122070312</ele>
        <time>2014-07-12T06:29:45.000Z</time>
      </trkpt>
      <trkpt lon="35.046872617676854" lat="31.788793746381998">
        <ele>550.2000122070312</ele>
        <time>2014-07-12T06:29:53.000Z</time>
      </trkpt>
      <trkpt lon="35.046685533598065" lat="31.788594340905547">
        <ele>550.2000122070312</ele>
        <time>2014-07-12T06:29:58.000Z</time>
      </trkpt>
      <trkpt lon="35.0466578733176" lat="31.78855586796999">
        <ele>549.7999877929688</ele>
        <time>2014-07-12T06:29:59.000Z</time>
      </trkpt>
      <trkpt lon="35.04662920720875" lat="31.788518484681845">
        <ele>549.5999755859375</ele>
        <time>2014-07-12T06:30:00.000Z</time>
      </trkpt>
      <trkpt lon="35.04659844562411" lat="31.788483699783683">
        <ele>549.5999755859375</ele>
        <time>2014-07-12T06:30:01.000Z</time>
      </trkpt>
      <trkpt lon="35.046565840020776" lat="31.788451597094536">
        <ele>549.5999755859375</ele>
        <time>2014-07-12T06:30:02.000Z</time>
      </trkpt>
      <trkpt lon="35.0465334020555" lat="31.788426116108894">
        <ele>550.0</ele>
        <time>2014-07-12T06:30:03.000Z</time>
      </trkpt>
      <trkpt lon="35.04650188609958" lat="31.78841019049287">
        <ele>550.4000244140625</ele>
        <time>2014-07-12T06:30:04.000Z</time>
      </trkpt>
      <trkpt lon="35.04647280089557" lat="31.788403736427426">
        <ele>551.0</ele>
        <time>2014-07-12T06:30:05.000Z</time>
      </trkpt>
      <trkpt lon="35.04644388332963" lat="31.788403568789363">
        <ele>551.7999877929688</ele>
        <time>2014-07-12T06:30:06.000Z</time>
      </trkpt>
      <trkpt lon="35.046413792297244" lat="31.788404155522585">
        <ele>552.2000122070312</ele>
        <time>2014-07-12T06:30:07.000Z</time>
      </trkpt>
      <trkpt lon="35.046144565567374" lat="31.788463331758976">
        <ele>555.2000122070312</ele>
        <time>2014-07-12T06:30:14.000Z</time>
      </trkpt>
      <trkpt lon="35.04598757252097" lat="31.788516640663147">
        <ele>555.5999755859375</ele>
        <time>2014-07-12T06:30:17.000Z</time>
      </trkpt>
      <trkpt lon="35.045876344665885" lat="31.788572631776333">
        <ele>556.2000122070312</ele>
        <time>2014-07-12T06:30:19.000Z</time>
      </trkpt>
      <trkpt lon="35.045725889503956" lat="31.7886745557189">
        <ele>557.5999755859375</ele>
        <time>2014-07-12T06:30:22.000Z</time>
      </trkpt>
      <trkpt lon="35.04546999000013" lat="31.788875721395016">
        <ele>560.5999755859375</ele>
        <time>2014-07-12T06:30:28.000Z</time>
      </trkpt>
      <trkpt lon="35.04543352872133" lat="31.788905644789338">
        <ele>561.0</ele>
        <time>2014-07-12T06:30:29.000Z</time>
      </trkpt>
      <trkpt lon="35.04510395228863" lat="31.78911586292088">
        <ele>560.7999877929688</ele>
        <time>2014-07-12T06:30:38.000Z</time>
      </trkpt>
      <trkpt lon="35.044868756085634" lat="31.789221726357937">
        <ele>560.0</ele>
        <time>2014-07-12T06:30:44.000Z</time>
      </trkpt>
      <trkpt lon="35.04451193846762" lat="31.789302611723542">
        <ele>557.7999877929688</ele>
        <time>2014-07-12T06:30:51.000Z</time>
      </trkpt>
      <trkpt lon="35.044341031461954" lat="31.789332116022706">
        <ele>556.0</ele>
        <time>2014-07-12T06:30:54.000Z</time>
      </trkpt>
      <trkpt lon="35.0442835316062" lat="31.78934946656227">
        <ele>555.5999755859375</ele>
        <time>2014-07-12T06:30:55.000Z</time>
      </trkpt>
      <trkpt lon="35.04391967318952" lat="31.789470417425036">
        <ele>553.5999755859375</ele>
        <time>2014-07-12T06:31:02.000Z</time>
      </trkpt>
      <trkpt lon="35.043752286583185" lat="31.78953998722136">
        <ele>553.2000122070312</ele>
        <time>2014-07-12T06:31:08.000Z</time>
      </trkpt>
      <trkpt lon="35.04367173649371" lat="31.78958876989782">
        <ele>554.4000244140625</ele>
        <time>2014-07-12T06:31:14.000Z</time>
      </trkpt>
      <trkpt lon="35.04366813227534" lat="31.789601845666766">
        <ele>554.5999755859375</ele>
        <time>2014-07-12T06:31:15.000Z</time>
      </trkpt>
      <trkpt lon="35.04366905428469" lat="31.789616933092475">
        <ele>554.7999877929688</ele>
        <time>2014-07-12T06:31:16.000Z</time>
      </trkpt>
      <trkpt lon="35.043668299913406" lat="31.789641743525863">
        <ele>555.2000122070312</ele>
        <time>2014-07-12T06:31:22.000Z</time>
      </trkpt>
      <trkpt lon="35.04366737790406" lat="31.78966261446476">
        <ele>555.5999755859375</ele>
        <time>2014-07-12T06:31:39.000Z</time>
      </trkpt>
      <trkpt lon="35.04367693327367" lat="31.789670241996646">
        <ele>555.7999877929688</ele>
        <time>2014-07-12T06:31:52.000Z</time>
      </trkpt>
      <trkpt lon="35.043690763413906" lat="31.789674013853073">
        <ele>555.7999877929688</ele>
        <time>2014-07-12T06:32:02.000Z</time>
      </trkpt>
      <trkpt lon="35.04369109869003" lat="31.78967183455825">
        <ele>555.7999877929688</ele>
        <time>2014-07-12T06:32:21.000Z</time>
      </trkpt>
      <trkpt lon="35.043689673766494" lat="31.78968415595591">
        <ele>556.0</ele>
        <time>2014-07-12T06:32:41.000Z</time>
      </trkpt>
      <trkpt lon="35.04368699155748" lat="31.78966705687344">
        <ele>555.5999755859375</ele>
        <time>2014-07-12T06:33:04.000Z</time>
      </trkpt>
      <trkpt lon="35.04368129186332" lat="31.789653981104493">
        <ele>555.4000244140625</ele>
        <time>2014-07-12T06:33:23.000Z</time>
      </trkpt>
      <trkpt lon="35.0436788611114" lat="31.789661357179284">
        <ele>555.5999755859375</ele>
        <time>2014-07-12T06:33:44.000Z</time>
      </trkpt>
      <trkpt lon="35.04369520582259" lat="31.789679042994976">
        <ele>555.7999877929688</ele>
        <time>2014-07-12T06:34:03.000Z</time>
      </trkpt>
      <trkpt lon="35.04367835819721" lat="31.789665799587965">
        <ele>555.5999755859375</ele>
        <time>2014-07-12T06:34:26.000Z</time>
      </trkpt>
      <trkpt lon="35.04367835819721" lat="31.78965389728546">
        <ele>555.4000244140625</ele>
        <time>2014-07-12T06:34:46.000Z</time>
      </trkpt>
      <trkpt lon="35.04367860965431" lat="31.78965523838997">
        <ele>555.4000244140625</ele>
        <time>2014-07-12T06:35:08.000Z</time>
      </trkpt>
      <trkpt lon="35.0436532124877" lat="31.78965289145708">
        <ele>555.5999755859375</ele>
        <time>2014-07-12T06:35:23.000Z</time>
      </trkpt>
      <trkpt lon="35.04362060688436" lat="31.789611652493477">
        <ele>555.0</ele>
        <time>2014-07-12T06:35:31.000Z</time>
      </trkpt>
      <trkpt lon="35.0436220318079" lat="31.789597822353244">
        <ele>554.7999877929688</ele>
        <time>2014-07-12T06:35:32.000Z</time>
      </trkpt>
      <trkpt lon="35.04362949170172" lat="31.789585249498487">
        <ele>554.4000244140625</ele>
        <time>2014-07-12T06:35:33.000Z</time>
      </trkpt>
      <trkpt lon="35.04367156885564" lat="31.789576448500156">
        <ele>554.2000122070312</ele>
        <time>2014-07-12T06:35:39.000Z</time>
      </trkpt>
      <trkpt lon="35.04368950612843" lat="31.78958784788847">
        <ele>554.4000244140625</ele>
        <time>2014-07-12T06:36:00.000Z</time>
      </trkpt>
      <trkpt lon="35.04371649585664" lat="31.789572928100824">
        <ele>554.0</ele>
        <time>2014-07-12T06:36:08.000Z</time>
      </trkpt>
      <trkpt lon="35.04369738511741" lat="31.78957368247211">
        <ele>554.0</ele>
        <time>2014-07-12T06:36:29.000Z</time>
      </trkpt>
      <trkpt lon="35.04367684945464" lat="31.78959463723004">
        <ele>554.4000244140625</ele>
        <time>2014-07-12T06:36:39.000Z</time>
      </trkpt>
      <trkpt lon="35.04365153610706" lat="31.789597822353244">
        <ele>554.5999755859375</ele>
        <time>2014-07-12T06:36:41.000Z</time>
      </trkpt>
      <trkpt lon="35.04348482005298" lat="31.789553482085466">
        <ele>554.4000244140625</ele>
        <time>2014-07-12T06:36:46.000Z</time>
      </trkpt>
      <trkpt lon="35.043429834768176" lat="31.78953554481268">
        <ele>554.4000244140625</ele>
        <time>2014-07-12T06:36:47.000Z</time>
      </trkpt>
      <trkpt lon="35.04337342455983" lat="31.78951844573021">
        <ele>554.2000122070312</ele>
        <time>2014-07-12T06:36:48.000Z</time>
      </trkpt>
      <trkpt lon="35.04331760108471" lat="31.789496736600995">
        <ele>553.7999877929688</ele>
        <time>2014-07-12T06:36:49.000Z</time>
      </trkpt>
      <trkpt lon="35.04326638765633" lat="31.789470836520195">
        <ele>553.4000244140625</ele>
        <time>2014-07-12T06:36:50.000Z</time>
      </trkpt>
      <trkpt lon="35.04321852698922" lat="31.78943638689816">
        <ele>552.7999877929688</ele>
        <time>2014-07-12T06:36:51.000Z</time>
      </trkpt>
      <trkpt lon="35.04317636601627" lat="31.78939967416227">
        <ele>552.4000244140625</ele>
        <time>2014-07-12T06:36:52.000Z</time>
      </trkpt>
      <trkpt lon="35.04313822835684" lat="31.789358519017696">
        <ele>551.7999877929688</ele>
        <time>2014-07-12T06:36:53.000Z</time>
      </trkpt>
      <trkpt lon="35.04310067743063" lat="31.789312167093158">
        <ele>551.2000122070312</ele>
        <time>2014-07-12T06:36:54.000Z</time>
      </trkpt>
      <trkpt lon="35.04306924529374" lat="31.789265060797334">
        <ele>550.5999755859375</ele>
        <time>2014-07-12T06:36:55.000Z</time>
      </trkpt>
      <trkpt lon="35.043043345212936" lat="31.789213931187987">
        <ele>550.0</ele>
        <time>2014-07-12T06:36:56.000Z</time>
      </trkpt>
      <trkpt lon="35.043018870055676" lat="31.78916179575026">
        <ele>549.4000244140625</ele>
        <time>2014-07-12T06:36:57.000Z</time>
      </trkpt>
      <trkpt lon="35.04298978485167" lat="31.78911049850285">
        <ele>548.7999877929688</ele>
        <time>2014-07-12T06:36:58.000Z</time>
      </trkpt>
      <trkpt lon="35.0428001023829" lat="31.788687212392688">
        <ele>541.7999877929688</ele>
        <time>2014-07-12T06:37:06.000Z</time>
      </trkpt>
      <trkpt lon="35.04272994585335" lat="31.788532733917236">
        <ele>539.5999755859375</ele>
        <time>2014-07-12T06:37:09.000Z</time>
      </trkpt>
      <trkpt lon="35.04269566386938" lat="31.78848646581173">
        <ele>539.2000122070312</ele>
        <time>2014-07-12T06:37:10.000Z</time>
      </trkpt>
      <trkpt lon="35.0426568556577" lat="31.78844195790589">
        <ele>539.0</ele>
        <time>2014-07-12T06:37:11.000Z</time>
      </trkpt>
      <trkpt lon="35.04255920648575" lat="31.788327042013407">
        <ele>538.5999755859375</ele>
        <time>2014-07-12T06:37:14.000Z</time>
      </trkpt>
      <trkpt lon="35.04252760671079" lat="31.78829594515264">
        <ele>538.5999755859375</ele>
        <time>2014-07-12T06:37:15.000Z</time>
      </trkpt>
      <trkpt lon="35.04249969497323" lat="31.788266776129603">
        <ele>538.5999755859375</ele>
        <time>2014-07-12T06:37:16.000Z</time>
      </trkpt>
      <trkpt lon="35.04239039495587" lat="31.788111543282866">
        <ele>535.7999877929688</ele>
        <time>2014-07-12T06:37:21.000Z</time>
      </trkpt>
      <trkpt lon="35.04235443659127" lat="31.788071896880865">
        <ele>535.2000122070312</ele>
        <time>2014-07-12T06:37:22.000Z</time>
      </trkpt>
      <trkpt lon="35.04230481572449" lat="31.788031412288547">
        <ele>534.7999877929688</ele>
        <time>2014-07-12T06:37:23.000Z</time>
      </trkpt>
      <trkpt lon="35.04225184209645" lat="31.7879958730191">
        <ele>534.7999877929688</ele>
        <time>2014-07-12T06:37:24.000Z</time>
      </trkpt>
      <trkpt lon="35.04219719208777" lat="31.787961507216096">
        <ele>534.7999877929688</ele>
        <time>2014-07-12T06:37:25.000Z</time>
      </trkpt>
      <trkpt lon="35.042144218459725" lat="31.787928231060505">
        <ele>534.7999877929688</ele>
        <time>2014-07-12T06:37:26.000Z</time>
      </trkpt>
      <trkpt lon="35.042092418298125" lat="31.787899397313595">
        <ele>535.0</ele>
        <time>2014-07-12T06:37:27.000Z</time>
      </trkpt>
      <trkpt lon="35.0420434679836" lat="31.787879029288888">
        <ele>535.2000122070312</ele>
        <time>2014-07-12T06:37:28.000Z</time>
      </trkpt>
      <trkpt lon="35.04198705777526" lat="31.787855308502913">
        <ele>535.0</ele>
        <time>2014-07-12T06:37:29.000Z</time>
      </trkpt>
      <trkpt lon="35.041935592889786" lat="31.787831000983715">
        <ele>535.0</ele>
        <time>2014-07-12T06:37:30.000Z</time>
      </trkpt>
      <trkpt lon="35.04188655875623" lat="31.78781264461577">
        <ele>535.0</ele>
        <time>2014-07-12T06:37:31.000Z</time>
      </trkpt>
      <trkpt lon="35.041833082214" lat="31.787796718999743">
        <ele>535.2000122070312</ele>
        <time>2014-07-12T06:37:32.000Z</time>
      </trkpt>
      <trkpt lon="35.04163132980466" lat="31.787756569683552">
        <ele>537.0</ele>
        <time>2014-07-12T06:37:36.000Z</time>
      </trkpt>
      <trkpt lon="35.04158045165241" lat="31.787758329883218">
        <ele>537.5999755859375</ele>
        <time>2014-07-12T06:37:37.000Z</time>
      </trkpt>
      <trkpt lon="35.0415273103863" lat="31.78775598295033">
        <ele>538.0</ele>
        <time>2014-07-12T06:37:38.000Z</time>
      </trkpt>
      <trkpt lon="35.04129915498197" lat="31.78774969652295">
        <ele>540.0</ele>
        <time>2014-07-12T06:37:42.000Z</time>
      </trkpt>
      <trkpt lon="35.04083043895662" lat="31.787674259394407">
        <ele>538.4000244140625</ele>
        <time>2014-07-12T06:37:49.000Z</time>
      </trkpt>
      <trkpt lon="35.0402095913887" lat="31.78756990469992">
        <ele>537.0</ele>
        <time>2014-07-12T06:37:56.000Z</time>
      </trkpt>
      <trkpt lon="35.03976828418672" lat="31.787504106760025">
        <ele>537.4000244140625</ele>
        <time>2014-07-12T06:38:01.000Z</time>
      </trkpt>
      <trkpt lon="35.039691338315606" lat="31.787474351003766">
        <ele>536.7999877929688</ele>
        <time>2014-07-12T06:38:02.000Z</time>
      </trkpt>
      <trkpt lon="35.03920426592231" lat="31.787254493683577">
        <ele>532.5999755859375</ele>
        <time>2014-07-12T06:38:09.000Z</time>
      </trkpt>
      <trkpt lon="35.03880470059812" lat="31.78696732968092">
        <ele>525.7999877929688</ele>
        <time>2014-07-12T06:38:16.000Z</time>
      </trkpt>
      <trkpt lon="35.038512675091624" lat="31.78672106936574">
        <ele>525.2000122070312</ele>
        <time>2014-07-12T06:38:22.000Z</time>
      </trkpt>
      <trkpt lon="35.03823339007795" lat="31.78637900389731">
        <ele>522.7999877929688</ele>
        <time>2014-07-12T06:38:29.000Z</time>
      </trkpt>
      <trkpt lon="35.03790414892137" lat="31.785863684490323">
        <ele>518.2000122070312</ele>
        <time>2014-07-12T06:38:38.000Z</time>
      </trkpt>
      <trkpt lon="35.03766073845327" lat="31.78546034730971">
        <ele>518.7999877929688</ele>
        <time>2014-07-12T06:38:45.000Z</time>
      </trkpt>
      <trkpt lon="35.037475330755115" lat="31.785005629062653">
        <ele>514.7999877929688</ele>
        <time>2014-07-12T06:38:53.000Z</time>
      </trkpt>
      <trkpt lon="35.03744289278984" lat="31.784786442294717">
        <ele>512.4000244140625</ele>
        <time>2014-07-12T06:38:57.000Z</time>
      </trkpt>
      <trkpt lon="35.03742923028767" lat="31.784464744850993">
        <ele>511.3999938964844</ele>
        <time>2014-07-12T06:39:04.000Z</time>
      </trkpt>
      <trkpt lon="35.03745613619685" lat="31.784173473715782">
        <ele>506.6000061035156</ele>
        <time>2014-07-12T06:39:12.000Z</time>
      </trkpt>
      <trkpt lon="35.03741858527064" lat="31.783907767385244">
        <ele>505.0</ele>
        <time>2014-07-12T06:39:21.000Z</time>
      </trkpt>
      <trkpt lon="35.03739930689335" lat="31.78375404328108">
        <ele>503.79998779296875</ele>
        <time>2014-07-12T06:39:25.000Z</time>
      </trkpt>
      <trkpt lon="35.03738027997315" lat="31.783710960298777">
        <ele>504.3999938964844</ele>
        <time>2014-07-12T06:39:26.000Z</time>
      </trkpt>
      <trkpt lon="35.037355637177825" lat="31.783662512898445">
        <ele>505.0</ele>
        <time>2014-07-12T06:39:27.000Z</time>
      </trkpt>
      <trkpt lon="35.03721121698618" lat="31.783425556495786">
        <ele>510.0</ele>
        <time>2014-07-12T06:39:31.000Z</time>
      </trkpt>
      <trkpt lon="35.03715489059687" lat="31.783367386087775">
        <ele>512.4000244140625</ele>
        <time>2014-07-12T06:39:32.000Z</time>
      </trkpt>
      <trkpt lon="35.03710065968335" lat="31.78331097587943">
        <ele>514.7999877929688</ele>
        <time>2014-07-12T06:39:33.000Z</time>
      </trkpt>
      <trkpt lon="35.03704559057951" lat="31.78325674496591">
        <ele>516.0</ele>
        <time>2014-07-12T06:39:34.000Z</time>
      </trkpt>
      <trkpt lon="35.0369961373508" lat="31.783201759681106">
        <ele>516.5999755859375</ele>
        <time>2014-07-12T06:39:35.000Z</time>
      </trkpt>
      <trkpt lon="35.036946097388864" lat="31.783145517110825">
        <ele>516.0</ele>
        <time>2014-07-12T06:39:36.000Z</time>
      </trkpt>
      <trkpt lon="35.036752726882696" lat="31.782898921519518">
        <ele>512.4000244140625</ele>
        <time>2014-07-12T06:39:41.000Z</time>
      </trkpt>
      <trkpt lon="35.03671132028103" lat="31.782866651192307">
        <ele>512.5999755859375</ele>
        <time>2014-07-12T06:39:42.000Z</time>
      </trkpt>
      <trkpt lon="35.036660274490714" lat="31.782841002568603">
        <ele>513.2000122070312</ele>
        <time>2014-07-12T06:39:43.000Z</time>
      </trkpt>
      <trkpt lon="35.036605624482036" lat="31.782825831323862">
        <ele>514.4000244140625</ele>
        <time>2014-07-12T06:39:44.000Z</time>
      </trkpt>
      <trkpt lon="35.03654720261693" lat="31.782817617058754">
        <ele>515.7999877929688</ele>
        <time>2014-07-12T06:39:45.000Z</time>
      </trkpt>
      <trkpt lon="35.036486601457" lat="31.782814683392644">
        <ele>517.7999877929688</ele>
        <time>2014-07-12T06:39:46.000Z</time>
      </trkpt>
      <trkpt lon="35.036427760496736" lat="31.782818287611008">
        <ele>519.7999877929688</ele>
        <time>2014-07-12T06:39:47.000Z</time>
      </trkpt>
      <trkpt lon="35.03636841662228" lat="31.78282423876226">
        <ele>522.0</ele>
        <time>2014-07-12T06:39:48.000Z</time>
      </trkpt>
      <trkpt lon="35.036313347518444" lat="31.782837733626366">
        <ele>524.2000122070312</ele>
        <time>2014-07-12T06:39:49.000Z</time>
      </trkpt>
      <trkpt lon="35.03591202199459" lat="31.78294887766242">
        <ele>526.4000244140625</ele>
        <time>2014-07-12T06:39:56.000Z</time>
      </trkpt>
      <trkpt lon="35.03586013801396" lat="31.78296941332519">
        <ele>527.5999755859375</ele>
        <time>2014-07-12T06:39:57.000Z</time>
      </trkpt>
      <trkpt lon="35.03571655601263" lat="31.78302565589547">
        <ele>531.0</ele>
        <time>2014-07-12T06:40:00.000Z</time>
      </trkpt>
      <trkpt lon="35.035668862983584" lat="31.783037474378943">
        <ele>531.7999877929688</ele>
        <time>2014-07-12T06:40:01.000Z</time>
      </trkpt>
      <trkpt lon="35.03516620025039" lat="31.78309782408178">
        <ele>534.7999877929688</ele>
        <time>2014-07-12T06:40:10.000Z</time>
      </trkpt>
      <trkpt lon="35.0351014919579" lat="31.783088268712163">
        <ele>534.2000122070312</ele>
        <time>2014-07-12T06:40:11.000Z</time>
      </trkpt>
      <trkpt lon="35.035037621855736" lat="31.783076282590628">
        <ele>533.5999755859375</ele>
        <time>2014-07-12T06:40:12.000Z</time>
      </trkpt>
      <trkpt lon="35.034969225525856" lat="31.783055160194635">
        <ele>532.2000122070312</ele>
        <time>2014-07-12T06:40:13.000Z</time>
      </trkpt>
      <trkpt lon="35.034903762862086" lat="31.78303294815123">
        <ele>531.0</ele>
        <time>2014-07-12T06:40:14.000Z</time>
      </trkpt>
      <trkpt lon="35.03460528329015" lat="31.782913841307163">
        <ele>523.5999755859375</ele>
        <time>2014-07-12T06:40:18.000Z</time>
      </trkpt>
      <trkpt lon="35.03408904187381" lat="31.782718375325203">
        <ele>514.5999755859375</ele>
        <time>2014-07-12T06:40:24.000Z</time>
      </trkpt>
      <trkpt lon="35.03353516571224" lat="31.78256129845977">
        <ele>513.5999755859375</ele>
        <time>2014-07-12T06:40:30.000Z</time>
      </trkpt>
      <trkpt lon="35.03345872275531" lat="31.782523076981306">
        <ele>513.2000122070312</ele>
        <time>2014-07-12T06:40:31.000Z</time>
      </trkpt>
      <trkpt lon="35.03338529728353" lat="31.782478149980307">
        <ele>512.2000122070312</ele>
        <time>2014-07-12T06:40:32.000Z</time>
      </trkpt>
      <trkpt lon="35.033319583162665" lat="31.782427188009024">
        <ele>510.79998779296875</ele>
        <time>2014-07-12T06:40:33.000Z</time>
      </trkpt>
      <trkpt lon="35.03325629979372" lat="31.782370023429394">
        <ele>508.79998779296875</ele>
        <time>2014-07-12T06:40:34.000Z</time>
      </trkpt>
      <trkpt lon="35.03286444582045" lat="31.781912622973323">
        <ele>498.6000061035156</ele>
        <time>2014-07-12T06:40:41.000Z</time>
      </trkpt>
      <trkpt lon="35.03246865235269" lat="31.781431334093213">
        <ele>490.79998779296875</ele>
        <time>2014-07-12T06:40:49.000Z</time>
      </trkpt>
      <trkpt lon="35.03240704536438" lat="31.78139202296734">
        <ele>491.6000061035156</ele>
        <time>2014-07-12T06:40:50.000Z</time>
      </trkpt>
      <trkpt lon="35.032338900491595" lat="31.781363021582365">
        <ele>493.0</ele>
        <time>2014-07-12T06:40:51.000Z</time>
      </trkpt>
      <trkpt lon="35.032270504161716" lat="31.781345503404737">
        <ele>494.79998779296875</ele>
        <time>2014-07-12T06:40:52.000Z</time>
      </trkpt>
      <trkpt lon="35.03219707868993" lat="31.78134324029088">
        <ele>497.20001220703125</ele>
        <time>2014-07-12T06:40:53.000Z</time>
      </trkpt>
      <trkpt lon="35.032125329598784" lat="31.78134759888053">
        <ele>500.0</ele>
        <time>2014-07-12T06:40:54.000Z</time>
      </trkpt>
      <trkpt lon="35.03161193802953" lat="31.781353801488876">
        <ele>503.79998779296875</ele>
        <time>2014-07-12T06:41:01.000Z</time>
      </trkpt>
      <trkpt lon="35.03117524087429" lat="31.781323458999395">
        <ele>502.79998779296875</ele>
        <time>2014-07-12T06:41:06.000Z</time>
      </trkpt>
      <trkpt lon="35.03109603188932" lat="31.781345000490546">
        <ele>502.79998779296875</ele>
        <time>2014-07-12T06:41:07.000Z</time>
      </trkpt>
      <trkpt lon="35.03103249706328" lat="31.781379785388708">
        <ele>502.6000061035156</ele>
        <time>2014-07-12T06:41:08.000Z</time>
      </trkpt>
      <trkpt lon="35.030992683023214" lat="31.781421191990376">
        <ele>502.79998779296875</ele>
        <time>2014-07-12T06:41:09.000Z</time>
      </trkpt>
      <trkpt lon="35.03098011016846" lat="31.781464526429772">
        <ele>503.6000061035156</ele>
        <time>2014-07-12T06:41:10.000Z</time>
      </trkpt>
      <trkpt lon="35.03098329529166" lat="31.781509118154645">
        <ele>504.6000061035156</ele>
        <time>2014-07-12T06:41:11.000Z</time>
      </trkpt>
      <trkpt lon="35.030995616689324" lat="31.781549770385027">
        <ele>505.79998779296875</ele>
        <time>2014-07-12T06:41:12.000Z</time>
      </trkpt>
      <trkpt lon="35.03100617788732" lat="31.78158455528319">
        <ele>506.3999938964844</ele>
        <time>2014-07-12T06:41:13.000Z</time>
      </trkpt>
      <trkpt lon="35.031013721600175" lat="31.7816149815917">
        <ele>506.79998779296875</ele>
        <time>2014-07-12T06:41:14.000Z</time>
      </trkpt>
      <trkpt lon="35.03102218732238" lat="31.781642390415072">
        <ele>507.3999938964844</ele>
        <time>2014-07-12T06:41:15.000Z</time>
      </trkpt>
      <trkpt lon="35.031070467084646" lat="31.781861074268818">
        <ele>511.0</ele>
        <time>2014-07-12T06:41:22.000Z</time>
      </trkpt>
      <trkpt lon="35.031063510105014" lat="31.782136000692844">
        <ele>514.2000122070312</ele>
        <time>2014-07-12T06:41:29.000Z</time>
      </trkpt>
      <trkpt lon="35.03097181208432" lat="31.782505977898836">
        <ele>516.7999877929688</ele>
        <time>2014-07-12T06:41:36.000Z</time>
      </trkpt>
      <trkpt lon="35.03094264306128" lat="31.782555431127548">
        <ele>517.0</ele>
        <time>2014-07-12T06:41:37.000Z</time>
      </trkpt>
      <trkpt lon="35.0309051759541" lat="31.782603291794658">
        <ele>517.0</ele>
        <time>2014-07-12T06:41:38.000Z</time>
      </trkpt>
      <trkpt lon="35.030861254781485" lat="31.782652074471116">
        <ele>516.7999877929688</ele>
        <time>2014-07-12T06:41:39.000Z</time>
      </trkpt>
      <trkpt lon="35.030812388285995" lat="31.782690212130547">
        <ele>516.2000122070312</ele>
        <time>2014-07-12T06:41:40.000Z</time>
      </trkpt>
      <trkpt lon="35.030759582296014" lat="31.78272114135325">
        <ele>515.5999755859375</ele>
        <time>2014-07-12T06:41:41.000Z</time>
      </trkpt>
      <trkpt lon="35.03070459701121" lat="31.78275492042303">
        <ele>515.7999877929688</ele>
        <time>2014-07-12T06:41:42.000Z</time>
      </trkpt>
      <trkpt lon="35.03064516931772" lat="31.78277679719031">
        <ele>515.5999755859375</ele>
        <time>2014-07-12T06:41:43.000Z</time>
      </trkpt>
      <trkpt lon="35.030584651976824" lat="31.78279054351151">
        <ele>515.2000122070312</ele>
        <time>2014-07-12T06:41:44.000Z</time>
      </trkpt>
      <trkpt lon="35.03052346408367" lat="31.78280219435692">
        <ele>514.7999877929688</ele>
        <time>2014-07-12T06:41:45.000Z</time>
      </trkpt>
      <trkpt lon="35.03046093508601" lat="31.782811162993312">
        <ele>514.4000244140625</ele>
        <time>2014-07-12T06:41:46.000Z</time>
      </trkpt>
      <trkpt lon="35.03039882518351" lat="31.782819041982293">
        <ele>513.7999877929688</ele>
        <time>2014-07-12T06:41:47.000Z</time>
      </trkpt>
      <trkpt lon="35.02992130815983" lat="31.782803116366267">
        <ele>509.3999938964844</ele>
        <time>2014-07-12T06:41:54.000Z</time>
      </trkpt>
      <trkpt lon="35.029200883582234" lat="31.78266942501068">
        <ele>500.20001220703125</ele>
        <time>2014-07-12T06:42:03.000Z</time>
      </trkpt>
      <trkpt lon="35.02903986722231" lat="31.782638495787978">
        <ele>498.20001220703125</ele>
        <time>2014-07-12T06:42:05.000Z</time>
      </trkpt>
      <trkpt lon="35.028965435922146" lat="31.782634053379297">
        <ele>497.20001220703125</ele>
        <time>2014-07-12T06:42:06.000Z</time>
      </trkpt>
      <trkpt lon="35.028893519192934" lat="31.78264201618731">
        <ele>496.3999938964844</ele>
        <time>2014-07-12T06:42:07.000Z</time>
      </trkpt>
      <trkpt lon="35.02882353030145" lat="31.782665820792317">
        <ele>495.79998779296875</ele>
        <time>2014-07-12T06:42:08.000Z</time>
      </trkpt>
      <trkpt lon="35.028760666027665" lat="31.78270060569048">
        <ele>495.3999938964844</ele>
        <time>2014-07-12T06:42:09.000Z</time>
      </trkpt>
      <trkpt lon="35.02870291471481" lat="31.782743856310844">
        <ele>495.6000061035156</ele>
        <time>2014-07-12T06:42:10.000Z</time>
      </trkpt>
      <trkpt lon="35.0286481808871" lat="31.78279255516827">
        <ele>495.79998779296875</ele>
        <time>2014-07-12T06:42:11.000Z</time>
      </trkpt>
      <trkpt lon="35.028593614697456" lat="31.782846366986632">
        <ele>496.20001220703125</ele>
        <time>2014-07-12T06:42:12.000Z</time>
      </trkpt>
      <trkpt lon="35.02819983288646" lat="31.783234365284443">
        <ele>493.79998779296875</ele>
        <time>2014-07-12T06:42:19.000Z</time>
      </trkpt>
      <trkpt lon="35.02817125059664" lat="31.783288093283772">
        <ele>492.79998779296875</ele>
        <time>2014-07-12T06:42:20.000Z</time>
      </trkpt>
      <trkpt lon="35.02816462889314" lat="31.783345844596624">
        <ele>492.20001220703125</ele>
        <time>2014-07-12T06:42:21.000Z</time>
      </trkpt>
      <trkpt lon="35.028185416013" lat="31.7834057752043">
        <ele>492.20001220703125</ele>
        <time>2014-07-12T06:42:22.000Z</time>
      </trkpt>
      <trkpt lon="35.02822053618729" lat="31.783466041088104">
        <ele>492.20001220703125</ele>
        <time>2014-07-12T06:42:23.000Z</time>
      </trkpt>
      <trkpt lon="35.028263702988625" lat="31.78352639079094">
        <ele>492.6000061035156</ele>
        <time>2014-07-12T06:42:24.000Z</time>
      </trkpt>
      <trkpt lon="35.0283117312938" lat="31.78358749486506">
        <ele>492.79998779296875</ele>
        <time>2014-07-12T06:42:25.000Z</time>
      </trkpt>
      <trkpt lon="35.02850593999028" lat="31.783854039385915">
        <ele>493.6000061035156</ele>
        <time>2014-07-12T06:42:29.000Z</time>
      </trkpt>
      <trkpt lon="35.02853326499462" lat="31.783923776820302">
        <ele>493.0</ele>
        <time>2014-07-12T06:42:30.000Z</time>
      </trkpt>
      <trkpt lon="35.028544161468744" lat="31.783992256969213">
        <ele>492.0</ele>
        <time>2014-07-12T06:42:31.000Z</time>
      </trkpt>
      <trkpt lon="35.028559835627675" lat="31.78412008099258">
        <ele>490.20001220703125</ele>
        <time>2014-07-12T06:42:33.000Z</time>
      </trkpt>
      <trkpt lon="35.02857819199562" lat="31.78418210707605">
        <ele>489.6000061035156</ele>
        <time>2014-07-12T06:42:34.000Z</time>
      </trkpt>
      <trkpt lon="35.02860937267542" lat="31.784241199493408">
        <ele>489.6000061035156</ele>
        <time>2014-07-12T06:42:35.000Z</time>
      </trkpt>
      <trkpt lon="35.02865044400096" lat="31.784297106787562">
        <ele>489.79998779296875</ele>
        <time>2014-07-12T06:42:36.000Z</time>
      </trkpt>
      <trkpt lon="35.028700064867735" lat="31.784349493682384">
        <ele>490.3999938964844</ele>
        <time>2014-07-12T06:42:37.000Z</time>
      </trkpt>
      <trkpt lon="35.02875303849578" lat="31.78439626470208">
        <ele>491.0</ele>
        <time>2014-07-12T06:42:38.000Z</time>
      </trkpt>
      <trkpt lon="35.02880970016122" lat="31.78443876095116">
        <ele>492.6000061035156</ele>
        <time>2014-07-12T06:42:39.000Z</time>
      </trkpt>
      <trkpt lon="35.02903223969042" lat="31.784612014889717">
        <ele>498.3999938964844</ele>
        <time>2014-07-12T06:42:43.000Z</time>
      </trkpt>
      <trkpt lon="35.02907758578658" lat="31.784661300480366">
        <ele>499.3999938964844</ele>
        <time>2014-07-12T06:42:44.000Z</time>
      </trkpt>
      <trkpt lon="35.02911287359893" lat="31.78471377119422">
        <ele>500.0</ele>
        <time>2014-07-12T06:42:45.000Z</time>
      </trkpt>
      <trkpt lon="35.02914204262197" lat="31.784771187230945">
        <ele>500.20001220703125</ele>
        <time>2014-07-12T06:42:46.000Z</time>
      </trkpt>
      <trkpt lon="35.029162745922804" lat="31.78483405150473">
        <ele>500.0</ele>
        <time>2014-07-12T06:42:47.000Z</time>
      </trkpt>
      <trkpt lon="35.029165679588914" lat="31.784903286024928">
        <ele>499.20001220703125</ele>
        <time>2014-07-12T06:42:48.000Z</time>
      </trkpt>
      <trkpt lon="35.02915319055319" lat="31.784974616020918">
        <ele>498.79998779296875</ele>
        <time>2014-07-12T06:42:49.000Z</time>
      </trkpt>
      <trkpt lon="35.0291267875582" lat="31.785044353455305">
        <ele>498.0</ele>
        <time>2014-07-12T06:42:50.000Z</time>
      </trkpt>
      <trkpt lon="35.02909108065069" lat="31.785114258527756">
        <ele>496.6000061035156</ele>
        <time>2014-07-12T06:42:51.000Z</time>
      </trkpt>
      <trkpt lon="35.02904824912548" lat="31.785180559381843">
        <ele>495.0</ele>
        <time>2014-07-12T06:42:52.000Z</time>
      </trkpt>
      <trkpt lon="35.028770472854376" lat="31.78565195761621">
        <ele>486.3999938964844</ele>
        <time>2014-07-12T06:42:59.000Z</time>
      </trkpt>
      <trkpt lon="35.02875396050513" lat="31.785724377259612">
        <ele>485.79998779296875</ele>
        <time>2014-07-12T06:43:00.000Z</time>
      </trkpt>
      <trkpt lon="35.028755720704794" lat="31.786224525421858">
        <ele>481.20001220703125</ele>
        <time>2014-07-12T06:43:06.000Z</time>
      </trkpt>
      <trkpt lon="35.02878237515688" lat="31.786560472100973">
        <ele>478.6000061035156</ele>
        <time>2014-07-12T06:43:10.000Z</time>
      </trkpt>
      <trkpt lon="35.02880349755287" lat="31.786626521497965">
        <ele>477.6000061035156</ele>
        <time>2014-07-12T06:43:11.000Z</time>
      </trkpt>
      <trkpt lon="35.028835935518146" lat="31.786688128486276">
        <ele>477.20001220703125</ele>
        <time>2014-07-12T06:43:12.000Z</time>
      </trkpt>
      <trkpt lon="35.02923441119492" lat="31.78722440265119">
        <ele>477.6000061035156</ele>
        <time>2014-07-12T06:43:21.000Z</time>
      </trkpt>
      <trkpt lon="35.02962769009173" lat="31.787891937419772">
        <ele>470.79998779296875</ele>
        <time>2014-07-12T06:43:31.000Z</time>
      </trkpt>
      <trkpt lon="35.02971603535116" lat="31.788024036213756">
        <ele>468.3999938964844</ele>
        <time>2014-07-12T06:43:33.000Z</time>
      </trkpt>
      <trkpt lon="35.03010889515281" lat="31.78846157155931">
        <ele>466.79998779296875</ele>
        <time>2014-07-12T06:43:40.000Z</time>
      </trkpt>
      <trkpt lon="35.030472334474325" lat="31.788706239312887">
        <ele>470.0</ele>
        <time>2014-07-12T06:43:46.000Z</time>
      </trkpt>
      <trkpt lon="35.030562272295356" lat="31.788754016160965">
        <ele>469.79998779296875</ele>
        <time>2014-07-12T06:43:48.000Z</time>
      </trkpt>
      <trkpt lon="35.03059211187065" lat="31.788781508803368">
        <ele>469.3999938964844</ele>
        <time>2014-07-12T06:43:49.000Z</time>
      </trkpt>
      <trkpt lon="35.03060979768634" lat="31.788809671998024">
        <ele>469.20001220703125</ele>
        <time>2014-07-12T06:43:50.000Z</time>
      </trkpt>
      <trkpt lon="35.03061390481889" lat="31.78883976303041">
        <ele>468.6000061035156</ele>
        <time>2014-07-12T06:43:51.000Z</time>
      </trkpt>
      <trkpt lon="35.03060367889702" lat="31.7888714466244">
        <ele>468.0</ele>
        <time>2014-07-12T06:43:52.000Z</time>
      </trkpt>
      <trkpt lon="35.0305806286633" lat="31.78890480659902">
        <ele>467.3999938964844</ele>
        <time>2014-07-12T06:43:53.000Z</time>
      </trkpt>
      <trkpt lon="35.030549531802535" lat="31.788933388888836">
        <ele>466.6000061035156</ele>
        <time>2014-07-12T06:43:54.000Z</time>
      </trkpt>
      <trkpt lon="35.03051659092307" lat="31.78895895369351">
        <ele>466.0</ele>
        <time>2014-07-12T06:43:55.000Z</time>
      </trkpt>
      <trkpt lon="35.030480632558465" lat="31.788975382223725">
        <ele>465.6000061035156</ele>
        <time>2014-07-12T06:43:56.000Z</time>
      </trkpt>
      <trkpt lon="35.0304442550987" lat="31.788985272869468">
        <ele>465.20001220703125</ele>
        <time>2014-07-12T06:43:57.000Z</time>
      </trkpt>
      <trkpt lon="35.030409805476665" lat="31.788988038897514">
        <ele>464.79998779296875</ele>
        <time>2014-07-12T06:43:58.000Z</time>
      </trkpt>
      <trkpt lon="35.030375607311726" lat="31.788987703621387">
        <ele>464.0</ele>
        <time>2014-07-12T06:43:59.000Z</time>
      </trkpt>
      <trkpt lon="35.03009137697518" lat="31.788996420800686">
        <ele>464.0</ele>
        <time>2014-07-12T06:44:07.000Z</time>
      </trkpt>
      <trkpt lon="35.02991317771375" lat="31.788974795490503">
        <ele>464.0</ele>
        <time>2014-07-12T06:44:14.000Z</time>
      </trkpt>
      <trkpt lon="35.02969868481159" lat="31.78892190568149">
        <ele>464.0</ele>
        <time>2014-07-12T06:44:20.000Z</time>
      </trkpt>
      <trkpt lon="35.02936692908406" lat="31.78882945328951">
        <ele>460.0</ele>
        <time>2014-07-12T06:44:28.000Z</time>
      </trkpt>
      <trkpt lon="35.02932200208306" lat="31.78881771862507">
        <ele>460.0</ele>
        <time>2014-07-12T06:44:29.000Z</time>
      </trkpt>
      <trkpt lon="35.028907768428326" lat="31.78863348439336">
        <ele>457.79998779296875</ele>
        <time>2014-07-12T06:44:38.000Z</time>
      </trkpt>
      <trkpt lon="35.02885873429477" lat="31.788622001186013">
        <ele>457.79998779296875</ele>
        <time>2014-07-12T06:44:39.000Z</time>
      </trkpt>
      <trkpt lon="35.02881011925638" lat="31.788609847426414">
        <ele>457.79998779296875</ele>
        <time>2014-07-12T06:44:40.000Z</time>
      </trkpt>
      <trkpt lon="35.028765611350536" lat="31.7885934188962">
        <ele>457.79998779296875</ele>
        <time>2014-07-12T06:44:41.000Z</time>
      </trkpt>
      <trkpt lon="35.028723953291774" lat="31.788574391976">
        <ele>457.6000061035156</ele>
        <time>2014-07-12T06:44:42.000Z</time>
      </trkpt>
      <trkpt lon="35.028575006872416" lat="31.78848118521273">
        <ele>456.20001220703125</ele>
        <time>2014-07-12T06:44:48.000Z</time>
      </trkpt>
      <trkpt lon="35.02858095802367" lat="31.788477413356304">
        <ele>456.0</ele>
        <time>2014-07-12T06:44:59.000Z</time>
      </trkpt>
      <trkpt lon="35.02857810817659" lat="31.78846450522542">
        <ele>455.79998779296875</ele>
        <time>2014-07-12T06:45:24.000Z</time>
      </trkpt>
      <trkpt lon="35.028581796213984" lat="31.788452435284853">
        <ele>455.20001220703125</ele>
        <time>2014-07-12T06:45:43.000Z</time>
      </trkpt>
      <trkpt lon="35.02857333049178" lat="31.78844941779971">
        <ele>455.20001220703125</ele>
        <time>2014-07-12T06:45:56.000Z</time>
      </trkpt>
      <trkpt lon="35.02858213149011" lat="31.788439694792032">
        <ele>454.79998779296875</ele>
        <time>2014-07-12T06:46:11.000Z</time>
      </trkpt>
      <trkpt lon="35.02857291139662" lat="31.788448495790362">
        <ele>455.20001220703125</ele>
        <time>2014-07-12T06:46:29.000Z</time>
      </trkpt>
      <trkpt lon="35.02858556807041" lat="31.788434833288193">
        <ele>454.6000061035156</ele>
        <time>2014-07-12T06:46:48.000Z</time>
      </trkpt>
      <trkpt lon="35.028546089306474" lat="31.788381608203053">
        <ele>453.3999938964844</ele>
        <time>2014-07-12T06:47:01.000Z</time>
      </trkpt>
      <trkpt lon="35.028394628316164" lat="31.788281025364995">
        <ele>452.0</ele>
        <time>2014-07-12T06:47:06.000Z</time>
      </trkpt>
      <trkpt lon="35.028321370482445" lat="31.788222268223763">
        <ele>451.0</ele>
        <time>2014-07-12T06:47:08.000Z</time>
      </trkpt>
      <trkpt lon="35.02796187065542" lat="31.787946419790387">
        <ele>448.20001220703125</ele>
        <time>2014-07-12T06:47:16.000Z</time>
      </trkpt>
      <trkpt lon="35.02762332558632" lat="31.78771206177771">
        <ele>446.6000061035156</ele>
        <time>2014-07-12T06:47:24.000Z</time>
      </trkpt>
      <trkpt lon="35.02738402225077" lat="31.787459766492248">
        <ele>443.3999938964844</ele>
        <time>2014-07-12T06:47:33.000Z</time>
      </trkpt>
      <trkpt lon="35.02720498479903" lat="31.78727083839476">
        <ele>441.20001220703125</ele>
        <time>2014-07-12T06:47:41.000Z</time>
      </trkpt>
      <trkpt lon="35.02710968255997" lat="31.787162963300943">
        <ele>440.0</ele>
        <time>2014-07-12T06:47:44.000Z</time>
      </trkpt>
      <trkpt lon="35.02706626430154" lat="31.78712960332632">
        <ele>439.79998779296875</ele>
        <time>2014-07-12T06:47:45.000Z</time>
      </trkpt>
      <trkpt lon="35.02701907418668" lat="31.787095572799444">
        <ele>439.79998779296875</ele>
        <time>2014-07-12T06:47:46.000Z</time>
      </trkpt>
      <trkpt lon="35.02697607502341" lat="31.787050645798445">
        <ele>439.3999938964844</ele>
        <time>2014-07-12T06:47:47.000Z</time>
      </trkpt>
      <trkpt lon="35.02693986520171" lat="31.7870079819113">
        <ele>439.0</ele>
        <time>2014-07-12T06:47:48.000Z</time>
      </trkpt>
      <trkpt lon="35.02670810557902" lat="31.78671319037676">
        <ele>436.0</ele>
        <time>2014-07-12T06:47:54.000Z</time>
      </trkpt>
      <trkpt lon="35.02665136009455" lat="31.786667006090283">
        <ele>435.79998779296875</ele>
        <time>2014-07-12T06:47:55.000Z</time>
      </trkpt>
      <trkpt lon="35.026530073955655" lat="31.786574386060238">
        <ele>435.6000061035156</ele>
        <time>2014-07-12T06:47:57.000Z</time>
      </trkpt>
      <trkpt lon="35.02648003399372" lat="31.786514539271593">
        <ele>435.0</ele>
        <time>2014-07-12T06:47:58.000Z</time>
      </trkpt>
      <trkpt lon="35.02635011449456" lat="31.786337681114674">
        <ele>432.6000061035156</ele>
        <time>2014-07-12T06:48:01.000Z</time>
      </trkpt>
      <trkpt lon="35.026294542476535" lat="31.78628663532436">
        <ele>432.20001220703125</ele>
        <time>2014-07-12T06:48:02.000Z</time>
      </trkpt>
      <trkpt lon="35.02623511478305" lat="31.786236260086298">
        <ele>431.79998779296875</ele>
        <time>2014-07-12T06:48:03.000Z</time>
      </trkpt>
      <trkpt lon="35.02618155442178" lat="31.786182951182127">
        <ele>431.6000061035156</ele>
        <time>2014-07-12T06:48:04.000Z</time>
      </trkpt>
      <trkpt lon="35.026134280487895" lat="31.786126289516687">
        <ele>431.20001220703125</ele>
        <time>2014-07-12T06:48:05.000Z</time>
      </trkpt>
      <trkpt lon="35.02609019167721" lat="31.78606585599482">
        <ele>430.6000061035156</ele>
        <time>2014-07-12T06:48:06.000Z</time>
      </trkpt>
      <trkpt lon="35.02604962326586" lat="31.786002991721034">
        <ele>429.79998779296875</ele>
        <time>2014-07-12T06:48:07.000Z</time>
      </trkpt>
      <trkpt lon="35.02597561106086" lat="31.785874078050256">
        <ele>428.20001220703125</ele>
        <time>2014-07-12T06:48:09.000Z</time>
      </trkpt>
      <trkpt lon="35.02592775039375" lat="31.78581909276545">
        <ele>427.79998779296875</ele>
        <time>2014-07-12T06:48:10.000Z</time>
      </trkpt>
      <trkpt lon="35.02587058581412" lat="31.785772070288658">
        <ele>427.79998779296875</ele>
        <time>2014-07-12T06:48:11.000Z</time>
      </trkpt>
      <trkpt lon="35.02580663189292" lat="31.785733681172132">
        <ele>428.0</ele>
        <time>2014-07-12T06:48:12.000Z</time>
      </trkpt>
      <trkpt lon="35.02573790028691" lat="31.785702668130398">
        <ele>428.6000061035156</ele>
        <time>2014-07-12T06:48:13.000Z</time>
      </trkpt>
      <trkpt lon="35.02566657029092" lat="31.78567928262055">
        <ele>429.0</ele>
        <time>2014-07-12T06:48:14.000Z</time>
      </trkpt>
      <trkpt lon="35.0255917198956" lat="31.785659501329064">
        <ele>429.79998779296875</ele>
        <time>2014-07-12T06:48:15.000Z</time>
      </trkpt>
      <trkpt lon="35.025515193119645" lat="31.785643491894007">
        <ele>430.79998779296875</ele>
        <time>2014-07-12T06:48:16.000Z</time>
      </trkpt>
      <trkpt lon="35.02496978268027" lat="31.785528240725398">
        <ele>432.6000061035156</ele>
        <time>2014-07-12T06:48:24.000Z</time>
      </trkpt>
      <trkpt lon="35.024608774110675" lat="31.78545020520687">
        <ele>433.20001220703125</ele>
        <time>2014-07-12T06:48:30.000Z</time>
      </trkpt>
      <trkpt lon="35.0245520286262" lat="31.785443080589175">
        <ele>433.3999938964844</ele>
        <time>2014-07-12T06:48:31.000Z</time>
      </trkpt>
      <trkpt lon="35.02437936142087" lat="31.785424640402198">
        <ele>434.0</ele>
        <time>2014-07-12T06:48:34.000Z</time>
      </trkpt>
      <trkpt lon="35.02412245608866" lat="31.785362027585506">
        <ele>433.6000061035156</ele>
        <time>2014-07-12T06:48:39.000Z</time>
      </trkpt>
      <trkpt lon="35.024044420570135" lat="31.78533872589469">
        <ele>433.20001220703125</ele>
        <time>2014-07-12T06:48:42.000Z</time>
      </trkpt>
      <trkpt lon="35.02406168729067" lat="31.785336127504706">
        <ele>433.0</ele>
        <time>2014-07-12T06:48:56.000Z</time>
      </trkpt>
      <trkpt lon="35.02405774779618" lat="31.78534358739853">
        <ele>433.20001220703125</ele>
        <time>2014-07-12T06:49:01.000Z</time>
      </trkpt>
      <trkpt lon="35.024063028395176" lat="31.785354735329747">
        <ele>433.6000061035156</ele>
        <time>2014-07-12T06:49:25.000Z</time>
      </trkpt>
      <trkpt lon="35.02406520769" lat="31.78536018356681">
        <ele>433.79998779296875</ele>
        <time>2014-07-12T06:49:39.000Z</time>
      </trkpt>
      <trkpt lon="35.024006785824895" lat="31.78533042781055">
        <ele>433.20001220703125</ele>
        <time>2014-07-12T06:49:45.000Z</time>
      </trkpt>
      <trkpt lon="35.02375004813075" lat="31.78522347472608">
        <ele>431.0</ele>
        <time>2014-07-12T06:49:53.000Z</time>
      </trkpt>
      <trkpt lon="35.02357277087867" lat="31.785099925473332">
        <ele>429.3999938964844</ele>
        <time>2014-07-12T06:49:59.000Z</time>
      </trkpt>
      <trkpt lon="35.02338602207601" lat="31.784936729818583">
        <ele>426.6000061035156</ele>
        <time>2014-07-12T06:50:05.000Z</time>
      </trkpt>
      <trkpt lon="35.02313196659088" lat="31.784681919962168">
        <ele>421.79998779296875</ele>
        <time>2014-07-12T06:50:14.000Z</time>
      </trkpt>
      <trkpt lon="35.02288235351443" lat="31.784421745687723">
        <ele>417.0</ele>
        <time>2014-07-12T06:50:24.000Z</time>
      </trkpt>
      <trkpt lon="35.02284849062562" lat="31.784389140084386">
        <ele>416.79998779296875</ele>
        <time>2014-07-12T06:50:25.000Z</time>
      </trkpt>
      <trkpt lon="35.022612707689404" lat="31.784224519506097">
        <ele>417.6000061035156</ele>
        <time>2014-07-12T06:50:30.000Z</time>
      </trkpt>
      <trkpt lon="35.022563841193914" lat="31.784205911681056">
        <ele>418.3999938964844</ele>
        <time>2014-07-12T06:50:31.000Z</time>
      </trkpt>
      <trkpt lon="35.0225180760026" lat="31.78419576957822">
        <ele>419.20001220703125</ele>
        <time>2014-07-12T06:50:32.000Z</time>
      </trkpt>
      <trkpt lon="35.02247616648674" lat="31.784195685759187">
        <ele>420.3999938964844</ele>
        <time>2014-07-12T06:50:33.000Z</time>
      </trkpt>
      <trkpt lon="35.02243752591312" lat="31.78420557640493">
        <ele>421.79998779296875</ele>
        <time>2014-07-12T06:50:34.000Z</time>
      </trkpt>
      <trkpt lon="35.02240056172013" lat="31.78422175347805">
        <ele>423.3999938964844</ele>
        <time>2014-07-12T06:50:35.000Z</time>
      </trkpt>
      <trkpt lon="35.02236435189843" lat="31.784243881702423">
        <ele>425.20001220703125</ele>
        <time>2014-07-12T06:50:36.000Z</time>
      </trkpt>
      <trkpt lon="35.02233099192381" lat="31.784267770126462">
        <ele>427.0</ele>
        <time>2014-07-12T06:50:37.000Z</time>
      </trkpt>
      <trkpt lon="35.0223003141582" lat="31.78429752588272">
        <ele>428.0</ele>
        <time>2014-07-12T06:50:38.000Z</time>
      </trkpt>
      <trkpt lon="35.022268714383245" lat="31.784326527267694">
        <ele>428.79998779296875</ele>
        <time>2014-07-12T06:50:39.000Z</time>
      </trkpt>
      <trkpt lon="35.02223334275186" lat="31.78435267880559">
        <ele>429.3999938964844</ele>
        <time>2014-07-12T06:50:40.000Z</time>
      </trkpt>
      <trkpt lon="35.022197384387255" lat="31.784380758181214">
        <ele>430.0</ele>
        <time>2014-07-12T06:50:41.000Z</time>
      </trkpt>
      <trkpt lon="35.02216360531747" lat="31.784412190318108">
        <ele>430.79998779296875</ele>
        <time>2014-07-12T06:50:42.000Z</time>
      </trkpt>
      <trkpt lon="35.02195824868977" lat="31.78462576121092">
        <ele>434.0</ele>
        <time>2014-07-12T06:50:49.000Z</time>
      </trkpt>
      <trkpt lon="35.02183662727475" lat="31.784890964627266">
        <ele>436.0</ele>
        <time>2014-07-12T06:50:58.000Z</time>
      </trkpt>
      <trkpt lon="35.021768398582935" lat="31.78511794656515">
        <ele>437.3999938964844</ele>
        <time>2014-07-12T06:51:06.000Z</time>
      </trkpt>
      <trkpt lon="35.021657506003976" lat="31.785365464165807">
        <ele>438.20001220703125</ele>
        <time>2014-07-12T06:51:15.000Z</time>
      </trkpt>
      <trkpt lon="35.02156304195523" lat="31.785528995096684">
        <ele>438.20001220703125</ele>
        <time>2014-07-12T06:51:20.000Z</time>
      </trkpt>
      <trkpt lon="35.02147553488612" lat="31.785747092217207">
        <ele>438.79998779296875</ele>
        <time>2014-07-12T06:51:27.000Z</time>
      </trkpt>
      <trkpt lon="35.02127311192453" lat="31.78596275858581">
        <ele>437.20001220703125</ele>
        <time>2014-07-12T06:51:34.000Z</time>
      </trkpt>
      <trkpt lon="35.02117479220033" lat="31.786064011976123">
        <ele>436.3999938964844</ele>
        <time>2014-07-12T06:51:37.000Z</time>
      </trkpt>
      <trkpt lon="35.02094236202538" lat="31.78625402972102">
        <ele>434.20001220703125</ele>
        <time>2014-07-12T06:51:44.000Z</time>
      </trkpt>
      <trkpt lon="35.02080439589918" lat="31.786364167928696">
        <ele>432.6000061035156</ele>
        <time>2014-07-12T06:51:50.000Z</time>
      </trkpt>
      <trkpt lon="35.02079232595861" lat="31.786363665014505">
        <ele>432.3999938964844</ele>
        <time>2014-07-12T06:52:02.000Z</time>
      </trkpt>
      <trkpt lon="35.02078369259834" lat="31.78639216348529">
        <ele>432.3999938964844</ele>
        <time>2014-07-12T06:52:10.000Z</time>
      </trkpt>
      <trkpt lon="35.020802887156606" lat="31.786402221769094">
        <ele>432.79998779296875</ele>
        <time>2014-07-12T06:52:32.000Z</time>
      </trkpt>
      <trkpt lon="35.02079383470118" lat="31.7864225897938">
        <ele>432.6000061035156</ele>
        <time>2014-07-12T06:52:47.000Z</time>
      </trkpt>
      <trkpt lon="35.0206908211112" lat="31.78648159839213">
        <ele>431.3999938964844</ele>
        <time>2014-07-12T06:52:53.000Z</time>
      </trkpt>
      <trkpt lon="35.0206511747092" lat="31.786503978073597">
        <ele>431.0</ele>
        <time>2014-07-12T06:52:54.000Z</time>
      </trkpt>
      <trkpt lon="35.02061144448817" lat="31.786535494029522">
        <ele>430.3999938964844</ele>
        <time>2014-07-12T06:52:55.000Z</time>
      </trkpt>
      <trkpt lon="35.020416313782334" lat="31.786717800423503">
        <ele>426.79998779296875</ele>
        <time>2014-07-12T06:52:59.000Z</time>
      </trkpt>
      <trkpt lon="35.02037180587649" lat="31.78678208962083">
        <ele>425.3999938964844</ele>
        <time>2014-07-12T06:53:00.000Z</time>
      </trkpt>
      <trkpt lon="35.02033400349319" lat="31.78684763610363">
        <ele>424.20001220703125</ele>
        <time>2014-07-12T06:53:01.000Z</time>
      </trkpt>
      <trkpt lon="35.02030667848885" lat="31.786911841481924">
        <ele>423.20001220703125</ele>
        <time>2014-07-12T06:53:02.000Z</time>
      </trkpt>
      <trkpt lon="35.020293854177" lat="31.78697663359344">
        <ele>422.3999938964844</ele>
        <time>2014-07-12T06:53:03.000Z</time>
      </trkpt>
      <trkpt lon="35.02029770985246" lat="31.7870425991714">
        <ele>422.0</ele>
        <time>2014-07-12T06:53:04.000Z</time>
      </trkpt>
      <trkpt lon="35.02032335847616" lat="31.787108816206455">
        <ele>422.20001220703125</ele>
        <time>2014-07-12T06:53:05.000Z</time>
      </trkpt>
      <trkpt lon="35.02036484889686" lat="31.78717302158475">
        <ele>422.3999938964844</ele>
        <time>2014-07-12T06:53:06.000Z</time>
      </trkpt>
      <trkpt lon="35.02042301930487" lat="31.7872360534966">
        <ele>423.0</ele>
        <time>2014-07-12T06:53:07.000Z</time>
      </trkpt>
      <trkpt lon="35.02049166709185" lat="31.78729464299977">
        <ele>424.0</ele>
        <time>2014-07-12T06:53:08.000Z</time>
      </trkpt>
      <trkpt lon="35.02056023105979" lat="31.787348622456193">
        <ele>424.79998779296875</ele>
        <time>2014-07-12T06:53:09.000Z</time>
      </trkpt>
      <trkpt lon="35.02062703482807" lat="31.787405954673886">
        <ele>425.6000061035156</ele>
        <time>2014-07-12T06:53:10.000Z</time>
      </trkpt>
      <trkpt lon="35.02068939618766" lat="31.787470411509275">
        <ele>426.6000061035156</ele>
        <time>2014-07-12T06:53:11.000Z</time>
      </trkpt>
      <trkpt lon="35.02074488438666" lat="31.787541657686234">
        <ele>427.20001220703125</ele>
        <time>2014-07-12T06:53:12.000Z</time>
      </trkpt>
      <trkpt lon="35.020791152492166" lat="31.787617430090904">
        <ele>427.79998779296875</ele>
        <time>2014-07-12T06:53:13.000Z</time>
      </trkpt>
      <trkpt lon="35.020830715075135" lat="31.787695800885558">
        <ele>428.20001220703125</ele>
        <time>2014-07-12T06:53:14.000Z</time>
      </trkpt>
      <trkpt lon="35.0208945851773" lat="31.78785564377904">
        <ele>428.79998779296875</ele>
        <time>2014-07-12T06:53:16.000Z</time>
      </trkpt>
      <trkpt lon="35.020915791392326" lat="31.787938876077533">
        <ele>428.79998779296875</ele>
        <time>2014-07-12T06:53:17.000Z</time>
      </trkpt>
      <trkpt lon="35.020946469157934" lat="31.788306338712573">
        <ele>428.79998779296875</ele>
        <time>2014-07-12T06:53:22.000Z</time>
      </trkpt>
      <trkpt lon="35.02092325128615" lat="31.788373226299882">
        <ele>428.79998779296875</ele>
        <time>2014-07-12T06:53:23.000Z</time>
      </trkpt>
      <trkpt lon="35.02086038701236" lat="31.788489148020744">
        <ele>428.3999938964844</ele>
        <time>2014-07-12T06:53:25.000Z</time>
      </trkpt>
      <trkpt lon="35.020814035087824" lat="31.788537511602044">
        <ele>427.79998779296875</ele>
        <time>2014-07-12T06:53:26.000Z</time>
      </trkpt>
      <trkpt lon="35.02075485885143" lat="31.78857740946114">
        <ele>427.20001220703125</ele>
        <time>2014-07-12T06:53:27.000Z</time>
      </trkpt>
      <trkpt lon="35.020688055083156" lat="31.788612948730588">
        <ele>426.79998779296875</ele>
        <time>2014-07-12T06:53:28.000Z</time>
      </trkpt>
      <trkpt lon="35.020611863583326" lat="31.788630550727248">
        <ele>426.0</ele>
        <time>2014-07-12T06:53:29.000Z</time>
      </trkpt>
      <trkpt lon="35.02053181640804" lat="31.788647063076496">
        <ele>425.20001220703125</ele>
        <time>2014-07-12T06:53:30.000Z</time>
      </trkpt>
      <trkpt lon="35.0204458180815" lat="31.788660306483507">
        <ele>424.20001220703125</ele>
        <time>2014-07-12T06:53:31.000Z</time>
      </trkpt>
      <trkpt lon="35.0200055167079" lat="31.78874001838267">
        <ele>417.3999938964844</ele>
        <time>2014-07-12T06:53:36.000Z</time>
      </trkpt>
      <trkpt lon="35.01992563717067" lat="31.7887660022825">
        <ele>416.3999938964844</ele>
        <time>2014-07-12T06:53:37.000Z</time>
      </trkpt>
      <trkpt lon="35.019772835075855" lat="31.788830291479826">
        <ele>414.3999938964844</ele>
        <time>2014-07-12T06:53:39.000Z</time>
      </trkpt>
      <trkpt lon="35.01970418728888" lat="31.788870692253113">
        <ele>413.79998779296875</ele>
        <time>2014-07-12T06:53:40.000Z</time>
      </trkpt>
      <trkpt lon="35.01964165829122" lat="31.788920145481825">
        <ele>413.20001220703125</ele>
        <time>2014-07-12T06:53:41.000Z</time>
      </trkpt>
      <trkpt lon="35.01958533190191" lat="31.78898300975561">
        <ele>413.20001220703125</ele>
        <time>2014-07-12T06:53:42.000Z</time>
      </trkpt>
      <trkpt lon="35.01954208128154" lat="31.789055932313204">
        <ele>413.0</ele>
        <time>2014-07-12T06:53:43.000Z</time>
      </trkpt>
      <trkpt lon="35.019505117088556" lat="31.789134806022048">
        <ele>412.0</ele>
        <time>2014-07-12T06:53:44.000Z</time>
      </trkpt>
      <trkpt lon="35.019304286688566" lat="31.789710223674774">
        <ele>407.3999938964844</ele>
        <time>2014-07-12T06:53:51.000Z</time>
      </trkpt>
      <trkpt lon="35.01914628781378" lat="31.79014541208744">
        <ele>401.3999938964844</ele>
        <time>2014-07-12T06:53:57.000Z</time>
      </trkpt>
      <trkpt lon="35.01912323758006" lat="31.79021372459829">
        <ele>400.20001220703125</ele>
        <time>2014-07-12T06:53:58.000Z</time>
      </trkpt>
      <trkpt lon="35.01911569386721" lat="31.79028513841331">
        <ele>399.3999938964844</ele>
        <time>2014-07-12T06:53:59.000Z</time>
      </trkpt>
      <trkpt lon="35.01912608742714" lat="31.790443053469062">
        <ele>398.20001220703125</ele>
        <time>2014-07-12T06:54:01.000Z</time>
      </trkpt>
      <trkpt lon="35.01914176158607" lat="31.790527710691094">
        <ele>397.6000061035156</ele>
        <time>2014-07-12T06:54:02.000Z</time>
      </trkpt>
      <trkpt lon="35.019170846790075" lat="31.79061488248408">
        <ele>397.3999938964844</ele>
        <time>2014-07-12T06:54:03.000Z</time>
      </trkpt>
      <trkpt lon="35.01933563500643" lat="31.791030960157514">
        <ele>396.3999938964844</ele>
        <time>2014-07-12T06:54:08.000Z</time>
      </trkpt>
      <trkpt lon="35.019348626956344" lat="31.791118886321783">
        <ele>395.79998779296875</ele>
        <time>2014-07-12T06:54:09.000Z</time>
      </trkpt>
      <trkpt lon="35.01936815679073" lat="31.791879879310727">
        <ele>389.6000061035156</ele>
        <time>2014-07-12T06:54:17.000Z</time>
      </trkpt>
      <trkpt lon="35.01934996806085" lat="31.79224407300353">
        <ele>387.0</ele>
        <time>2014-07-12T06:54:21.000Z</time>
      </trkpt>
      <trkpt lon="35.019320296123624" lat="31.79231490008533">
        <ele>386.20001220703125</ele>
        <time>2014-07-12T06:54:22.000Z</time>
      </trkpt>
      <trkpt lon="35.0192800629884" lat="31.792380278930068">
        <ele>385.20001220703125</ele>
        <time>2014-07-12T06:54:23.000Z</time>
      </trkpt>
      <trkpt lon="35.019056014716625" lat="31.792648835107684">
        <ele>376.20001220703125</ele>
        <time>2014-07-12T06:54:28.000Z</time>
      </trkpt>
      <trkpt lon="35.019009578973055" lat="31.792674316093326">
        <ele>375.3999938964844</ele>
        <time>2014-07-12T06:54:29.000Z</time>
      </trkpt>
      <trkpt lon="35.018966160714626" lat="31.79268571548164">
        <ele>375.20001220703125</ele>
        <time>2014-07-12T06:54:30.000Z</time>
      </trkpt>
      <trkpt lon="35.0189227424562" lat="31.79268470965326">
        <ele>375.0</ele>
        <time>2014-07-12T06:54:31.000Z</time>
      </trkpt>
      <trkpt lon="35.01888141967356" lat="31.79267649538815">
        <ele>375.0</ele>
        <time>2014-07-12T06:54:32.000Z</time>
      </trkpt>
      <trkpt lon="35.018844455480576" lat="31.79265931248665">
        <ele>375.0</ele>
        <time>2014-07-12T06:54:33.000Z</time>
      </trkpt>
      <trkpt lon="35.01880405470729" lat="31.792637016624212">
        <ele>375.0</ele>
        <time>2014-07-12T06:54:34.000Z</time>
      </trkpt>
      <trkpt lon="35.01875728368759" lat="31.792606925591826">
        <ele>375.20001220703125</ele>
        <time>2014-07-12T06:54:35.000Z</time>
      </trkpt>
      <trkpt lon="35.01870967447758" lat="31.792572140693665">
        <ele>375.20001220703125</ele>
        <time>2014-07-12T06:54:36.000Z</time>
      </trkpt>
      <trkpt lon="35.01865862868726" lat="31.792536014690995">
        <ele>375.20001220703125</ele>
        <time>2014-07-12T06:54:37.000Z</time>
      </trkpt>
      <trkpt lon="35.01860179938376" lat="31.792507097125053">
        <ele>375.20001220703125</ele>
        <time>2014-07-12T06:54:38.000Z</time>
      </trkpt>
      <trkpt lon="35.018540024757385" lat="31.792477760463953">
        <ele>375.20001220703125</ele>
        <time>2014-07-12T06:54:39.000Z</time>
      </trkpt>
      <trkpt lon="35.018475567921996" lat="31.792446495965123">
        <ele>375.20001220703125</ele>
        <time>2014-07-12T06:54:40.000Z</time>
      </trkpt>
      <trkpt lon="35.01840457320213" lat="31.792419673874974">
        <ele>375.0</ele>
        <time>2014-07-12T06:54:41.000Z</time>
      </trkpt>
      <trkpt lon="35.01832578331232" lat="31.79240047931671">
        <ele>374.79998779296875</ele>
        <time>2014-07-12T06:54:42.000Z</time>
      </trkpt>
      <trkpt lon="35.018170634284616" lat="31.79236569441855">
        <ele>374.0</ele>
        <time>2014-07-12T06:54:44.000Z</time>
      </trkpt>
      <trkpt lon="35.017912639304996" lat="31.792271649464965">
        <ele>372.20001220703125</ele>
        <time>2014-07-12T06:54:47.000Z</time>
      </trkpt>
      <trkpt lon="35.017568059265614" lat="31.792146675288677">
        <ele>368.79998779296875</ele>
        <time>2014-07-12T06:54:51.000Z</time>
      </trkpt>
      <trkpt lon="35.01747158356011" lat="31.79213745519519">
        <ele>368.6000061035156</ele>
        <time>2014-07-12T06:54:52.000Z</time>
      </trkpt>
      <trkpt lon="35.016809748485684" lat="31.792108872905374">
        <ele>365.3999938964844</ele>
        <time>2014-07-12T06:54:58.000Z</time>
      </trkpt>
      <trkpt lon="35.016260063275695" lat="31.79214533418417">
        <ele>360.79998779296875</ele>
        <time>2014-07-12T06:55:03.000Z</time>
      </trkpt>
      <trkpt lon="35.01616057008505" lat="31.79216293618083">
        <ele>360.0</ele>
        <time>2014-07-12T06:55:04.000Z</time>
      </trkpt>
      <trkpt lon="35.0160716380924" lat="31.79218498058617">
        <ele>359.3999938964844</ele>
        <time>2014-07-12T06:55:05.000Z</time>
      </trkpt>
      <trkpt lon="35.01599251292646" lat="31.792212137952447">
        <ele>359.0</ele>
        <time>2014-07-12T06:55:06.000Z</time>
      </trkpt>
      <trkpt lon="35.015920009464025" lat="31.79224750958383">
        <ele>358.6000061035156</ele>
        <time>2014-07-12T06:55:07.000Z</time>
      </trkpt>
      <trkpt lon="35.015849601477385" lat="31.792290257290006">
        <ele>358.20001220703125</ele>
        <time>2014-07-12T06:55:08.000Z</time>
      </trkpt>
      <trkpt lon="35.01578439027071" lat="31.792337531223893">
        <ele>358.20001220703125</ele>
        <time>2014-07-12T06:55:09.000Z</time>
      </trkpt>
      <trkpt lon="35.01573250629008" lat="31.792385978624225">
        <ele>358.20001220703125</ele>
        <time>2014-07-12T06:55:10.000Z</time>
      </trkpt>
      <trkpt lon="35.015696715563536" lat="31.792437359690666">
        <ele>357.3999938964844</ele>
        <time>2014-07-12T06:55:11.000Z</time>
      </trkpt>
      <trkpt lon="35.015670312568545" lat="31.7924942728132">
        <ele>357.0</ele>
        <time>2014-07-12T06:55:12.000Z</time>
      </trkpt>
      <trkpt lon="35.01564969308674" lat="31.79255671799183">
        <ele>356.3999938964844</ele>
        <time>2014-07-12T06:55:13.000Z</time>
      </trkpt>
      <trkpt lon="35.01563427038491" lat="31.792620671913028">
        <ele>356.0</ele>
        <time>2014-07-12T06:55:14.000Z</time>
      </trkpt>
      <trkpt lon="35.01561583019793" lat="31.792674316093326">
        <ele>355.3999938964844</ele>
        <time>2014-07-12T06:55:15.000Z</time>
      </trkpt>
      <trkpt lon="35.01558808609843" lat="31.79272091947496">
        <ele>354.79998779296875</ele>
        <time>2014-07-12T06:55:16.000Z</time>
      </trkpt>
      <trkpt lon="35.015550618991256" lat="31.792760901153088">
        <ele>354.0</ele>
        <time>2014-07-12T06:55:17.000Z</time>
      </trkpt>
      <trkpt lon="35.01550443470478" lat="31.792795853689313">
        <ele>353.20001220703125</ele>
        <time>2014-07-12T06:55:18.000Z</time>
      </trkpt>
      <trkpt lon="35.01545766368508" lat="31.792827285826206">
        <ele>352.3999938964844</ele>
        <time>2014-07-12T06:55:19.000Z</time>
      </trkpt>
      <trkpt lon="35.015417179092765" lat="31.792861819267273">
        <ele>351.6000061035156</ele>
        <time>2014-07-12T06:55:20.000Z</time>
      </trkpt>
      <trkpt lon="35.01538373529911" lat="31.792905069887638">
        <ele>350.79998779296875</ele>
        <time>2014-07-12T06:55:21.000Z</time>
      </trkpt>
      <trkpt lon="35.01535406336188" lat="31.792957792058587">
        <ele>350.20001220703125</ele>
        <time>2014-07-12T06:55:22.000Z</time>
      </trkpt>
      <trkpt lon="35.01533176749945" lat="31.79301654919982">
        <ele>349.3999938964844</ele>
        <time>2014-07-12T06:55:23.000Z</time>
      </trkpt>
      <trkpt lon="35.015318524092436" lat="31.793081257492304">
        <ele>349.0</ele>
        <time>2014-07-12T06:55:24.000Z</time>
      </trkpt>
      <trkpt lon="35.01530980691314" lat="31.79314856417477">
        <ele>348.79998779296875</ele>
        <time>2014-07-12T06:55:25.000Z</time>
      </trkpt>
      <trkpt lon="35.01524845138192" lat="31.79353446699679">
        <ele>345.6000061035156</ele>
        <time>2014-07-12T06:55:31.000Z</time>
      </trkpt>
      <trkpt lon="35.01522288657725" lat="31.793593978509307">
        <ele>344.79998779296875</ele>
        <time>2014-07-12T06:55:32.000Z</time>
      </trkpt>
      <trkpt lon="35.01511266455054" lat="31.79379346780479">
        <ele>342.0</ele>
        <time>2014-07-12T06:55:37.000Z</time>
      </trkpt>
      <trkpt lon="35.0150216370821" lat="31.793882315978408">
        <ele>341.0</ele>
        <time>2014-07-12T06:55:42.000Z</time>
      </trkpt>
      <trkpt lon="35.01500847749412" lat="31.793874856084585">
        <ele>341.0</ele>
        <time>2014-07-12T06:55:43.000Z</time>
      </trkpt>
      <trkpt lon="35.0150026101619" lat="31.79386002011597">
        <ele>341.20001220703125</ele>
        <time>2014-07-12T06:55:44.000Z</time>
      </trkpt>
      <trkpt lon="35.015002274885774" lat="31.79384535178542">
        <ele>341.20001220703125</ele>
        <time>2014-07-12T06:55:45.000Z</time>
      </trkpt>
      <trkpt lon="35.01500537618995" lat="31.793830515816808">
        <ele>341.3999938964844</ele>
        <time>2014-07-12T06:55:46.000Z</time>
      </trkpt>
      <trkpt lon="35.01500755548477" lat="31.7938154283911">
        <ele>341.3999938964844</ele>
        <time>2014-07-12T06:55:47.000Z</time>
      </trkpt>
      <trkpt lon="35.015006801113486" lat="31.79379992187023">
        <ele>341.6000061035156</ele>
        <time>2014-07-12T06:55:48.000Z</time>
      </trkpt>
      <trkpt lon="35.01500403508544" lat="31.79378315806389">
        <ele>341.6000061035156</ele>
        <time>2014-07-12T06:55:49.000Z</time>
      </trkpt>
      <trkpt lon="35.015000430867076" lat="31.793764801695943">
        <ele>341.6000061035156</ele>
        <time>2014-07-12T06:55:50.000Z</time>
      </trkpt>
      <trkpt lon="35.015002358704805" lat="31.79374845698476">
        <ele>341.79998779296875</ele>
        <time>2014-07-12T06:55:51.000Z</time>
      </trkpt>
      <trkpt lon="35.015015602111816" lat="31.793736638501287">
        <ele>342.0</ele>
        <time>2014-07-12T06:55:52.000Z</time>
      </trkpt>
      <trkpt lon="35.01503479667008" lat="31.793734040111303">
        <ele>342.0</ele>
        <time>2014-07-12T06:55:53.000Z</time>
      </trkpt>
      <trkpt lon="35.015135714784265" lat="31.793752564117312">
        <ele>342.3999938964844</ele>
        <time>2014-07-12T06:55:58.000Z</time>
      </trkpt>
      <trkpt lon="35.0151477009058" lat="31.793746864423156">
        <ele>342.6000061035156</ele>
        <time>2014-07-12T06:56:03.000Z</time>
      </trkpt>
      <trkpt lon="35.015149377286434" lat="31.79374703206122">
        <ele>342.6000061035156</ele>
        <time>2014-07-12T06:56:22.000Z</time>
      </trkpt>
      <trkpt lon="35.015150886029005" lat="31.79373487830162">
        <ele>342.79998779296875</ele>
        <time>2014-07-12T06:56:42.000Z</time>
      </trkpt>
      <trkpt lon="35.01511626876891" lat="31.793718952685595">
        <ele>342.6000061035156</ele>
        <time>2014-07-12T06:56:55.000Z</time>
      </trkpt>
      <trkpt lon="35.015100091695786" lat="31.79372012615204">
        <ele>342.3999938964844</ele>
        <time>2014-07-12T06:56:56.000Z</time>
      </trkpt>
      <trkpt lon="35.015081567689776" lat="31.793727418407798">
        <ele>342.3999938964844</ele>
        <time>2014-07-12T06:56:57.000Z</time>
      </trkpt>
      <trkpt lon="35.015063881874084" lat="31.793741164729">
        <ele>342.20001220703125</ele>
        <time>2014-07-12T06:56:58.000Z</time>
      </trkpt>
      <trkpt lon="35.01504854299128" lat="31.793761532753706">
        <ele>342.0</ele>
        <time>2014-07-12T06:56:59.000Z</time>
      </trkpt>
      <trkpt lon="35.01503488048911" lat="31.793786762282252">
        <ele>341.79998779296875</ele>
        <time>2014-07-12T06:57:00.000Z</time>
      </trkpt>
      <trkpt lon="35.01502255909145" lat="31.793815763667226">
        <ele>341.3999938964844</ele>
        <time>2014-07-12T06:57:01.000Z</time>
      </trkpt>
      <trkpt lon="35.015011662617326" lat="31.793850800022483">
        <ele>341.20001220703125</ele>
        <time>2014-07-12T06:57:02.000Z</time>
      </trkpt>
      <trkpt lon="35.0150094833225" lat="31.793885082006454">
        <ele>341.0</ele>
        <time>2014-07-12T06:57:03.000Z</time>
      </trkpt>
      <trkpt lon="35.01501912251115" lat="31.79396303370595">
        <ele>340.6000061035156</ele>
        <time>2014-07-12T06:57:05.000Z</time>
      </trkpt>
      <trkpt lon="35.01503345556557" lat="31.794007625430822">
        <ele>340.3999938964844</ele>
        <time>2014-07-12T06:57:06.000Z</time>
      </trkpt>
      <trkpt lon="35.01505298539996" lat="31.794050624594092">
        <ele>340.20001220703125</ele>
        <time>2014-07-12T06:57:07.000Z</time>
      </trkpt>
      <trkpt lon="35.01523311249912" lat="31.79436469450593">
        <ele>338.0</ele>
        <time>2014-07-12T06:57:13.000Z</time>
      </trkpt>
      <trkpt lon="35.01541189849377" lat="31.794823268428445">
        <ele>334.6000061035156</ele>
        <time>2014-07-12T06:57:19.000Z</time>
      </trkpt>
      <trkpt lon="35.01549060456455" lat="31.79543187841773">
        <ele>336.6000061035156</ele>
        <time>2014-07-12T06:57:26.000Z</time>
      </trkpt>
      <trkpt lon="35.01549613662064" lat="31.7960446793586">
        <ele>338.0</ele>
        <time>2014-07-12T06:57:33.000Z</time>
      </trkpt>
      <trkpt lon="35.01548867672682" lat="31.796106034889817">
        <ele>337.79998779296875</ele>
        <time>2014-07-12T06:57:34.000Z</time>
      </trkpt>
      <trkpt lon="35.01547442749143" lat="31.796165546402335">
        <ele>337.3999938964844</ele>
        <time>2014-07-12T06:57:35.000Z</time>
      </trkpt>
      <trkpt lon="35.01545146107674" lat="31.79622044786811">
        <ele>336.79998779296875</ele>
        <time>2014-07-12T06:57:36.000Z</time>
      </trkpt>
      <trkpt lon="35.01541944220662" lat="31.79626889526844">
        <ele>336.0</ele>
        <time>2014-07-12T06:57:37.000Z</time>
      </trkpt>
      <trkpt lon="35.01538180746138" lat="31.796316085383296">
        <ele>335.6000061035156</ele>
        <time>2014-07-12T06:57:38.000Z</time>
      </trkpt>
      <trkpt lon="35.015341406688094" lat="31.796364532783628">
        <ele>335.20001220703125</ele>
        <time>2014-07-12T06:57:39.000Z</time>
      </trkpt>
      <trkpt lon="35.015304777771235" lat="31.796418679878116">
        <ele>334.79998779296875</ele>
        <time>2014-07-12T06:57:40.000Z</time>
      </trkpt>
      <trkpt lon="35.01527929678559" lat="31.796475844457746">
        <ele>334.3999938964844</ele>
        <time>2014-07-12T06:57:41.000Z</time>
      </trkpt>
      <trkpt lon="35.01526638865471" lat="31.796533344313502">
        <ele>334.20001220703125</ele>
        <time>2014-07-12T06:57:42.000Z</time>
      </trkpt>
      <trkpt lon="35.015206122770905" lat="31.797036342322826">
        <ele>334.6000061035156</ele>
        <time>2014-07-12T06:57:50.000Z</time>
      </trkpt>
      <trkpt lon="35.015114760026336" lat="31.797572700306773">
        <ele>332.0</ele>
        <time>2014-07-12T06:57:58.000Z</time>
      </trkpt>
      <trkpt lon="35.015065809711814" lat="31.79785500280559">
        <ele>330.6000061035156</ele>
        <time>2014-07-12T06:58:04.000Z</time>
      </trkpt>
      <trkpt lon="35.01503437757492" lat="31.798168569803238">
        <ele>329.20001220703125</ele>
        <time>2014-07-12T06:58:13.000Z</time>
      </trkpt>
      <trkpt lon="35.014979811385274" lat="31.798546258360147">
        <ele>324.79998779296875</ele>
        <time>2014-07-12T06:58:22.000Z</time>
      </trkpt>
      <trkpt lon="35.01485492102802" lat="31.79898764938116">
        <ele>322.3999938964844</ele>
        <time>2014-07-12T06:58:30.000Z</time>
      </trkpt>
      <trkpt lon="35.014684684574604" lat="31.799556696787477">
        <ele>316.20001220703125</ele>
        <time>2014-07-12T06:58:38.000Z</time>
      </trkpt>
      <trkpt lon="35.014654928818345" lat="31.79970690049231">
        <ele>314.3999938964844</ele>
        <time>2014-07-12T06:58:40.000Z</time>
      </trkpt>
      <trkpt lon="35.01465819776058" lat="31.79978409782052">
        <ele>313.79998779296875</ele>
        <time>2014-07-12T06:58:41.000Z</time>
      </trkpt>
      <trkpt lon="35.014671022072434" lat="31.799862384796143">
        <ele>313.3999938964844</ele>
        <time>2014-07-12T06:58:42.000Z</time>
      </trkpt>
      <trkpt lon="35.01470413058996" lat="31.800016527995467">
        <ele>313.79998779296875</ele>
        <time>2014-07-12T06:58:44.000Z</time>
      </trkpt>
      <trkpt lon="35.014708153903484" lat="31.80009489879012">
        <ele>313.6000061035156</ele>
        <time>2014-07-12T06:58:45.000Z</time>
      </trkpt>
      <trkpt lon="35.014675464481115" lat="31.800462696701288">
        <ele>312.20001220703125</ele>
        <time>2014-07-12T06:58:50.000Z</time>
      </trkpt>
      <trkpt lon="35.01467848196626" lat="31.800519358366728">
        <ele>312.20001220703125</ele>
        <time>2014-07-12T06:58:51.000Z</time>
      </trkpt>
      <trkpt lon="35.01468686386943" lat="31.800571577623487">
        <ele>312.20001220703125</ele>
        <time>2014-07-12T06:58:52.000Z</time>
      </trkpt>
      <trkpt lon="35.01470061019063" lat="31.800619522109628">
        <ele>312.20001220703125</ele>
        <time>2014-07-12T06:58:53.000Z</time>
      </trkpt>
      <trkpt lon="35.01471821218729" lat="31.800666712224483">
        <ele>312.6000061035156</ele>
        <time>2014-07-12T06:58:54.000Z</time>
      </trkpt>
      <trkpt lon="35.01473807729781" lat="31.80071046575904">
        <ele>312.79998779296875</ele>
        <time>2014-07-12T06:58:55.000Z</time>
      </trkpt>
      <trkpt lon="35.01495332457125" lat="31.80120399221778">
        <ele>313.20001220703125</ele>
        <time>2014-07-12T06:59:05.000Z</time>
      </trkpt>
      <trkpt lon="35.01515348441899" lat="31.801549745723605">
        <ele>314.6000061035156</ele>
        <time>2014-07-12T06:59:12.000Z</time>
      </trkpt>
      <trkpt lon="35.01544576138258" lat="31.801874041557312">
        <ele>316.20001220703125</ele>
        <time>2014-07-12T06:59:20.000Z</time>
      </trkpt>
      <trkpt lon="35.015648351982236" lat="31.802112590521574">
        <ele>316.6000061035156</ele>
        <time>2014-07-12T06:59:28.000Z</time>
      </trkpt>
      <trkpt lon="35.01580433920026" lat="31.802317276597023">
        <ele>316.79998779296875</ele>
        <time>2014-07-12T06:59:37.000Z</time>
      </trkpt>
      <trkpt lon="35.015979604795575" lat="31.802503522485495">
        <ele>317.6000061035156</ele>
        <time>2014-07-12T06:59:45.000Z</time>
      </trkpt>
      <trkpt lon="35.01610457897186" lat="31.80264702066779">
        <ele>318.20001220703125</ele>
        <time>2014-07-12T06:59:52.000Z</time>
      </trkpt>
      <trkpt lon="35.01618353649974" lat="31.80277350358665">
        <ele>318.20001220703125</ele>
        <time>2014-07-12T06:59:58.000Z</time>
      </trkpt>
      <trkpt lon="35.016318736597896" lat="31.803007861599326">
        <ele>318.3999938964844</ele>
        <time>2014-07-12T07:00:06.000Z</time>
      </trkpt>
      <trkpt lon="35.01634480431676" lat="31.80304423905909">
        <ele>318.6000061035156</ele>
        <time>2014-07-12T07:00:07.000Z</time>
      </trkpt>
      <trkpt lon="35.01651277765632" lat="31.80332126095891">
        <ele>320.6000061035156</ele>
        <time>2014-07-12T07:00:15.000Z</time>
      </trkpt>
      <trkpt lon="35.01661947928369" lat="31.803505830466747">
        <ele>323.79998779296875</ele>
        <time>2014-07-12T07:00:24.000Z</time>
      </trkpt>
      <trkpt lon="35.0167331378907" lat="31.803690064698458">
        <ele>326.79998779296875</ele>
        <time>2014-07-12T07:00:33.000Z</time>
      </trkpt>
      <trkpt lon="35.01679717563093" lat="31.80381235666573">
        <ele>328.79998779296875</ele>
        <time>2014-07-12T07:00:40.000Z</time>
      </trkpt>
      <trkpt lon="35.016888957470655" lat="31.80399307049811">
        <ele>331.79998779296875</ele>
        <time>2014-07-12T07:00:49.000Z</time>
      </trkpt>
      <trkpt lon="35.01694545149803" lat="31.80413874797523">
        <ele>332.6000061035156</ele>
        <time>2014-07-12T07:00:56.000Z</time>
      </trkpt>
      <trkpt lon="35.01704762689769" lat="31.804328178986907">
        <ele>332.3999938964844</ele>
        <time>2014-07-12T07:01:06.000Z</time>
      </trkpt>
      <trkpt lon="35.01713999547064" lat="31.80449732579291">
        <ele>332.6000061035156</ele>
        <time>2014-07-12T07:01:15.000Z</time>
      </trkpt>
      <trkpt lon="35.01724309287965" lat="31.804673932492733">
        <ele>333.20001220703125</ele>
        <time>2014-07-12T07:01:24.000Z</time>
      </trkpt>
      <trkpt lon="35.017372258007526" lat="31.80488482117653">
        <ele>333.79998779296875</ele>
        <time>2014-07-12T07:01:33.000Z</time>
      </trkpt>
      <trkpt lon="35.01748885028064" lat="31.805149856954813">
        <ele>330.0</ele>
        <time>2014-07-12T07:01:39.000Z</time>
      </trkpt>
      <trkpt lon="35.01763762906194" lat="31.805533077567816">
        <ele>325.20001220703125</ele>
        <time>2014-07-12T07:01:45.000Z</time>
      </trkpt>
      <trkpt lon="35.01774441450834" lat="31.805794844403863">
        <ele>323.6000061035156</ele>
        <time>2014-07-12T07:01:49.000Z</time>
      </trkpt>
      <trkpt lon="35.01778045669198" lat="31.80584941059351">
        <ele>323.6000061035156</ele>
        <time>2014-07-12T07:01:50.000Z</time>
      </trkpt>
      <trkpt lon="35.01781507395208" lat="31.805899869650602">
        <ele>323.3999938964844</ele>
        <time>2014-07-12T07:01:51.000Z</time>
      </trkpt>
      <trkpt lon="35.01796410419047" lat="31.806262135505676">
        <ele>323.20001220703125</ele>
        <time>2014-07-12T07:01:57.000Z</time>
      </trkpt>
      <trkpt lon="35.0180141441524" lat="31.806581234559417">
        <ele>322.3999938964844</ele>
        <time>2014-07-12T07:02:01.000Z</time>
      </trkpt>
      <trkpt lon="35.01813811250031" lat="31.80701474659145">
        <ele>320.79998779296875</ele>
        <time>2014-07-12T07:02:07.000Z</time>
      </trkpt>
      <trkpt lon="35.018151104450226" lat="31.807090351358056">
        <ele>320.3999938964844</ele>
        <time>2014-07-12T07:02:08.000Z</time>
      </trkpt>
      <trkpt lon="35.0181729812175" lat="31.807239884510636">
        <ele>319.3999938964844</ele>
        <time>2014-07-12T07:02:10.000Z</time>
      </trkpt>
      <trkpt lon="35.01819477416575" lat="31.807307694107294">
        <ele>319.20001220703125</ele>
        <time>2014-07-12T07:02:11.000Z</time>
      </trkpt>
      <trkpt lon="35.01834330148995" lat="31.80765688419342">
        <ele>318.20001220703125</ele>
        <time>2014-07-12T07:02:17.000Z</time>
      </trkpt>
      <trkpt lon="35.01857095398009" lat="31.80807606317103">
        <ele>317.6000061035156</ele>
        <time>2014-07-12T07:02:25.000Z</time>
      </trkpt>
      <trkpt lon="35.018730126321316" lat="31.808445202186704">
        <ele>316.0</ele>
        <time>2014-07-12T07:02:32.000Z</time>
      </trkpt>
      <trkpt lon="35.018840096890926" lat="31.80867562070489">
        <ele>314.3999938964844</ele>
        <time>2014-07-12T07:02:38.000Z</time>
      </trkpt>
      <trkpt lon="35.01903614960611" lat="31.80892967619002">
        <ele>313.6000061035156</ele>
        <time>2014-07-12T07:02:44.000Z</time>
      </trkpt>
      <trkpt lon="35.01925986260176" lat="31.809229496866465">
        <ele>312.79998779296875</ele>
        <time>2014-07-12T07:02:51.000Z</time>
      </trkpt>
      <trkpt lon="35.019457591697574" lat="31.80946921929717">
        <ele>312.6000061035156</ele>
        <time>2014-07-12T07:02:58.000Z</time>
      </trkpt>
      <trkpt lon="35.01964710652828" lat="31.809590756893158">
        <ele>313.20001220703125</ele>
        <time>2014-07-12T07:03:04.000Z</time>
      </trkpt>
      <trkpt lon="35.01989269629121" lat="31.809541387483478">
        <ele>315.3999938964844</ele>
        <time>2014-07-12T07:03:12.000Z</time>
      </trkpt>
      <trkpt lon="35.020082546398044" lat="31.80953023955226">
        <ele>317.0</ele>
        <time>2014-07-12T07:03:19.000Z</time>
      </trkpt>
      <trkpt lon="35.02031254582107" lat="31.80961380712688">
        <ele>318.6000061035156</ele>
        <time>2014-07-12T07:03:26.000Z</time>
      </trkpt>
      <trkpt lon="35.020493594929576" lat="31.809635683894157">
        <ele>320.3999938964844</ele>
        <time>2014-07-12T07:03:32.000Z</time>
      </trkpt>
      <trkpt lon="35.020578587427735" lat="31.80961581878364">
        <ele>321.6000061035156</ele>
        <time>2014-07-12T07:03:39.000Z</time>
      </trkpt>
      <trkpt lon="35.02058973535895" lat="31.809626882895827">
        <ele>321.6000061035156</ele>
        <time>2014-07-12T07:03:48.000Z</time>
      </trkpt>
    </trkseg>
  </trk>
</gpx>
